[[{"header":{"parameterUnit":"m.s-1","parameterCategory":1,"la1":30.6,"la2":28.766,"lo1":-90.7593,"lo2":-88.6598,"dy":0.0162,"dx":0.0183,"nx":116,"ny":114,"refTime":"2023-07-12T06:00:00:Z","depth":0,"parameterNumber":2,"parameterNumberName":"U-component_of_WINDS"},"data":[0.0,0.0,0.0,0.0,0.0,0.0,0.0,0.0,0.0,0.0,0.0,0.0,0.0,0.0,0.0,0.0,0.0,0.0,0.0,0.0,0.0,0.0,0.0,0.0,0.0,0.0,0.0,0.0,0.0,0.0,0.0,0.0,0.0,0.0,0.0,0.0,0.0,0.0,0.0,0.0,0.0,0.0,0.0,0.0,0.0,0.0,0.0,0.0,0.0,0.0,0.0,0.0,0.0,0.0,0.0,0.0,0.0,0.0,0.0,0.0,0.0,0.0,0.0,0.0,0.0,0.0,0.0,0.0,0.0,0.0,0.0,0.0,0.0,0.0,0.0,0.0,0.0,0.0,0.0,0.0,0.0,0.0,0.0,0.0,0.0,0.0,0.0,0.0,0.0,0.0,0.0,0.0,0.0,0.0,0.0,0.0,0.0,0.0,0.0,0.0,0.0,0.0,0.0,0.0,0.0,0.0,0.0,0.0,0.0,0.0,0.0,0.0,0.0,0.0,0.0,0.0,0.0,0.0,0.0,0.0,0.0,0.0,0.0,0.0,0.0,0.0,0.0,0.0,0.0,0.0,0.0,0.0,0.0,0.0,0.0,0.0,0.0,0.0,0.0,0.0,0.0,0.0,0.0,0.0,0.0,0.0,0.0,0.0,0.0,0.0,0.0,0.0,0.0,0.0,0.0,0.0,0.0,0.0,0.0,0.0,0.0,0.0,0.0,0.0,0.0,0.0,0.0,0.0,0.0,0.0,0.0,0.0,0.0,0.0,0.0,0.0,0.0,0.0,0.0,0.0,0.0,0.0,0.0,0.0,0.0,0.0,0.0,0.0,0.0,0.0,0.0,0.0,0.0,0.0,0.0,0.0,0.0,0.0,0.0,0.0,0.0,0.0,0.0,0.0,0.0,0.0,0.0,0.0,0.0,0.0,0.0,0.0,0.0,0.0,0.0,0.0,0.0,0.0,0.0,0.0,0.0,0.0,0.0,0.0,0.0,0.0,0.0,0.0,0.0,0.0,0.0,0.0,0.0,0.0,0.0,0.0,0.0,0.0,0.0,0.0,0.0,0.0,0.0,0.0,0.0,0.0,0.0,0.0,0.0,0.0,0.0,0.0,0.0,0.0,0.0,0.0,0.0,0.0,0.0,0.0,0.0,0.0,0.0,0.0,0.0,0.0,0.0,0.0,0.0,0.0,0.0,0.0,0.0,0.0,0.0,0.0,0.0,0.0,0.0,0.0,0.0,0.0,0.0,0.0,0.0,0.0,0.0,0.0,0.0,0.0,0.0,0.0,0.0,0.0,0.0,0.0,0.0,0.0,0.0,0.0,0.0,0.0,0.0,0.0,0.0,0.0,0.0,0.0,0.0,0.0,0.0,0.0,0.0,0.0,0.0,0.0,0.0,0.0,0.0,0.0,0.0,0.0,0.0,0.0,0.0,0.0,0.0,0.0,0.0,0.0,0.0,0.0,0.0,0.0,0.0,0.0,0.0,0.0,0.0,0.0,0.0,0.0,0.0,0.0,0.0,0.0,0.0,0.0,0.0,0.0,0.0,0.0,0.0,0.0,0.0,0.0,0.0,0.0,0.0,0.0,0.0,0.0,0.0,0.0,0.0,0.0,0.0,0.0,0.0,0.0,0.0,0.0,0.0,0.0,0.0,0.0,0.0,0.0,0.0,0.0,0.0,0.0,0.0,0.0,0.0,0.0,0.0,0.0,0.0,0.0,0.0,0.0,0.0,0.0,0.0,0.0,0.0,0.0,0.0,0.0,0.0,0.0,0.0,0.0,0.0,0.0,0.0,0.0,0.0,0.0,0.0,0.0,0.0,0.0,0.0,0.0,0.0,0.0,0.0,0.0,0.0,0.0,0.0,0.0,0.0,0.0,0.0,0.0,0.0,0.0,0.0,0.0,0.0,0.0,0.0,0.0,0.0,0.0,0.0,0.0,0.0,0.0,0.0,0.0,0.0,0.0,0.0,0.0,0.0,0.0,0.0,0.0,0.0,0.0,0.0,0.0,0.0,0.0,0.0,0.0,0.0,0.0,0.0,0.0,0.0,0.0,0.0,0.0,0.0,0.0,0.0,0.0,0.0,0.0,0.0,0.0,0.0,0.0,0.0,0.0,0.0,0.0,0.0,0.0,0.0,0.0,0.0,0.0,0.0,0.0,0.0,0.0,0.0,0.0,0.0,0.0,0.0,0.0,0.0,0.0,0.0,0.0,0.0,0.0,0.0,0.0,0.0,0.0,0.0,0.0,0.0,0.0,0.0,0.0,0.0,0.0,0.0,0.0,0.0,0.0,0.0,0.0,0.0,0.0,0.0,0.0,0.0,0.0,0.0,0.0,0.0,0.0,0.0,0.0,0.0,0.0,0.0,0.0,0.0,0.0,0.0,0.0,0.0,0.0,0.0,0.0,0.0,0.0,0.0,0.0,0.0,0.0,0.0,0.0,0.0,0.0,0.0,0.0,0.0,0.0,0.0,0.0,0.0,0.0,0.0,0.0,0.0,0.0,0.0,0.0,0.0,0.0,0.0,0.0,0.0,0.0,0.0,0.0,0.0,0.0,0.0,0.0,0.0,0.0,0.0,0.0,0.0,0.0,0.0,0.0,0.0,0.0,0.0,0.0,0.0,0.0,0.0,0.0,0.0,0.0,0.0,0.0,0.0,0.0,0.0,0.0,0.0,0.0,0.0,0.0,0.0,0.0,0.0,0.0,0.0,0.0,0.0,0.0,0.0,0.0,0.0,0.0,0.0,0.0,0.0,0.0,0.0,0.0,0.0,0.0,0.0,0.0,0.0,0.0,0.0,0.0,0.0,0.0,0.0,0.0,0.0,0.0,0.0,0.0,0.0,0.0,0.0,0.0,0.0,0.0,0.0,0.0,0.0,0.0,0.0,0.0,0.0,0.0,0.0,0.0,0.0,0.0,0.0,0.0,0.0,0.0,0.0,0.0,0.0,0.0,0.0,0.0,0.0,0.0,0.0,0.0,0.0,0.0,0.0,0.0,0.0,0.0,0.0,0.0,0.0,0.0,0.0,0.0,0.0,0.0,0.0,0.0,0.0,0.0,0.0,0.0,0.0,0.0,0.0,0.0,0.0,0.0,0.0,0.0,0.0,0.0,0.0,0.0,0.0,0.0,0.0,0.0,0.0,0.0,0.0,0.0,0.0,0.0,0.0,0.0,0.0,0.0,0.0,0.0,0.0,0.0,0.0,0.0,0.0,0.0,0.0,0.0,0.0,0.0,0.0,0.0,0.0,0.0,0.0,0.0,0.0,0.0,0.0,0.0,0.0,0.0,0.0,0.0,0.0,0.0,0.0,0.0,0.0,0.0,0.0,0.0,0.0,0.0,0.0,0.0,0.0,0.0,0.0,0.0,0.0,0.0,0.0,0.0,0.0,0.0,0.0,0.0,0.0,0.0,0.0,0.0,0.0,0.0,0.0,0.0,0.0,0.0,0.0,0.0,0.0,0.0,0.0,0.0,0.0,0.0,0.0,0.0,0.0,0.0,0.0,0.0,0.0,0.0,0.0,0.0,0.0,0.0,0.0,0.0,0.0,0.0,0.0,0.0,0.0,0.0,0.0,0.0,0.0,0.0,0.0,0.0,0.0,0.0,0.0,0.0,0.0,0.0,0.0,0.0,0.0,0.0,0.0,0.0,0.0,0.0,0.0,0.0,0.0,0.0,0.0,0.0,0.0,0.0,0.0,0.0,0.0,0.0,0.0,0.0,0.0,0.0,0.0,0.0,0.0,0.0,0.0,0.0,0.0,0.0,0.0,0.0,0.0,0.0,0.0,0.0,0.0,0.0,0.0,0.0,0.0,0.0,0.0,0.0,0.0,0.0,0.0,0.0,0.0,0.0,0.0,0.0,0.0,0.0,0.0,0.0,0.0,0.0,0.0,0.0,0.0,0.0,0.0,0.0,0.0,0.0,0.0,0.0,0.0,0.0,0.0,0.0,0.0,0.0,0.0,0.0,0.0,0.0,0.0,0.0,0.0,0.0,0.0,0.0,0.0,0.0,0.0,0.0,0.0,0.0,0.0,0.0,0.0,0.0,0.0,0.0,0.0,0.0,0.0,0.0,0.0,0.0,0.0,0.0,0.0,0.0,0.0,0.0,0.0,0.0,0.0,0.0,0.0,0.0,0.0,0.0,0.0,0.0,0.0,0.0,0.0,0.0,0.0,0.0,0.0,0.0,0.0,0.0,0.0,0.0,0.0,0.0,0.0,0.0,0.0,0.0,0.0,0.0,0.0,0.0,0.0,0.0,0.0,0.0,0.0,0.0,0.0,0.0,0.0,0.0,0.0,0.0,0.0,0.0,0.0,0.0,0.0,0.0,0.0,0.0,0.0,0.0,0.0,0.0,0.0,0.0,0.0,0.0,0.0,0.0,0.0,0.0,0.0,0.0,0.0,0.0,0.0,0.0,0.0,0.0,0.0,0.0,0.0,0.0,0.0,0.0,0.0,0.0,0.0,0.0,0.0,0.0,0.0,0.0,0.0,0.0,0.0,0.0,0.0,0.0,0.0,0.0,0.0,0.0,0.0,0.0,0.0,0.0,0.0,0.0,0.0,0.0,0.0,0.0,0.0,0.0,0.0,0.0,0.0,0.0,0.0,0.0,0.0,0.0,0.0,0.0,0.0,0.0,0.0,0.0,0.0,0.0,0.0,0.0,0.0,0.0,0.0,0.0,0.0,0.0,0.0,0.0,0.0,0.0,0.0,0.0,0.0,0.0,0.0,0.0,0.0,0.0,0.0,0.0,0.0,0.0,0.0,0.0,0.0,0.0,0.0,0.0,0.0,0.0,0.0,0.0,0.0,0.0,0.0,0.0,0.0,0.0,0.0,0.0,0.0,0.0,0.0,0.0,0.0,0.0,0.0,0.0,0.0,0.0,0.0,0.0,0.0,0.0,0.0,0.0,0.0,0.0,0.0,0.0,0.0,0.0,0.0,0.0,0.0,0.0,0.0,0.0,0.0,0.0,0.0,0.0,0.0,0.0,0.0,0.0,0.0,0.0,0.0,0.0,0.0,0.0,0.0,0.0,0.0,0.0,0.0,0.0,0.0,0.0,0.0,0.0,0.0,0.0,0.0,0.0,0.0,0.0,0.0,0.0,0.0,0.0,0.0,0.0,0.0,0.0,0.0,0.0,0.0,0.0,0.0,0.0,0.0,0.0,0.0,0.0,0.0,0.0,0.0,0.0,0.0,0.0,0.0,0.0,0.0,0.0,0.0,0.0,0.0,0.0,0.0,0.0,0.0,0.0,0.0,0.0,0.0,0.0,0.0,0.0,0.0,0.0,0.0,0.0,0.0,0.0,0.0,0.0,0.0,0.0,0.0,0.0,0.0,0.0,0.0,0.0,0.0,0.0,0.0,0.0,0.0,0.0,0.0,0.0,0.0,0.0,0.0,0.0,0.0,0.0,0.0,0.0,0.0,0.0,0.0,0.0,0.0,0.0,0.0,0.0,0.0,0.0,0.0,0.0,0.0,0.0,0.0,0.0,0.0,0.0,0.0,0.0,0.0,0.0,0.0,0.0,0.0,0.0,0.0,0.0,0.0,0.0,0.0,0.0,0.0,0.0,0.0,0.0,0.0,0.0,0.0,0.0,0.0,0.0,0.0,0.0,0.0,0.0,0.0,0.0,0.0,0.0,0.0,0.0,0.0,0.0,0.0,0.0,0.0,0.0,0.0,0.0,0.0,0.0,0.0,0.0,0.0,0.0,0.0,0.0,0.0,0.0,0.0,0.0,0.0,0.0,0.0,0.0,0.0,0.0,0.0,0.0,0.0,0.0,0.0,0.0,0.0,0.0,0.0,0.0,0.0,0.0,0.0,0.0,0.0,0.0,0.0,0.0,0.0,0.0,0.0,0.0,0.0,0.0,0.0,0.0,0.0,0.0,0.0,0.0,0.0,0.0,0.0,0.0,0.0,0.0,0.0,0.0,0.0,0.0,0.0,0.0,0.0,0.0,0.0,0.0,0.0,0.0,0.0,0.0,0.0,0.0,0.0,0.0,0.0,0.0,0.0,0.0,0.0,0.0,0.0,0.0,0.0,0.0,0.0,0.0,0.0,0.0,0.0,0.0,0.0,0.0,-1.1494,-1.0712,0.0,0.0,0.0,0.0,0.0,0.0,0.0,0.0,0.0,0.0,0.0,0.0,0.0,0.0,0.0,0.0,0.0,0.0,0.0,0.0,0.0,0.0,0.0,0.0,0.0,0.0,0.0,0.0,0.0,0.0,0.0,0.0,0.0,0.0,0.0,0.0,0.0,0.0,0.0,0.0,0.0,0.0,0.0,0.0,0.0,0.0,0.0,0.0,0.0,0.0,0.0,0.0,0.0,0.0,0.0,0.0,0.0,0.0,0.0,0.0,0.0,0.0,0.0,0.0,0.0,0.0,0.0,0.0,0.0,0.0,0.0,0.0,0.0,0.0,0.0,0.0,0.0,0.0,0.0,0.0,0.0,0.0,0.0,0.0,0.0,0.0,0.0,0.0,0.0,0.0,0.0,0.0,0.0,0.0,0.0,0.0,0.0,0.0,0.0,0.0,0.0,0.0,0.0,0.0,0.0,0.0,0.0,0.0,0.0,0.0,0.0,0.0,0.0,0.0,-1.088,-1.0361,0.0,0.0,0.0,0.0,0.0,0.0,0.0,0.0,0.0,0.0,0.0,0.0,0.0,0.0,0.0,0.0,0.0,0.0,0.0,0.0,0.0,0.0,0.0,0.0,0.0,0.0,0.0,0.0,0.0,0.0,0.0,0.0,0.0,0.0,0.0,0.0,0.0,0.0,0.0,0.0,0.0,0.0,0.0,0.0,0.0,0.0,0.0,0.0,0.0,0.0,0.0,0.0,0.0,0.0,0.0,0.0,0.0,0.0,0.0,0.0,0.0,0.0,0.0,0.0,0.0,0.0,0.0,0.0,0.0,0.0,0.0,0.0,0.0,0.0,0.0,0.0,0.0,0.0,0.0,0.0,0.0,0.0,0.0,0.0,0.0,0.0,0.0,0.0,0.0,0.0,0.0,0.0,0.0,0.0,0.0,0.0,0.0,0.0,0.0,0.0,0.0,0.0,0.0,0.0,0.0,0.0,0.0,0.0,-1.1929,-1.1494,-1.1241,-1.0534,-1.0009,-0.9923,-0.9923,-0.9836,-0.9579,-0.8803,0.0,0.0,0.0,0.0,0.0,0.0,0.0,0.0,0.0,0.0,0.0,0.0,0.0,0.0,0.0,0.0,0.0,0.0,0.0,0.0,0.0,0.0,0.0,0.0,0.0,0.0,0.0,0.0,0.0,0.0,0.0,0.0,0.0,0.0,0.0,0.0,0.0,0.0,-1.3492,-1.3492,-1.3492,-1.3492,-1.3492,0.0,0.0,0.0,0.0,0.0,0.0,0.0,0.0,0.0,0.0,0.0,0.0,0.0,0.0,0.0,0.0,0.0,0.0,0.0,0.0,0.0,0.0,0.0,0.0,0.0,0.0,0.0,0.0,0.0,0.0,0.0,0.0,0.0,0.0,0.0,0.0,0.0,0.0,0.0,0.0,0.0,0.0,0.0,-1.0867,-1.0891,0.0,0.0,0.0,0.0,0.0,0.0,0.0,0.0,0.0,0.0,0.0,0.0,0.0,-1.2391,-1.265,-1.2687,-1.2705,-1.2705,-1.2534,-1.21,-1.1327,-1.1149,-1.0707,-0.9923,-0.9923,0.0,-0.8715,-0.8544,0.0,0.0,0.0,0.0,0.0,0.0,0.0,0.0,0.0,0.0,0.0,0.0,0.0,0.0,0.0,0.0,0.0,0.0,0.0,0.0,0.0,0.0,0.0,0.0,0.0,0.0,0.0,0.0,0.0,0.0,0.0,0.0,0.0,0.0,0.0,0.0,-1.3492,-1.3492,-1.3492,-1.3492,-1.3492,-1.3492,-1.3492,-1.3419,-1.3346,-1.3346,0.0,0.0,0.0,0.0,0.0,0.0,0.0,0.0,0.0,0.0,0.0,0.0,0.0,0.0,0.0,0.0,0.0,0.0,0.0,0.0,0.0,0.0,0.0,0.0,0.0,0.0,0.0,0.0,0.0,0.0,0.0,0.0,0.0,0.0,0.0,0.0,0.0,0.0,0.0,-1.1235,-1.1207,-1.1244,-1.1629,-1.1792,0.0,0.0,0.0,0.0,0.0,0.0,0.0,0.0,0.0,-1.23,-1.2312,-1.2439,-1.2699,-1.2705,-1.2705,-1.2705,-1.2705,-1.2186,-1.1327,-1.1327,-1.0539,-0.9144,-0.8965,-0.8448,-0.758,-0.8101,-0.7661,-0.6697,0.0,0.0,0.0,0.0,-0.6083,-0.6171,0.0,0.0,0.0,0.0,0.0,0.0,0.0,0.0,0.0,0.0,0.0,0.0,0.0,0.0,0.0,-1.3346,0.0,0.0,0.0,0.0,0.0,0.0,0.0,0.0,0.0,0.0,0.0,0.0,-1.3492,-1.3492,-1.3492,-1.3492,-1.3492,-1.3419,-1.3419,-1.3346,-1.32,-1.32,-1.3193,0.0,0.0,0.0,0.0,0.0,0.0,0.0,0.0,0.0,0.0,0.0,0.0,0.0,0.0,0.0,0.0,0.0,0.0,0.0,0.0,0.0,0.0,0.0,0.0,0.0,0.0,0.0,0.0,0.0,0.0,0.0,0.0,0.0,0.0,0.0,0.0,0.0,0.0,-1.1499,-1.1434,-1.1674,-1.1992,-1.2147,0.0,0.0,0.0,0.0,0.0,0.0,-1.2023,-1.2023,-1.2143,-1.2403,-1.2415,-1.2506,-1.2699,-1.2705,-1.2705,-1.2705,-1.2705,-1.21,-1.089,-1.089,-0.9845,-0.7925,-0.7834,-0.7312,-0.6704,-0.7397,-0.7217,-0.6428,-0.6343,-0.6343,-0.6254,-0.6083,-0.5997,-0.6083,0.0,0.0,0.0,0.0,0.0,0.0,0.0,0.0,0.0,0.0,0.0,0.0,0.0,0.0,-1.29,-1.29,-1.29,-1.29,0.0,0.0,0.0,0.0,0.0,0.0,0.0,0.0,0.0,-1.3193,-1.3419,-1.3492,-1.3492,-1.3492,-1.3419,-1.3193,-1.3193,-1.32,-1.32,-1.32,-1.3119,-1.29,0.0,0.0,0.0,0.0,0.0,0.0,0.0,0.0,0.0,0.0,0.0,0.0,0.0,0.0,0.0,0.0,0.0,0.0,0.0,0.0,0.0,0.0,0.0,0.0,0.0,0.0,0.0,0.0,0.0,0.0,0.0,0.0,0.0,0.0,0.0,0.0,0.0,0.0,0.0,-1.1912,-1.1992,0.0,0.0,0.0,0.0,-1.1944,-1.192,-1.2029,-1.2282,-1.2294,-1.2415,-1.2674,-1.2687,-1.2693,-1.2705,-1.2705,-1.2705,-1.2705,-1.2705,-1.166,-0.9666,-0.9666,-0.8532,-0.6517,-0.6517,-0.6343,-0.6171,-0.6432,-0.6428,-0.6343,-0.6169,-0.6083,-0.6083,-0.5822,-0.5733,-0.5733,0.0,0.0,0.0,0.0,0.0,0.0,0.0,0.0,0.0,0.0,0.0,0.0,0.0,-1.2973,-1.29,-1.29,-1.29,-1.29,-1.29,0.0,0.0,0.0,0.0,0.0,0.0,0.0,-1.3046,-1.3046,-1.32,-1.3346,-1.3346,-1.3419,-1.3419,-1.32,-1.32,-1.3046,-1.2826,-1.2826,-1.2746,-1.2673,-1.2673,-1.2746,0.0,0.0,0.0,0.0,0.0,0.0,0.0,0.0,0.0,0.0,0.0,0.0,0.0,0.0,0.0,0.0,0.0,0.0,0.0,0.0,0.0,0.0,0.0,0.0,0.0,0.0,0.0,0.0,0.0,0.0,0.0,0.0,0.0,0.0,0.0,0.0,0.0,-1.1929,-1.1757,0.0,-1.2487,-1.2307,-1.2187,-1.2433,-1.2421,-1.2469,-1.256,-1.2566,-1.2608,-1.2699,-1.2705,-1.2443,-1.1843,-1.166,-1.1397,-1.0875,-1.0605,-0.9826,-0.8703,-0.8532,-0.7658,-0.6428,-0.6257,-0.6171,-0.6083,-0.5994,-0.5908,-0.5905,-0.5908,-0.5819,-0.5822,-0.5733,-0.5733,-0.5733,0.0,0.0,0.0,0.0,0.0,0.0,0.0,0.0,0.0,0.0,0.0,-1.29,-1.2826,-1.2746,-1.2673,-1.2673,-1.2673,-1.2673,-1.2673,0.0,0.0,0.0,0.0,0.0,0.0,-1.29,-1.29,-1.282,-1.2973,-1.3119,-1.3119,-1.3273,-1.3273,-1.2973,-1.3046,-1.29,-1.2526,-1.2526,-1.2526,-1.2526,-1.2526,-1.2599,-1.2673,0.0,0.0,0.0,0.0,0.0,0.0,0.0,0.0,0.0,0.0,0.0,0.0,0.0,0.0,0.0,0.0,0.0,0.0,0.0,0.0,0.0,0.0,0.0,0.0,0.0,0.0,0.0,0.0,0.0,0.0,0.0,0.0,0.0,0.0,-1.0809,-1.0895,-1.1666,-1.1499,-1.1585,-1.2186,-1.21,-1.21,-1.2443,-1.2619,-1.2705,-1.2705,-1.2705,-1.2705,-1.2705,-1.2705,-1.2272,-1.1327,-1.1139,-1.0611,-0.9923,-0.9392,-0.8782,-0.8093,-0.7834,-0.7136,-0.6169,-0.5994,-0.5997,-0.5911,-0.5863,-0.579,-0.5787,-0.5749,-0.5757,-0.579,-0.579,-0.5817,-0.5852,0.0,0.0,0.0,0.0,0.0,0.0,0.0,0.0,0.0,0.0,-1.3046,-1.2826,-1.2599,-1.2452,-1.2305,-1.2305,-1.2305,-1.2305,-1.2305,-1.2452,0.0,0.0,0.0,0.0,-1.2599,-1.2826,-1.282,-1.2599,-1.282,-1.29,-1.29,-1.3119,-1.2973,-1.2599,-1.282,-1.2673,-1.2305,-1.2305,-1.2305,-1.2305,-1.2305,-1.2305,-1.2305,0.0,0.0,0.0,0.0,0.0,0.0,0.0,0.0,0.0,0.0,0.0,0.0,0.0,0.0,0.0,0.0,0.0,0.0,0.0,0.0,0.0,0.0,0.0,0.0,0.0,0.0,0.0,0.0,0.0,0.0,0.0,0.0,0.0,-1.0549,-1.0549,-1.0722,-1.1235,-1.1241,-1.1241,-1.1327,-1.1671,-1.1929,-1.2015,-1.2443,-1.2619,-1.2705,-1.2619,-1.2619,-1.2619,-1.2619,-1.2186,-1.1241,-1.1052,-1.0524,-0.9749,-0.9305,-0.8607,-0.7746,-0.7573,-0.6786,-0.5733,-0.5733,-0.5733,-0.5741,-0.5852,-0.5896,-0.5888,-0.5784,-0.5812,-0.5909,-0.5909,-0.5983,-0.6081,0.0,0.0,0.0,0.0,0.0,0.0,0.0,0.0,0.0,0.0,-1.29,-1.2746,-1.2452,-1.2305,-1.2305,-1.2305,-1.2305,-1.2305,-1.2305,0.0,0.0,0.0,0.0,0.0,-1.2378,-1.2599,-1.2673,-1.2599,-1.282,-1.29,-1.29,-1.2973,-1.2826,-1.2599,-1.2673,-1.2526,-1.2305,-1.2305,-1.2305,-1.2305,-1.2305,-1.2305,-1.2305,0.0,0.0,0.0,0.0,0.0,0.0,0.0,0.0,0.0,0.0,0.0,0.0,0.0,0.0,0.0,0.0,0.0,0.0,0.0,0.0,0.0,0.0,0.0,0.0,0.0,0.0,0.0,0.0,0.0,0.0,0.0,-1.0038,-1.0038,-1.012,-1.0125,-1.0294,-1.0722,-1.0549,-1.0636,-1.1241,-1.1149,-1.1241,-1.1929,-1.1843,-1.1843,-1.2186,-1.1843,-1.1671,-1.1671,-1.1671,-1.0977,-0.9584,-0.9314,-0.8611,-0.739,-0.6868,-0.6609,-0.652,-0.6349,-0.5997,-0.5733,-0.5733,-0.5733,-0.5735,-0.5768,-0.5779,-0.5795,-0.5934,-0.6007,-0.6034,-0.6034,-0.5999,-0.5953,0.0,0.0,0.0,0.0,0.0,0.0,0.0,0.0,0.0,0.0,-1.29,-1.2746,-1.2305,-1.2305,-1.2305,-1.2305,-1.2305,-1.2251,-1.2131,0.0,0.0,0.0,0.0,-1.2305,-1.2305,-1.2378,-1.2526,-1.2599,-1.2599,-1.2673,-1.2746,-1.2746,-1.2673,-1.2452,-1.2526,-1.2526,-1.2305,-1.2305,-1.2305,-1.2305,-1.2305,-1.2305,-1.2305,-1.2305,-1.2305,-1.2305,-1.2305,-1.2305,-1.2305,-1.2305,0.0,0.0,0.0,0.0,0.0,0.0,0.0,0.0,0.0,0.0,0.0,0.0,0.0,0.0,0.0,0.0,0.0,0.0,0.0,0.0,0.0,0.0,0.0,0.0,-1.0038,-1.0038,-1.0038,-1.0038,-1.0125,-1.0294,-1.012,-1.0212,-1.0722,-1.0636,-1.0809,-1.1413,-1.1327,-1.1413,-1.1671,-1.1413,-1.1327,-1.1327,-1.1327,-1.0539,-0.889,-0.8615,-0.7826,-0.6428,-0.5908,-0.5819,-0.6083,-0.5822,-0.5733,-0.5733,-0.5733,-0.5733,-0.5738,-0.5784,-0.5803,-0.5817,0.0,0.0,0.0,0.0,-0.6083,-0.5977,0.0,0.0,0.0,0.0,0.0,0.0,0.0,0.0,0.0,0.0,0.0,-1.2746,-1.2305,-1.2305,-1.2305,-1.2305,-1.2305,-1.2191,0.0,0.0,0.0,-1.2464,-1.2325,-1.2238,-1.2204,-1.2204,-1.2351,-1.2497,-1.2351,-1.2371,-1.2545,-1.2545,-1.2492,-1.2305,-1.2526,-1.2452,-1.2305,-1.2305,-1.2305,-1.2305,-1.2305,-1.2305,-1.2305,-1.2305,-1.2305,-1.2305,-1.2305,-1.2305,-1.2298,-1.2224,0.0,0.0,0.0,0.0,0.0,0.0,0.0,0.0,0.0,0.0,0.0,0.0,0.0,0.0,0.0,0.0,0.0,0.0,0.0,0.0,0.0,0.0,0.0,0.0,-1.0038,-1.0038,-1.0038,-1.0038,-1.0038,-1.0038,-1.0038,-1.0038,-1.0038,-1.0294,-1.0549,-1.0636,-1.0977,-1.1154,-1.1235,-1.1154,0.0,0.0,0.0,-1.0371,-0.8803,-0.8528,-0.7749,-0.6364,-0.5927,-0.5847,-0.6126,-0.586,-0.5773,-0.5773,-0.5773,-0.5773,-0.5782,-0.5882,-0.5931,-0.5942,-0.5928,-0.5991,-0.61,-0.6208,-0.617,-0.597,0.0,0.0,0.0,0.0,0.0,0.0,0.0,0.0,0.0,-1.2673,-1.2673,-1.2599,-1.2305,-1.2305,-1.2305,-1.2305,-1.2305,-1.2278,0.0,0.0,-1.2138,-1.2029,-1.2029,-1.1844,-1.1603,-1.1736,-1.1805,-1.1874,-1.2013,-1.2144,-1.2315,-1.2237,-1.2215,-1.2305,-1.2305,-1.2305,-1.2305,-1.2305,-1.2305,-1.2305,-1.2305,-1.2305,-1.2305,-1.2305,-1.2305,-1.2305,-1.2305,-1.2305,-1.2224,-1.1558,-1.1335,-1.118,-1.0201,0.0,0.0,0.0,0.0,0.0,0.0,0.0,0.0,0.0,0.0,0.0,0.0,0.0,0.0,0.0,0.0,0.0,0.0,0.0,0.0,-1.0038,-1.0038,-1.0038,-1.0038,-1.0038,-1.0038,-1.0038,-1.0038,-1.0038,-1.0038,-1.0038,-1.0207,-1.0549,-1.0381,-1.0381,-1.0722,-1.0467,-1.0207,-1.0207,-1.0207,-0.9501,-0.8009,-0.7918,-0.7279,-0.596,-0.5869,0.0,-0.6109,-0.6018,-0.6018,-0.6018,-0.6018,-0.6018,-0.6018,-0.604,-0.6108,-0.6189,-0.6089,-0.6064,-0.6089,-0.6113,-0.5855,-0.5386,0.0,0.0,0.0,0.0,0.0,0.0,0.0,0.0,0.0,0.0,-1.2599,-1.2526,-1.2298,-1.2305,-1.2305,-1.2305,-1.2171,0.0,0.0,-1.1944,-1.1864,-1.187,-1.1724,-1.1577,-1.143,-1.1498,-1.1635,-1.1703,-1.1703,-1.1785,-1.1929,-1.1783,-1.1794,-1.187,-1.2017,-1.2084,-1.2098,-1.2238,-1.2305,-1.2298,-1.2157,-1.215,-1.2157,-1.2224,-1.2077,-1.1706,-1.162,-1.1323,-1.0875,-1.0501,-1.0276,-1.0056,-0.9377,-0.9214,-0.9169,0.0,0.0,0.0,0.0,0.0,0.0,0.0,0.0,0.0,0.0,0.0,0.0,0.0,0.0,-0.9519,-0.9607,0.0,-0.9777,-0.9777,-0.9951,-1.0038,-1.0038,-1.0038,-1.0038,-1.0038,-1.0038,-1.0038,-1.0038,-1.0038,-1.0125,-1.0294,-1.012,-1.0125,-1.0294,-1.012,-1.0038,-1.0038,-1.0143,-0.9393,-0.7957,-0.8399,-0.7756,-0.5994,-0.6366,-0.6397,-0.6086,-0.6086,-0.6086,-0.6086,-0.6086,-0.6086,-0.6086,-0.5803,-0.5931,-0.617,-0.5538,-0.5458,-0.5792,-0.5792,-0.5436,-0.4875,0.0,0.0,0.0,0.0,0.0,0.0,0.0,0.0,0.0,0.0,0.0,-1.2452,-1.2298,-1.2305,-1.2305,0.0,0.0,0.0,0.0,-1.1643,-1.157,-1.1697,-1.147,-1.1316,-1.1263,-1.1256,-1.1323,-1.1525,-1.1391,-1.1425,-1.1614,-1.1411,-1.1369,-1.1436,-1.1677,-1.1713,-1.1655,-1.1873,-1.1924,-1.1771,-1.1607,-1.1552,-1.1552,-1.17,-1.1477,-1.0956,-1.064,-1.0115,-0.9523,-0.9367,-0.9221,-0.8998,-0.847,-0.8237,-0.8034,-0.7737,-0.7652,0.0,0.0,0.0,0.0,0.0,0.0,0.0,0.0,-0.874,-0.8823,-0.8999,-0.9087,-0.9262,-0.9257,-0.9432,-0.9515,-0.9515,-0.9689,-0.9864,-0.9951,-0.9951,-0.9951,-0.9951,-0.9951,-1.0038,-1.0038,-1.0038,-1.0038,-1.0038,-1.0038,-1.0038,-1.0038,-1.0081,-1.01,-1.01,-1.022,-0.9686,-0.831,-0.891,-0.8344,-0.659,-0.6972,-0.6893,-0.6345,-0.625,-0.6154,-0.6154,-0.6059,-0.5963,-0.5963,-0.5389,-0.5482,-0.5772,-0.491,-0.4861,-0.5219,-0.5278,-0.4923,-0.4379,0.0,0.0,0.0,0.0,0.0,0.0,0.0,0.0,0.0,0.0,0.0,0.0,0.0,0.0,0.0,0.0,0.0,0.0,-1.1891,-1.1837,-1.1603,-1.1116,-1.1056,-1.0922,-1.0661,-1.0719,-1.0782,-1.0903,-1.0903,-1.0975,-1.1234,-1.1234,-1.131,-1.1423,-1.1456,-1.1125,-1.0584,-1.0789,-1.0466,-0.9902,-1.0032,-1.0045,-0.9895,-0.9895,-1.0196,-1.049,-0.9744,-0.9448,-0.9221,-0.8537,-0.8232,-0.8084,-0.7096,-0.6942,-0.7096,-0.7042,-0.723,-0.7517,-0.7805,-0.8052,-0.8337,-0.8519,-0.8568,-0.8652,0.0,-0.874,-0.874,-0.9174,-0.9087,-0.8999,-0.9262,-0.9345,-0.9349,-0.9349,-0.9345,-0.9432,-0.9602,-0.9602,-0.9602,-0.9602,-0.9864,-1.0038,-1.0038,-1.0038,-1.0038,-1.0038,-1.0038,-1.0038,-1.0038,-1.013,-1.0239,-1.0239,-1.0433,-1.0163,-0.9322,-0.8699,-0.8408,-0.8257,-0.7015,-0.6787,-0.7387,-0.6694,-0.6396,-0.6297,-0.5899,-0.57,-0.5601,-0.5103,-0.4904,-0.4904,-0.4804,-0.4512,-0.4205,-0.4548,-0.4292,-0.3901,0.0,0.0,0.0,0.0,0.0,0.0,0.0,0.0,0.0,0.0,0.0,0.0,0.0,0.0,0.0,0.0,0.0,0.0,-1.163,-1.145,-1.1249,-1.1002,-1.0828,-1.0745,-1.0751,-1.0744,-1.0807,-1.0996,-1.0996,-1.1059,-1.112,-1.0722,-1.0458,-1.0456,-1.0208,-0.987,-0.9548,-0.9805,-0.9772,-0.9504,-0.9526,-0.9479,-0.9342,-0.8798,-0.8689,-0.8912,-0.8537,-0.8161,0.0,0.0,-0.7173,-0.7022,-0.6865,-0.6791,-0.6714,-0.6865,-0.6991,-0.7141,-0.7482,-0.7851,-0.8142,-0.8385,-0.8487,-0.8656,-0.874,-0.8652,-0.8652,-0.8828,-0.8828,-0.874,-0.8915,-0.8999,-0.9087,-0.9087,-0.9174,-0.9345,-0.9432,-0.9432,-0.9477,-0.9771,-0.9763,-0.9777,-0.9777,-0.9951,-1.0038,-1.0038,-1.0038,-1.0095,-1.013,-1.0225,-1.0324,-1.0442,-1.065,-1.0377,-0.9613,-0.9819,-0.9328,-0.8031,-0.8332,-0.8171,-0.763,-0.773,-0.7332,-0.6531,-0.5534,-0.5135,-0.5135,-0.4533,-0.4535,-0.4734,-0.4133,-0.3932,-0.4026,-0.416,-0.3842,-0.3448,0.0,0.0,0.0,0.0,0.0,0.0,0.0,0.0,0.0,0.0,0.0,0.0,0.0,0.0,0.0,0.0,0.0,0.0,0.0,-1.1156,-1.0955,-1.0875,-1.0732,0.0,-1.0807,-1.087,-1.0996,-1.1185,-1.1122,-1.1122,-1.1122,-1.0598,-1.0281,-1.0168,-0.9776,-0.9334,-0.8887,-0.9133,-0.9029,-0.8633,-0.8647,-0.8592,-0.8471,-0.771,-0.7374,-0.7346,-0.7367,-0.7022,0.0,0.0,-0.6412,-0.6335,-0.6641,-0.6641,-0.6563,-0.6791,-0.6865,-0.6976,-0.7221,-0.7652,-0.7978,-0.8195,-0.843,-0.8568,-0.8568,-0.8568,-0.8568,-0.8568,-0.8424,-0.8263,-0.8576,-0.8508,-0.852,-0.8744,-0.8999,-0.9087,-0.9174,-0.9218,-0.9389,-0.9714,-0.9647,-0.9682,-0.9682,-0.9754,-0.9864,-0.9777,-0.992,-1.0018,-1.0173,-1.0386,-1.0513,-1.066,-1.0868,-1.0688,-1.0,-1.0529,-1.0006,-0.8425,-0.9126,-0.8924,-0.8028,-0.8428,-0.8028,-0.7033,-0.5634,-0.5035,-0.4935,-0.4133,-0.4033,-0.4232,-0.3531,-0.343,-0.3732,-0.3732,-0.3531,-0.323,0.0,0.0,0.0,0.0,0.0,0.0,0.0,0.0,0.0,0.0,0.0,0.0,0.0,0.0,0.0,0.0,0.0,0.0,0.0,-1.1156,-1.0868,-1.0651,-1.0751,-1.0807,-1.0807,-1.0996,-1.1185,-1.1303,-1.1185,-1.1185,-1.1303,-1.1122,-1.1059,-1.1059,-1.0814,-0.9977,-0.87,-0.8759,-0.8059,-0.6785,-0.6962,-0.6889,-0.6694,-0.6648,-0.6463,-0.615,-0.6308,0.0,0.0,0.0,-0.6338,-0.6338,-0.6338,-0.6338,0.0,-0.6563,-0.6714,-0.6898,-0.707,-0.74,-0.7741,-0.7997,-0.8348,-0.8568,-0.8568,-0.8568,-0.8568,-0.8568,-0.7882,-0.7483,-0.842,-0.7882,-0.7573,-0.85,-0.8656,-0.8652,-0.8911,-0.9063,-0.9173,-0.9178,-0.9518,-0.9815,-0.9815,-0.9651,-0.9515,-0.9349,-0.9705,-0.9908,-0.9917,-1.0566,-1.0882,-1.0886,-1.108,-1.1086,-1.0797,-1.0002,-0.9908,-1.0314,-0.8832,-0.8432,-0.9118,-0.8333,-0.8038,-0.7839,-0.6237,-0.5534,-0.5436,-0.3833,-0.323,-0.323,-0.323,-0.323,-0.323,-0.323,-0.323,-0.323,0.0,0.0,0.0,0.0,0.0,0.0,0.0,0.0,0.0,0.0,0.0,0.0,0.0,0.0,0.0,0.0,0.0,0.0,0.0,-1.1166,-1.0853,-1.0751,-1.087,-1.1059,-1.1115,-1.1185,-1.131,-1.1498,-1.1435,-1.1435,-1.1498,-1.0926,-1.0667,-1.0534,-0.9894,-0.925,-0.8678,-0.8184,-0.7697,-0.7189,-0.6915,-0.6712,-0.6662,-0.6622,-0.6501,-0.6251,0.0,0.0,0.0,-0.6227,-0.6338,-0.6338,-0.6338,-0.6338,-0.6338,-0.6412,-0.6412,-0.6578,-0.6705,-0.6991,-0.7206,-0.6749,-0.686,-0.7044,-0.6602,-0.6514,-0.6539,-0.6719,-0.6497,-0.6359,-0.6774,-0.654,-0.6432,-0.6669,-0.6737,-0.6706,-0.6795,-0.6821,-0.7008,-0.7379,-0.7366,-0.7506,-0.7702,-0.8563,-0.9319,-0.9813,-0.9492,-0.9387,-1.0019,-1.0251,-1.0381,-1.0604,-1.0769,-1.0806,-1.0511,-1.0408,-1.0109,-0.9612,-0.9023,-0.9221,-0.9912,-0.8821,-0.8223,-0.8124,-0.6032,-0.5432,-0.6027,-0.4031,-0.4031,-0.5229,-0.3731,-0.3632,-0.4133,-0.3432,-0.323,-0.323,0.0,0.0,0.0,0.0,0.0,0.0,0.0,0.0,0.0,0.0,0.0,0.0,0.0,0.0,0.0,0.0,0.0,0.0,0.0,0.0,-1.0933,-1.0933,-1.1059,-1.1178,-1.1303,-1.1373,-1.1498,-1.1622,-1.1622,-1.1622,-1.156,-1.1122,-1.0863,-1.0724,-1.0021,-0.9378,-0.8737,-0.8102,-0.7587,-0.7082,-0.6747,-0.6599,-0.6615,-0.6511,-0.6398,0.0,0.0,0.0,0.0,-0.6108,-0.6179,-0.6186,-0.6244,-0.6338,-0.6257,-0.5944,-0.5867,-0.5786,-0.5625,-0.5898,-0.6022,-0.5518,-0.5615,-0.5794,-0.5356,-0.5267,-0.5287,-0.5445,-0.5341,-0.5313,-0.5626,-0.5603,-0.5526,-0.5786,-0.5858,-0.582,-0.5705,-0.5855,-0.6026,-0.6276,-0.6295,-0.6347,-0.6556,-0.7217,-0.7876,-0.859,-0.8602,-0.8765,-0.944,-0.9904,-1.029,-1.0408,-1.0609,-1.0511,-1.0216,-1.0413,-1.0113,-0.932,-0.932,-0.962,-1.0117,-0.9217,-0.8817,-0.8718,-0.6828,-0.6129,-0.6323,-0.4929,-0.4931,-0.5727,-0.473,-0.4531,-0.4734,-0.4033,-0.3531,-0.323,0.0,0.0,0.0,0.0,0.0,0.0,0.0,0.0,0.0,0.0,0.0,0.0,0.0,0.0,0.0,0.0,0.0,0.0,0.0,0.0,0.0,-1.1122,-1.1247,-1.1303,-1.1303,-1.1498,-1.1622,-1.1622,-1.156,-1.156,-1.156,-1.1498,-1.1498,-1.1498,-1.1122,-1.0281,-0.8994,-0.8613,-0.7712,-0.6482,-0.6416,-0.642,-0.637,-0.6403,0.0,0.0,0.0,0.0,0.0,-0.5918,-0.6023,-0.6057,-0.6213,-0.6261,-0.6103,-0.5237,-0.5002,-0.4768,-0.3986,-0.4044,-0.4353,-0.4353,-0.4586,-0.491,-0.4821,-0.4821,-0.4821,-0.4828,-0.443,-0.4244,-0.5092,-0.4862,-0.4762,-0.5608,-0.5782,-0.5743,-0.5621,-0.5889,-0.5952,-0.5826,-0.6,-0.6192,-0.6364,-0.5689,-0.5303,-0.5693,-0.7111,-0.803,-0.8097,-0.9522,-1.031,-1.031,-1.0314,-1.0216,-1.0019,-1.0019,-0.9826,-0.9628,-0.9628,-0.9628,-0.9628,-0.9628,-0.9628,-0.9529,-0.8425,-0.7422,-0.6523,-0.642,-0.5827,-0.5133,-0.6027,-0.5827,-0.4935,-0.4935,-0.4234,-0.3331,0.0,0.0,0.0,0.0,0.0,0.0,0.0,0.0,0.0,0.0,0.0,0.0,0.0,0.0,0.0,0.0,0.0,0.0,0.0,0.0,0.0,0.0,0.0,0.0,0.0,0.0,0.0,0.0,0.0,-1.08,-1.08,-1.0288,-1.0028,-1.0028,-0.9843,-0.9588,-0.9139,-0.8291,-0.7707,-0.7321,0.0,-0.642,-0.6424,0.0,0.0,0.0,0.0,0.0,0.0,-0.5762,-0.5935,-0.6057,-0.6213,-0.5867,-0.5318,-0.5082,-0.4613,-0.4066,-0.383,-0.3966,-0.394,-0.327,-0.3208,-0.3312,-0.2776,-0.2597,-0.2699,-0.2834,-0.2775,-0.2803,-0.33,-0.3277,-0.3393,-0.3648,-0.3769,-0.376,-0.3633,-0.3739,-0.3769,-0.3783,-0.3819,-0.3859,-0.3991,-0.3788,-0.3715,-0.3788,-0.5265,-0.6353,-0.6863,-0.8001,-0.8619,-0.8619,-0.9616,-1.0019,-0.9723,-0.9723,-0.9628,-0.9628,-0.9628,-0.9628,-0.9628,-0.9628,-0.9628,-0.9529,-0.8425,-0.8322,-0.8623,-0.7024,-0.7223,-0.8226,-0.6921,-0.6722,-0.7126,-0.6326,-0.5329,-0.4433,0.0,0.0,0.0,0.0,0.0,0.0,0.0,0.0,0.0,0.0,0.0,0.0,0.0,0.0,0.0,0.0,0.0,0.0,0.0,0.0,0.0,0.0,0.0,0.0,0.0,0.0,0.0,0.0,0.0,0.0,0.0,-0.9843,-0.9518,-0.9518,-0.9262,-0.9005,-0.8683,0.0,0.0,0.0,0.0,0.0,0.0,0.0,0.0,0.0,0.0,0.0,0.0,-0.5207,-0.543,-0.5606,-0.5684,-0.516,-0.438,-0.399,-0.36,-0.3132,-0.282,-0.2736,-0.2649,-0.2153,-0.2141,-0.2121,-0.168,-0.1604,-0.171,-0.1822,-0.1931,-0.2137,-0.2347,-0.258,-0.2796,-0.2854,-0.3044,-0.312,-0.2961,-0.2951,-0.2943,-0.2924,-0.2943,-0.2962,-0.2971,-0.2995,-0.3034,-0.3095,-0.434,-0.5264,-0.572,-0.7123,-0.8021,-0.8021,-0.9221,-0.9723,-0.9628,-0.9628,-0.9628,-0.9628,-0.9628,-0.9628,-0.9628,-0.9628,-0.9628,-0.9529,-0.8924,-0.8825,-0.8825,-0.8124,-0.8223,-0.8825,-0.8124,-0.7922,-0.7922,-0.7322,-0.6426,-0.5529,0.0,0.0,0.0,0.0,0.0,0.0,0.0,0.0,0.0,0.0,0.0,0.0,0.0,0.0,0.0,0.0,0.0,0.0,0.0,0.0,0.0,0.0,0.0,0.0,0.0,0.0,0.0,0.0,0.0,0.0,0.0,0.0,0.0,0.0,0.0,0.0,0.0,0.0,0.0,0.0,0.0,0.0,0.0,0.0,0.0,0.0,0.0,0.0,0.0,-0.4504,-0.4712,-0.4807,-0.4836,-0.43,-0.3443,-0.2744,-0.2433,-0.2198,-0.1492,-0.1279,-0.1303,-0.1303,-0.1346,-0.139,-0.139,-0.1413,-0.1436,-0.1436,-0.1639,-0.1844,-0.1844,-0.2248,-0.267,-0.2709,-0.2881,-0.3044,-0.3029,-0.3127,-0.2996,-0.2887,-0.2917,-0.2928,-0.2879,-0.2932,-0.2992,-0.314,-0.3983,-0.4553,-0.463,-0.6628,-0.7922,-0.8223,-0.9126,-0.9628,-0.9628,-0.9628,-0.9628,-0.9628,-0.9628,-0.9628,-0.9628,-0.9628,-0.9628,-0.9628,-0.9628,-0.9027,-0.8322,-0.9225,-0.9027,-0.8322,-0.9229,-0.9027,-0.8223,-0.8223,-0.7521,-0.6623,0.0,0.0,0.0,0.0,0.0,0.0,0.0,0.0,0.0,0.0,0.0,0.0,0.0,0.0,0.0,0.0,0.0,0.0,0.0,0.0,0.0,0.0,0.0,0.0,0.0,0.0,0.0,0.0,-1.0085,0.0,0.0,0.0,0.0,0.0,0.0,0.0,0.0,0.0,0.0,0.0,0.0,0.0,0.0,0.0,0.0,0.0,0.0,0.0,0.0,0.0,-0.4239,-0.3782,-0.3938,-0.3444,-0.2666,-0.251,-0.2041,-0.1492,-0.1335,-0.1279,-0.1303,-0.1303,-0.1346,-0.139,-0.139,-0.1413,-0.1436,-0.1436,-0.144,-0.1534,-0.1804,-0.1927,-0.2131,-0.2469,-0.2711,-0.2826,-0.2918,-0.2944,-0.295,-0.2882,-0.2883,-0.2884,-0.2875,-0.297,-0.3133,-0.3143,-0.3348,-0.3419,-0.343,-0.5527,-0.7521,-0.9225,-0.9525,-0.9628,-0.9628,-0.9628,-0.9628,-0.9628,-0.9628,-0.9628,-0.9628,-0.9628,-0.9628,-0.9628,-0.9628,-0.9525,-0.9327,-0.9529,-0.9525,-0.9327,-0.9529,-0.9525,-0.9324,-0.9324,-0.8623,-0.772,0.0,0.0,0.0,0.0,0.0,0.0,0.0,0.0,0.0,0.0,-1.371,-1.3783,0.0,0.0,0.0,0.0,0.0,0.0,0.0,0.0,0.0,0.0,0.0,0.0,0.0,-1.2087,-1.1608,-1.0773,0.0,-0.9262,-0.849,-0.7847,-0.7521,-0.7521,-0.7265,0.0,0.0,0.0,0.0,0.0,0.0,0.0,0.0,0.0,0.0,0.0,0.0,0.0,0.0,0.0,-0.2875,-0.2424,-0.2932,-0.2586,-0.1884,-0.1884,-0.157,-0.1335,-0.1335,-0.1268,-0.1279,-0.1279,-0.1312,-0.1349,-0.1365,-0.1391,-0.1416,-0.1432,-0.1436,-0.1436,-0.1525,-0.181,-0.2096,-0.2281,-0.2595,-0.2899,-0.2969,-0.2961,-0.2948,-0.2921,-0.2891,-0.2875,-0.2875,-0.2981,-0.3144,-0.3144,-0.3161,-0.323,-0.323,-0.5227,-0.7422,-0.9529,-0.9628,-0.9628,-0.9628,-0.9628,-0.9628,-0.9628,-0.9628,-0.9628,-0.9628,-0.9628,-0.9628,-0.9628,-0.9628,-0.9628,-0.9628,-0.9628,-0.9628,-0.9628,-0.9628,-0.9628,-0.9628,-0.9628,-0.9225,-0.8825,0.0,0.0,0.0,0.0,0.0,0.0,0.0,-1.5428,-1.4387,-1.3674,-1.392,-1.4065,-1.3935,-1.3863,0.0,0.0,0.0,0.0,0.0,0.0,0.0,0.0,0.0,0.0,0.0,0.0,0.0,-1.09,-1.0264,0.0,0.0,0.0,0.0,0.0,-0.7334,-0.7179,-0.6946,0.0,0.0,0.0,0.0,-0.6416,0.0,0.0,0.0,0.0,0.0,0.0,0.0,0.0,-0.1774,-0.1311,-0.1981,-0.1791,-0.1335,-0.1335,-0.1335,-0.1335,-0.1335,-0.1335,-0.1335,-0.1335,-0.128,-0.1311,-0.1341,-0.1369,-0.1399,-0.1429,-0.1436,-0.1525,-0.1525,-0.1885,-0.2256,-0.2293,-0.2675,-0.2976,-0.3023,-0.2988,-0.2958,-0.2958,-0.2909,-0.2875,-0.2875,-0.2981,-0.3144,-0.3144,-0.3161,-0.3331,-0.3531,-0.5329,-0.7322,-0.9225,-0.9525,-0.9628,-0.9628,-0.9628,-0.9628,-0.9628,-0.9628,-0.9628,-0.9628,-0.9628,-0.9628,-0.9628,-0.9628,-0.9628,-0.9628,-0.9628,-0.9628,-0.9628,-0.9628,-0.9628,-0.9628,-0.9628,-0.9628,-0.9628,0.0,0.0,0.0,0.0,0.0,0.0,0.0,-1.6253,-1.5177,-1.4175,-1.4057,-1.4129,-1.4353,-1.4209,0.0,0.0,0.0,0.0,0.0,0.0,0.0,0.0,0.0,0.0,0.0,0.0,0.0,-1.1309,-1.0772,0.0,0.0,0.0,0.0,0.0,0.0,-0.7377,-0.7138,-0.6942,0.0,0.0,0.0,0.0,0.0,0.0,0.0,0.0,0.0,-0.295,-0.2088,-0.2148,-0.1683,-0.1131,-0.131,-0.1288,-0.1335,-0.1335,-0.1335,-0.1335,-0.1335,-0.1335,-0.1335,-0.1335,-0.128,-0.1311,-0.1341,-0.1369,-0.1399,-0.1429,-0.1615,-0.1794,-0.1794,-0.1974,-0.2246,-0.2431,-0.2561,-0.2686,-0.2966,-0.2962,-0.2958,-0.2958,-0.2909,-0.2875,-0.2875,-0.2981,-0.3144,-0.3144,-0.3161,-0.3632,-0.4634,-0.5727,-0.6921,-0.8124,-0.9126,-0.9628,-0.9628,-0.9628,-0.9628,-0.9628,-0.9628,-0.9628,-0.9628,-0.9628,-0.9628,-0.9628,-0.9628,-0.9628,-0.9628,-0.9628,-0.9628,-0.9628,-0.9628,-0.9628,-0.9628,-0.9628,-0.9628,-0.9628,0.0,0.0,0.0,0.0,0.0,0.0,0.0,-1.6826,-1.5781,-1.4556,-1.4405,-1.4425,-1.4425,-1.4425,-1.4425,0.0,0.0,0.0,0.0,0.0,0.0,0.0,0.0,0.0,0.0,0.0,-1.2983,-1.1948,-1.1328,0.0,0.0,0.0,0.0,0.0,0.0,-0.7776,-0.7564,-0.7495,0.0,0.0,0.0,0.0,0.0,0.0,0.0,0.0,0.0,0.0,-0.1817,-0.1837,-0.1658,-0.1474,-0.149,-0.155,-0.1615,-0.1461,-0.1399,-0.1336,-0.1572,-0.1493,-0.1336,-0.1572,-0.1583,-0.1524,-0.164,-0.1677,-0.18,-0.184,-0.1957,-0.2064,-0.2064,-0.2243,-0.2424,-0.2513,-0.2649,-0.288,-0.3008,-0.3106,-0.3106,-0.3106,-0.2961,-0.2912,-0.2877,-0.2947,-0.3025,-0.3098,-0.3775,-0.4334,-0.4734,-0.5827,-0.7223,-0.8924,-0.9327,-0.9628,-0.9628,-0.9628,-0.9628,-0.9628,-0.9628,-0.9628,-0.9628,-0.9628,-0.9628,-0.9628,-0.9628,-0.9628,-0.9628,-0.9628,-0.9628,-0.9628,-0.9628,-0.9628,-0.9628,-0.9628,-0.9628,-0.9628,0.0,0.0,0.0,0.0,0.0,0.0,-1.8133,-1.7268,-1.6221,-1.4989,-1.4645,-1.4569,-1.4497,-1.4569,-1.4569,-1.4569,0.0,0.0,0.0,0.0,0.0,0.0,0.0,0.0,0.0,0.0,-1.3545,-1.2713,-1.2005,-1.1166,0.0,0.0,-0.8811,-0.8389,0.0,0.0,0.0,0.0,0.0,0.0,0.0,0.0,0.0,0.0,0.0,0.0,0.0,0.0,0.0,0.0,0.0,-0.1662,-0.1662,0.0,0.0,-0.1587,-0.1542,-0.1572,-0.1808,-0.1729,-0.1572,-0.1808,-0.1807,-0.1739,-0.1859,-0.1974,-0.2015,-0.2074,-0.22,-0.2227,-0.2241,-0.2513,-0.2604,0.0,-0.2817,-0.2961,-0.3133,-0.3129,-0.3035,-0.3071,-0.3022,-0.2962,-0.2905,-0.3208,-0.3476,-0.3518,-0.4561,-0.5402,-0.5729,-0.6426,-0.7521,-0.9126,-0.9426,-0.9628,-0.9628,-0.9628,-0.9628,-0.9628,-0.9628,-0.9628,-0.9628,-0.9529,-0.9529,-0.9628,-0.9529,-0.9529,-0.9628,-0.9628,-0.9628,-0.9628,-0.9628,-0.9628,-0.9628,-0.9628,-0.9628,-0.9628,0.0,0.0,0.0,0.0,0.0,0.0,0.0,-1.7591,-1.6539,-1.5378,-1.4863,-1.4569,-1.4569,-1.4569,-1.4569,-1.4569,0.0,0.0,0.0,0.0,0.0,0.0,0.0,0.0,0.0,0.0,-1.4338,-1.3745,-1.2778,-1.1977,-1.1323,-1.0357,-0.9564,-0.8973,0.0,0.0,0.0,0.0,0.0,0.0,0.0,0.0,0.0,0.0,0.0,0.0,0.0,0.0,0.0,0.0,0.0,0.0,0.0,0.0,0.0,0.0,-0.1851,-0.1887,-0.1887,-0.1887,-0.1887,-0.1887,-0.1887,-0.1897,-0.194,-0.1869,-0.1976,-0.2067,-0.2261,-0.2451,-0.2504,-0.2694,-0.2875,-0.2875,-0.2875,-0.2916,-0.3127,-0.2997,-0.3003,-0.3124,-0.3086,-0.3118,-0.2963,-0.3876,-0.45,-0.4683,-0.5574,-0.6698,-0.7915,-0.8021,-0.8021,-0.8021,-0.9027,-0.9628,-0.9628,-0.9628,-0.9628,-0.9628,-0.9628,-0.9628,-0.9628,-0.9335,-0.9331,-0.9628,-0.9331,-0.9331,-0.9628,-0.9628,-0.9628,-0.9628,-0.9628,-0.9628,-0.9628,-0.9628,-0.9628,-0.9628,0.0,0.0,0.0,0.0,0.0,0.0,0.0,-1.8863,-1.8027,-1.6514,-1.5802,-1.5303,-1.5056,-1.4792,-1.4569,-1.4569,0.0,0.0,0.0,0.0,0.0,0.0,0.0,0.0,0.0,0.0,0.0,-1.4346,-1.368,-1.2872,-1.1983,-1.0956,-1.0024,-0.9215,-0.8905,-0.8716,0.0,0.0,0.0,0.0,0.0,0.0,-0.6599,0.0,0.0,0.0,0.0,0.0,0.0,0.0,0.0,0.0,0.0,0.0,0.0,0.0,0.0,-0.1964,-0.2199,-0.2121,-0.1964,-0.2277,-0.2198,-0.2123,-0.2297,-0.2329,-0.2377,-0.245,-0.2582,-0.2714,-0.2773,-0.2873,-0.2875,-0.2875,-0.2875,-0.2916,-0.3127,-0.3127,-0.3034,-0.3074,-0.3547,-0.4189,-0.4791,-0.5118,-0.54,-0.536,-0.6398,-0.7183,-0.772,-0.8428,-0.8928,-0.9126,-0.9426,-0.9628,-0.9628,-0.9628,-0.9628,-0.9628,-0.9628,-0.9628,-0.9628,-0.9529,-0.943,-0.9331,-0.9236,-0.9133,-0.9027,-0.9027,-0.913,-0.9335,-0.9335,-0.943,-0.9628,-0.9628,-0.9628,-0.9628,0.0,0.0,0.0,0.0,0.0,0.0,0.0,-1.9485,-1.8602,-1.7251,-1.6153,-1.551,-1.5231,-1.4855,-1.4569,-1.4569,0.0,0.0,0.0,0.0,0.0,0.0,0.0,0.0,0.0,-1.4713,-1.4569,-1.4569,-1.4049,-1.3462,-1.2865,-1.1774,-1.0738,-0.9846,-0.9387,-0.9008,0.0,0.0,0.0,0.0,0.0,0.0,-0.719,0.0,0.0,0.0,0.0,0.0,0.0,0.0,0.0,0.0,0.0,0.0,0.0,0.0,-0.272,-0.2591,-0.2511,-0.2354,-0.2199,-0.2433,-0.2431,-0.2353,-0.2431,-0.254,-0.2585,-0.2646,0.0,-0.2767,-0.2828,-0.2858,-0.2875,-0.2875,-0.2875,-0.3096,-0.3599,-0.3594,-0.3774,-0.4085,-0.4616,-0.5065,-0.5692,-0.5986,-0.6147,-0.6188,-0.7162,-0.7787,-0.794,-0.8696,-0.913,-0.9327,-0.943,-0.943,-0.9327,-0.9327,-0.9327,-0.9327,-0.9327,-0.9327,-0.9327,-0.9327,-0.9229,-0.9031,-0.9031,-0.8928,0.0,-0.8825,-0.8928,-0.9031,-0.9031,-0.913,-0.9327,-0.9327,-0.9327,-0.943,0.0,0.0,0.0,0.0,0.0,0.0,0.0,0.0,0.0,0.0,-1.6313,-1.5298,-1.533,-1.4928,-1.4641,0.0,0.0,0.0,0.0,0.0,0.0,0.0,0.0,0.0,0.0,-1.4776,-1.4569,-1.4569,-1.4129,-1.3833,-1.3688,-1.2586,-1.1558,-1.0738,-1.0143,-0.9463,0.0,0.0,0.0,0.0,0.0,0.0,0.0,0.0,0.0,0.0,0.0,0.0,0.0,0.0,0.0,0.0,0.0,0.0,0.0,0.0,0.0,0.0,0.0,-0.2589,-0.2511,-0.2511,-0.2511,-0.2589,-0.2588,0.0,0.0,0.0,0.0,-0.2704,-0.2766,-0.2827,-0.2956,-0.2956,-0.296,-0.3367,-0.4538,-0.458,-0.4928,-0.5868,-0.5956,-0.5971,-0.5979,-0.6588,-0.6933,-0.709,-0.7773,-0.8309,-0.8598,-0.8735,-0.8715,-0.8726,-0.9031,-0.9031,-0.8825,-0.8825,-0.8825,-0.8825,-0.8825,-0.8825,-0.8825,-0.8825,-0.8825,-0.8726,-0.8726,-0.8726,-0.8726,-0.8726,-0.8726,-0.8726,-0.8726,-0.8825,-0.8825,-0.8825,-0.8928,-0.9133,0.0,0.0,0.0,0.0,0.0,0.0,0.0,0.0,0.0,0.0,0.0,-1.6493,-1.6439,-1.5635,0.0,0.0,0.0,0.0,0.0,0.0,0.0,0.0,0.0,0.0,0.0,-1.4641,-1.4569,-1.4569,-1.4497,-1.3985,-1.3112,-1.2505,-1.162,-1.0513,-1.0067,0.0,0.0,0.0,0.0,0.0,0.0,0.0,0.0,0.0,0.0,0.0,-0.3787,-0.3226,0.0,0.0,0.0,0.0,0.0,0.0,0.0,0.0,-0.362,-0.3763,-0.3528,0.0,-0.2982,-0.2982,-0.2982,-0.3061,0.0,0.0,0.0,0.0,0.0,0.0,-0.2702,-0.2763,-0.3066,-0.3762,-0.3901,-0.4361,-0.5571,-0.5766,-0.604,-0.701,-0.6891,-0.7141,-0.7981,-0.7938,-0.7875,-0.798,-0.7923,-0.8052,-0.8456,-0.8402,-0.8412,-0.8528,-0.8531,-0.863,-0.8825,-0.8825,-0.8825,-0.8825,-0.8825,-0.8825,-0.8825,-0.8825,-0.8726,-0.8531,-0.8531,-0.8333,-0.8237,-0.8237,-0.8333,-0.8531,-0.8531,-0.863,-0.8825,-0.8825,-0.8825,-0.8928,0.0,0.0,0.0,0.0,0.0,0.0,0.0,0.0,0.0,0.0,0.0,0.0,0.0,0.0,0.0,0.0,0.0,0.0,0.0,0.0,0.0,0.0,0.0,0.0,0.0,-1.5204,-1.5062,-1.4848,-1.4848,-1.4489,-1.3695,-1.2952,-1.2137,-1.1242,-1.0363,0.0,0.0,0.0,0.0,0.0,-0.9089,0.0,0.0,0.0,0.0,0.0,-0.4268,-0.3696,0.0,-0.3696,-0.3696,-0.3703,0.0,0.0,0.0,0.0,-0.4185,-0.4311,-0.4153,-0.3763,-0.3452,-0.3452,-0.3297,-0.3141,-0.3452,0.0,0.0,0.0,0.0,0.0,-0.2644,-0.306,-0.3646,-0.4076,-0.459,-0.5335,-0.6519,-0.7218,-0.7725,-0.8051,-0.8044,-0.8261,-0.8729,-0.8446,-0.8208,-0.8225,-0.7848,-0.7733,-0.7914,-0.798,-0.8046,-0.8126,-0.8199,-0.8333,-0.8432,-0.8432,-0.8432,-0.8432,-0.8432,-0.8432,-0.8432,-0.8528,-0.8432,-0.8233,-0.8333,-0.8237,-0.8038,-0.8038,-0.8038,-0.8237,-0.8237,-0.8333,-0.8432,-0.8432,-0.8528,-0.8627,0.0,0.0,0.0,0.0,0.0,0.0,0.0,0.0,0.0,0.0,0.0,0.0,0.0,0.0,0.0,0.0,0.0,0.0,0.0,0.0,0.0,0.0,0.0,-1.5912,-1.6202,-1.5982,-1.5621,-1.5267,-1.5196,-1.4991,-1.4561,-1.3477,-1.2739,-1.2198,-1.0807,0.0,0.0,0.0,-0.9916,-0.9846,-0.9544,0.0,0.0,0.0,0.0,0.0,0.0,0.0,0.0,-0.4564,-0.4431,-0.4386,-0.4502,0.0,0.0,0.0,0.0,0.0,-0.4621,-0.4231,-0.3997,-0.3919,-0.3608,-0.3295,-0.3376,0.0,0.0,0.0,0.0,0.0,-0.2828,-0.3604,-0.4314,-0.457,-0.5484,-0.652,-0.7524,-0.8652,-0.9242,-0.8938,-0.9019,-0.9035,-0.8786,-0.8513,-0.8247,-0.8022,-0.7749,-0.7495,-0.7411,-0.7621,-0.7753,-0.7777,-0.7926,-0.8004,-0.8004,-0.8028,-0.8038,-0.8038,-0.8038,-0.8038,-0.8038,-0.8209,-0.8212,-0.8038,-0.8209,-0.8212,-0.8038,-0.8038,-0.8038,-0.8038,-0.8038,-0.8038,-0.8038,-0.8038,-0.8137,-0.8333,0.0,0.0,0.0,0.0,0.0,0.0,0.0,0.0,0.0,0.0,0.0,0.0,0.0,0.0,0.0,0.0,0.0,0.0,0.0,0.0,0.0,0.0,0.0,-1.5833,-1.5903,-1.5833,-1.5762,-1.5692,-1.5346,-1.4911,-1.4346,-1.3905,-1.3098,-1.207,-1.1781,-1.1186,-1.0443,-1.0443,-1.0218,-0.9922,-0.9846,0.0,0.0,0.0,0.0,0.0,0.0,0.0,0.0,-0.5675,-0.515,-0.4584,-0.4643,0.0,0.0,0.0,0.0,0.0,-0.4937,-0.4859,-0.4704,-0.4387,-0.4229,-0.4309,-0.4626,-0.4387,0.0,0.0,0.0,-0.3235,-0.4016,-0.4089,-0.4634,-0.6136,-0.7616,-0.8598,-0.8564,-0.9035,-0.9332,-0.9279,-0.9169,-0.8991,-0.8765,-0.8387,-0.8037,-0.7822,-0.7358,-0.7312,-0.7553,-0.7485,-0.7499,-0.7628,-0.777,-0.7845,-0.7845,-0.7974,-0.8038,-0.8038,-0.8038,-0.8038,-0.8035,-0.7906,-0.7916,-0.8031,-0.7902,-0.7919,-0.8038,-0.8038,-0.8038,-0.8038,-0.8038,-0.8038,-0.8038,-0.8038,-0.8038,-0.8038,0.0,0.0,0.0,0.0,0.0,0.0,0.0,0.0,0.0,0.0,0.0,0.0,0.0,0.0,0.0,0.0,0.0,0.0,0.0,0.0,0.0,0.0,-1.6551,-1.6403,-1.6403,-1.6403,-1.6263,-1.6053,-1.5912,-1.5559,-1.5125,-1.441,-1.3317,-1.2003,-1.2003,-1.1558,-1.0812,-1.0812,-1.0738,-1.0513,0.0,0.0,0.0,0.0,0.0,0.0,0.0,0.0,0.0,0.0,-0.6203,-0.5852,-0.6106,0.0,0.0,0.0,0.0,0.0,-0.5168,-0.5093,-0.5015,-0.5162,-0.4774,-0.4462,-0.4621,-0.4153,-0.3684,0.0,-0.3604,-0.3602,-0.399,-0.4872,-0.6071,-0.751,-0.8481,-0.9068,-0.8982,-0.9279,-0.9433,-0.9238,-0.923,-0.9067,-0.8594,-0.8313,-0.8099,-0.7734,-0.7483,-0.7292,-0.735,-0.7363,-0.7404,-0.7472,-0.7621,-0.7695,-0.7695,-0.7767,-0.7841,-0.7916,-0.7916,-0.7875,-0.7801,-0.7729,-0.7736,-0.7797,-0.7729,-0.7736,-0.7801,-0.7801,-0.7848,-0.7916,-0.7916,-0.7967,-0.8038,-0.8038,-0.8038,-0.8038,0.0,0.0,0.0,0.0,0.0,0.0,0.0,0.0,0.0,0.0,0.0,0.0,0.0,0.0,0.0,0.0,0.0,0.0,0.0,0.0,-1.6978,-1.7047,-1.7047,-1.6978,-1.6908,-1.6908,-1.6769,-1.6412,-1.6351,-1.6132,-1.5762,-1.4982,-1.397,-1.2659,-1.2659,-1.2291,-1.1626,-1.1477,-1.1403,-1.126,0.0,0.0,0.0,0.0,0.0,0.0,0.0,0.0,0.0,0.0,0.0,0.0,0.0,0.0,0.0,-0.7067,-0.663,-0.5935,-0.5857,-0.5705,-0.5709,-0.6015,0.0,-0.4618,-0.4927,-0.4307,-0.3765,-0.3919,-0.4068,-0.4297,-0.4453,-0.5891,-0.7322,-0.8356,-0.8731,-0.8922,-0.8966,-0.9242,-0.9352,-0.9125,-0.921,-0.8981,-0.8496,-0.8302,-0.8029,-0.7688,-0.7406,-0.7265,-0.7146,-0.7251,-0.7319,-0.7319,-0.7465,-0.7546,-0.7546,-0.7584,-0.7655,-0.7763,-0.7763,-0.7706,-0.7597,-0.7563,-0.7567,-0.7597,-0.756,-0.7567,-0.76,-0.76,-0.7662,-0.7763,-0.7763,-0.7851,-0.7987,-0.7987,-0.8007,-0.8038,0.0,0.0,0.0,0.0,0.0,0.0,0.0,0.0,0.0,0.0,0.0,0.0,0.0,0.0,0.0,0.0,0.0,0.0,0.0,0.0,-1.7245,-1.747,-1.747,-1.7254,-1.6908,-1.6908,-1.6908,-1.6839,-1.6482,-1.6132,-1.5833,-1.5762,-1.533,-1.4689,-1.4689,-1.4178,-1.3317,-1.2718,-1.2285,-1.1855,-1.126,0.0,0.0,0.0,0.0,0.0,0.0,0.0,0.0,0.0,0.0,0.0,0.0,0.0,-0.7507,-0.7895,-0.7927,-0.7851,-0.7464,-0.731,-0.7234,-0.6938,-0.5864,-0.5246,-0.6479,-0.6018,-0.5559,-0.6251,-0.5857,-0.5699,-0.6553,-0.725,-0.7894,-0.8251,-0.8329,-0.841,-0.858,-0.8763,-0.8934,-0.908,-0.8913,-0.8563,-0.8212,-0.7927,-0.7681,-0.717,-0.7156,-0.7153,-0.7139,-0.7149,-0.7156,-0.7156,-0.7309,-0.7387,-0.7387,-0.7529,-0.7604,-0.7614,-0.7614,-0.7611,-0.7594,-0.7451,-0.7465,-0.759,-0.7448,-0.7468,-0.76,-0.76,-0.7604,-0.7614,-0.7614,-0.7702,-0.7828,-0.7828,-0.7919,-0.8038,0.0,0.0,0.0,0.0,0.0,0.0,0.0,0.0,0.0,0.0,0.0,0.0,0.0,0.0,0.0,0.0,0.0,0.0,0.0,0.0,-1.7392,-1.747,-1.747,-1.7401,-1.7254,-1.7176,-1.7107,-1.7107,-1.683,-1.6482,-1.6132,-1.6132,-1.5692,-1.4903,-1.4903,-1.4458,-1.3803,-1.3578,-1.315,-1.2505,-1.2278,-1.1916,0.0,0.0,0.0,0.0,0.0,0.0,0.0,0.0,-0.8888,-0.8706,0.0,0.0,0.0,0.0,-0.8618,-0.7855,-0.7702,-0.7395,-0.7165,-0.7399,-0.6784,0.0,0.0,-0.6402,-0.6012,-0.6163,-0.616,-0.645,-0.7369,-0.7881,-0.8134,-0.8268,-0.8385,-0.8487,-0.8556,-0.8714,-0.8758,-0.8738,-0.8651,-0.8307,-0.7789,-0.7681,-0.7474,-0.7143,-0.7139,-0.7139,-0.7139,-0.7139,-0.7139,-0.7139,-0.7197,-0.7227,-0.7227,-0.7285,-0.7312,-0.7316,-0.7411,-0.7407,-0.7312,-0.7255,-0.7258,-0.7309,-0.7251,-0.7261,-0.7312,-0.7312,-0.737,-0.7468,-0.7563,-0.7634,-0.7689,-0.778,-0.7848,-0.7913,0.0,0.0,0.0,0.0,0.0,0.0,0.0,0.0,0.0,0.0,0.0,0.0,0.0,0.0,0.0,0.0,0.0,0.0,0.0,-1.7529,-1.7598,-1.7676,-1.7676,-1.7676,-1.7676,-1.7451,-1.7304,-1.7314,-1.7185,-1.6908,-1.6551,-1.6551,-1.6193,-1.5551,-1.5551,-1.5251,-1.4736,-1.4514,-1.4091,-1.352,-1.3084,-1.2579,0.0,0.0,0.0,0.0,0.0,0.0,0.0,0.0,0.0,0.0,0.0,0.0,0.0,0.0,-0.9604,-0.8765,-0.8542,-0.8165,-0.7855,-0.8012,0.0,0.0,-0.7476,-0.7015,-0.6626,-0.6696,-0.6777,-0.7114,-0.7865,-0.8024,-0.8073,-0.8182,-0.8215,-0.8247,-0.8304,-0.8459,-0.85,-0.8298,-0.8349,-0.8068,-0.7517,-0.7415,-0.7323,-0.7139,-0.7139,-0.7139,-0.7139,-0.7139,-0.7139,-0.7139,-0.7139,-0.7139,-0.7139,-0.7139,-0.7139,-0.7143,-0.7248,-0.7244,-0.7139,-0.7139,-0.7139,-0.7139,-0.7139,-0.7139,-0.7139,-0.7139,-0.7204,-0.7309,-0.7414,-0.7485,-0.7539,-0.7638,-0.7702,-0.7767,0.0,0.0,0.0,0.0,0.0,0.0,0.0,0.0,0.0,0.0,0.0,0.0,0.0,0.0,0.0,0.0,0.0,0.0,0.0,-1.7706,-1.7784,-1.8008,-1.8008,-1.8008,-1.8008,-1.7784,-1.7657,-1.747,-1.747,-1.7392,-1.7166,-1.7166,-1.7107,-1.6908,-1.6908,-1.67,-1.6272,-1.5754,-1.5251,-1.476,-1.3448,-1.2938,-1.2792,0.0,0.0,0.0,0.0,0.0,0.0,0.0,-0.9484,0.0,0.0,0.0,0.0,0.0,-1.1111,-1.0887,-1.0143,-0.9922,-0.969,-0.8932,-0.8703,-0.8703,-0.8703,-0.8093,-0.7714,-0.825,-0.8106,-0.7836,-0.7947,-0.7724,-0.7602,-0.7955,-0.7715,-0.7549,-0.7736,-0.7906,-0.7998,-0.7932,-0.7929,-0.7768,-0.7507,-0.7234,-0.7139,-0.7139,-0.7139,-0.7139,-0.7139,-0.7139,-0.7139,-0.7139,-0.7139,-0.7139,-0.7139,-0.7139,-0.7139,-0.7139,-0.7139,-0.7139,-0.7139,-0.7139,-0.7139,-0.7139,-0.7139,-0.7139,-0.7139,-0.7139,-0.7139,-0.7139,-0.7139,-0.7234,-0.737,-0.737,-0.7468,-0.7617,0.0,0.0,0.0,0.0,0.0,0.0,0.0,0.0,0.0,0.0,0.0,0.0,0.0,0.0,0.0,0.0,0.0,0.0,0.0,-1.8643,-1.8452,-1.8008,-1.8008,-1.8008,-1.8008,-1.794,-1.7803,-1.747,-1.747,-1.7392,-1.7166,-1.7166,-1.7107,-1.6908,-1.6908,-1.683,-1.6691,-1.6542,-1.5824,-1.4673,-1.4243,-1.3448,-1.2445,0.0,0.0,0.0,0.0,0.0,0.0,0.0,0.0,0.0,0.0,0.0,0.0,-1.096,-1.0663,-1.0218,-0.9997,-0.9463,-0.9008,-0.878,-0.8703,-0.8703,-0.8703,-0.8399,-0.8097,-0.803,-0.7905,-0.7827,-0.7971,-0.7927,-0.789,-0.7996,-0.7825,-0.7695,-0.7832,-0.7825,-0.7753,-0.7669,-0.7668,-0.7503,-0.7234,-0.7143,-0.7139,-0.7139,-0.7139,-0.7139,-0.7139,-0.7139,-0.7139,-0.7139,-0.7139,-0.7139,-0.7139,-0.7139,-0.7139,-0.7139,-0.7139,-0.7139,-0.7139,-0.7139,-0.7139,-0.7139,-0.7139,-0.7139,-0.7139,-0.7139,-0.7139,-0.7139,-0.7139,-0.717,-0.7221,-0.7329,-0.74,-0.7461,0.0,0.0,0.0,0.0,0.0,0.0,0.0,0.0,0.0,0.0,0.0,0.0,0.0,0.0,0.0,0.0,0.0,0.0,0.0,0.0,-1.911,-1.8462,-1.8395,-1.8269,-1.8008,-1.8008,-1.7872,-1.7676,-1.7676,-1.7598,-1.7373,-1.7373,-1.7235,-1.7038,-1.7038,-1.6968,-1.6908,-1.6908,-1.6184,-1.5037,-1.4752,-1.3882,-1.2732,0.0,0.0,0.0,0.0,0.0,0.0,0.0,0.0,0.0,0.0,0.0,0.0,-1.0985,-1.0738,-1.0293,-0.9992,-0.9539,-0.9084,-0.878,-0.8703,-0.8703,-0.8627,-0.8475,-0.8327,-0.7953,-0.7892,-0.7807,-0.7967,-0.7959,-0.7959,-0.8101,-0.7893,-0.7785,-0.7785,-0.7628,-0.7564,-0.7407,-0.7397,-0.732,-0.7058,-0.7105,-0.7139,-0.7139,-0.7139,-0.7139,-0.7139,-0.7139,-0.7139,-0.7139,-0.7139,-0.7139,-0.7139,-0.7139,-0.7139,-0.7139,-0.7139,-0.7139,-0.7139,-0.7139,-0.7139,-0.7139,-0.7139,-0.7139,-0.7139,-0.7139,-0.7139,-0.7139,-0.7139,-0.7139,-0.7149,-0.7244,-0.7278,-0.7302,0.0,0.0,0.0,0.0,0.0,0.0,0.0,0.0,0.0,0.0,0.0,0.0,0.0,0.0,0.0,0.0,0.0,0.0,0.0,0.0,-1.9835,-1.911,-1.9044,-1.8721,-1.8076,-1.8008,-1.8008,-1.8008,-1.8008,-1.793,-1.7706,-1.7706,-1.7501,-1.7166,-1.7166,-1.7107,-1.6908,-1.6908,-1.6403,-1.5613,-1.4895,-1.4106,-1.3317,-1.2372,0.0,0.0,0.0,0.0,0.0,0.0,0.0,0.0,0.0,0.0,-1.0773,-1.1033,-1.1037,-1.0887,-1.0143,-0.9846,-0.969,-0.8927,-0.8703,-0.8627,-0.8479,-0.8403,-0.8327,-0.8106,-0.7876,-0.7831,-0.7931,-0.7862,-0.787,-0.8211,-0.7963,-0.769,-0.769,-0.7462,-0.7303,-0.7047,-0.719,-0.7204,-0.6946,-0.7065,-0.7139,-0.7139,-0.7139,-0.7139,-0.7139,-0.7139,-0.7139,-0.7139,-0.7139,-0.7139,-0.7139,-0.7139,-0.7139,-0.7139,-0.7139,-0.7139,-0.7139,-0.7139,-0.7139,-0.7139,-0.7139,-0.7139,-0.7139,-0.7139,-0.7139,-0.7139,-0.7139,-0.7139,-0.7139,-0.7139,-0.7139,-0.716,0.0,0.0,0.0,0.0,0.0,0.0,0.0,0.0,0.0,0.0,0.0,0.0,0.0,0.0,0.0,0.0,0.0,0.0,0.0,0.0,-2.0549,-1.9901,-1.9309,-1.8911,-1.8787,-1.8269,-1.8008,-1.8008,-1.8008,-1.793,-1.7706,-1.7706,-1.7501,-1.7166,-1.7166,-1.7107,-1.6908,-1.6908,-1.6114,-1.4824,-1.4673,-1.3818,-1.2519,-1.2298,-1.215,0.0,0.0,0.0,0.0,0.0,0.0,0.0,-1.0701,-1.0719,-1.0773,-1.1033,-1.0887,-1.0513,-0.9992,-0.9695,-0.9316,-0.8856,-0.8703,-0.8699,-0.8627,-0.8403,-0.8102,-0.7876,-0.7718,-0.7631,-0.7776,-0.7784,-0.7829,-0.7797,-0.7797,-0.7608,-0.7447,-0.7304,-0.7215,-0.7126,-0.7177,-0.7095,-0.7095,-0.7122,-0.7139,-0.7139,-0.7139,-0.7139,-0.7139,-0.7139,-0.7139,-0.7139,-0.7139,-0.7139,-0.7139,-0.7139,-0.7139,-0.7139,-0.7139,-0.7139,-0.7139,-0.7139,-0.7139,-0.7139,-0.7139,-0.7139,-0.7139,-0.7139,-0.7139,-0.7139,-0.7139,-0.7139,-0.7139,-0.7139,-0.7139,-0.7146,0.0,0.0,0.0,0.0,0.0,0.0,0.0,0.0,0.0,0.0,0.0,0.0,0.0,0.0,0.0,0.0,0.0,0.0,0.0,0.0,0.0,0.0,-1.989,-1.9375,-1.8977,-1.8654,-1.8327,-1.8008,-1.8008,-1.793,-1.7706,-1.7706,-1.7501,-1.7166,-1.7166,-1.7107,-1.6908,-1.6908,-1.6044,-1.4601,-1.4601,-1.3665,-1.2305,-1.2305,-1.2224,-1.215,-1.215,0.0,0.0,0.0,0.0,0.0,0.0,0.0,-1.1297,-1.1143,-1.0812,-1.0443,-0.9992,-0.962,-0.917,-0.878,-0.8703,-0.8703,-0.8551,-0.8327,-0.803,-0.7804,-0.7642,-0.7541,-0.7728,-0.784,-0.7765,-0.7776,-0.7727,-0.759,-0.7421,-0.7179,-0.7097,-0.7097,-0.6993,-0.7041,-0.7041,-0.7099,-0.7139,-0.7139,-0.7139,-0.7139,-0.7139,-0.7075,-0.7041,-0.7041,-0.6966,-0.6929,-0.6929,-0.6929,-0.6929,-0.6932,-0.7087,-0.7337,-0.7496,-0.7231,-0.7139,-0.7139,-0.7139,-0.7139,-0.7139,-0.7139,-0.7139,-0.7139,-0.7139,-0.7139,-0.7139,-0.7139,-0.7139,-0.7139,0.0,0.0,0.0,0.0,0.0,0.0,0.0,0.0,0.0,0.0,0.0,0.0,0.0,0.0,0.0,0.0,0.0,0.0,0.0,0.0,0.0,0.0,-2.0613,-1.9901,-1.9243,-1.9044,-1.8654,-1.8008,-1.8008,-1.793,-1.7706,-1.7706,-1.7501,-1.7166,-1.7166,-1.7107,-1.6908,-1.6908,-1.6114,-1.4816,-1.4816,-1.3954,-1.2739,-1.2739,-1.2666,-1.2592,-1.2592,-1.2666,-1.2673,-1.2673,0.0,0.0,0.0,0.0,-1.1929,-1.1409,-1.0887,-1.0443,-0.9992,-0.962,-0.9322,-0.9008,-0.9003,-0.9003,-0.8479,-0.8327,-0.8178,-0.788,-0.7642,-0.7529,-0.7683,-0.774,-0.7777,-0.7731,-0.7654,-0.7565,-0.7446,-0.7114,-0.6966,-0.6966,-0.6966,-0.6966,-0.6966,-0.7071,-0.7139,-0.7139,-0.7139,-0.7129,-0.7105,-0.6993,-0.6915,-0.6892,-0.6766,-0.6702,-0.6702,-0.6702,-0.6698,-0.6785,-0.7165,-0.7479,-0.7811,-0.7365,-0.7204,-0.7143,-0.7139,-0.7139,-0.7139,-0.7139,-0.7139,-0.7139,-0.7139,-0.7139,-0.7139,-0.7139,-0.7139,-0.7139,0.0,0.0,0.0,0.0,0.0,0.0,0.0,0.0,0.0,0.0,0.0,0.0,0.0,0.0,0.0,0.0,0.0,0.0,-2.2197,0.0,0.0,-2.2061,-2.1336,-2.0677,-1.9966,-1.9309,-1.8654,-1.8008,-1.8008,-1.793,-1.7706,-1.7706,-1.7501,-1.7166,-1.7166,-1.7107,-1.6908,-1.6908,-1.6403,-1.5621,-1.5621,-1.5108,-1.4314,-1.4314,-1.4106,-1.3753,-1.3753,-1.347,-1.3119,-1.3119,-1.3046,0.0,0.0,0.0,-1.2003,-1.1929,-1.1186,-1.0443,-0.9992,-0.9846,-0.9771,-0.9771,-1.0288,-1.0357,-0.878,-0.8775,-0.8851,-0.7953,-0.7642,-0.7492,-0.7516,-0.765,-0.7697,-0.7254,-0.7416,-0.7439,-0.7042,-0.7048,-0.7112,-0.7112,-0.7112,-0.7112,-0.7112,-0.7129,-0.7139,-0.7139,-0.7139,-0.7088,-0.6963,-0.6939,-0.6868,-0.6736,-0.6712,-0.6702,-0.6702,-0.6702,-0.6781,-0.694,-0.7217,-0.7396,-0.7632,-0.7547,-0.7541,-0.7415,-0.7231,-0.7139,-0.7139,-0.7139,-0.7139,-0.7139,-0.7139,-0.7139,-0.7139,-0.7139,-0.7139,-0.7139,0.0,0.0,0.0,0.0,0.0,0.0,0.0,0.0,0.0,0.0,0.0,0.0,0.0,0.0,0.0,-2.2197,-2.2197,-2.2197,-2.2197,-2.2197,-2.2197,-2.2197,-2.1463,-2.0805,-2.0096,-1.9375,-1.8654,-1.8008,-1.8008,-1.7872,-1.7588,-1.7588,-1.7451,-1.7166,-1.7107,-1.6968,-1.6908,-1.6908,-1.6473,-1.5833,-1.5833,-1.533,-1.4601,-1.4322,-1.4178,-1.397,-1.3768,-1.3695,-1.3702,-1.3702,-1.3775,-1.3768,-1.3477,0.0,0.0,0.0,-1.1929,-1.126,-1.0738,-1.0594,-1.0594,-1.0594,-1.0812,-1.0807,-0.9825,-0.982,-0.982,-0.915,-0.8546,-0.8016,-0.7561,-0.7549,-0.756,-0.7342,-0.7319,-0.7228,-0.7073,-0.698,-0.7051,-0.7132,-0.7139,-0.7139,-0.7139,-0.7139,-0.7139,-0.7139,-0.7065,-0.6993,-0.6932,-0.6766,-0.6644,-0.6573,-0.6495,-0.6454,-0.6454,-0.6454,-0.6652,-0.7057,-0.73,-0.755,-0.7796,-0.7716,-0.7695,-0.768,-0.7588,-0.7584,-0.7584,-0.7584,-0.7584,-0.7584,-0.7584,-0.7499,-0.7323,-0.7323,-0.7231,-0.7139,0.0,0.0,0.0,0.0,0.0,0.0,0.0,0.0,0.0,0.0,0.0,0.0,0.0,0.0,0.0,0.0,-2.2197,-2.2197,-2.2197,-2.2197,-2.2197,-2.2197,-2.1663,-2.1071,-2.0355,-1.9639,-1.8911,-1.8269,-1.7998,-1.7803,-1.7529,-1.7461,-1.7314,-1.7166,-1.6968,-1.6908,-1.6908,-1.6908,-1.6551,-1.6044,-1.6044,-1.5683,-1.4966,-1.4689,-1.4474,-1.4258,-1.3985,-1.4065,-1.4201,-1.4201,-1.4418,-1.4497,-1.4129,-1.3833,0.0,0.0,0.0,-1.1855,-1.1484,-1.1409,-1.1409,-1.1409,-1.1558,-1.1477,-1.0714,-1.0714,-1.064,-1.0115,-0.9448,-0.8775,-0.794,-0.7638,-0.7451,-0.7356,-0.7172,-0.7119,-0.7111,-0.6929,-0.6922,-0.7068,-0.7088,-0.7102,-0.7136,-0.7139,-0.7126,-0.7088,-0.699,-0.6895,-0.6817,-0.6597,-0.6458,-0.642,-0.6315,-0.6338,-0.6338,-0.6412,-0.6702,-0.7134,-0.7363,-0.7613,-0.7951,-0.7792,-0.7792,-0.7903,-0.7861,-0.7815,-0.7944,-0.7944,-0.7944,-0.7944,-0.7944,-0.7768,-0.7591,-0.7591,-0.7499,-0.7319,0.0,0.0,0.0,0.0,0.0,0.0,0.0,0.0,0.0,0.0,0.0,0.0,-2.2197,-2.2197,-2.2197,-2.2197,-2.2197,-2.2197,-2.2197,-2.2197,-2.2197,-2.2197,-2.2185,0.0,-2.106,-2.0355,-1.9704,-1.8977,-1.8114,-1.7706,-1.7706,-1.7373,-1.7235,-1.7166,-1.6968,-1.6908,-1.6908,-1.6908,-1.6908,-1.6839,-1.6839,-1.6621,-1.6202,-1.6202,-1.5771,-1.5133,-1.5133,-1.4848,-1.4569,-1.4569,-1.4569,-1.4569,-1.4569,-1.4065,-1.3492,0.0,0.0,0.0,-1.215,-1.2224,-1.2224,-1.2224,-1.2826,-1.2893,-1.1162,-1.1248,-1.1329,-1.0415,-0.997,-0.9593,-0.8775,-0.8016,-0.7411,-0.7273,-0.7171,-0.7042,-0.6823,-0.6788,-0.677,-0.6922,-0.6939,-0.6993,-0.7129,-0.7139,-0.7085,-0.6949,-0.6932,-0.6803,-0.6512,-0.6481,-0.641,-0.6278,-0.6342,-0.6338,-0.6338,-0.6714,-0.6949,-0.7196,-0.7423,-0.7594,-0.7772,-0.7776,-0.787,-0.797,-0.7716,-0.7707,-0.7944,-0.7944,-0.7944,-0.7944,-0.7944,-0.7856,-0.7856,-0.7856,-0.7856,-0.7856,0.0,0.0,0.0,0.0,0.0,0.0,0.0,0.0,0.0,0.0,0.0,0.0,0.0,-2.2197,-2.2197,-2.2197,-2.2197,-2.2197,-2.2197,-2.2197,-2.2197,-2.2197,-2.1726,-2.14,-2.1135,-2.042,-1.9966,0.0,-1.9187,-1.8654,-1.824,-1.7852,-1.7451,-1.6968,-1.6908,-1.6908,-1.6908,-1.6908,-1.6908,-1.6908,-1.6621,-1.6421,-1.6272,-1.5771,-1.5417,-1.5204,-1.4919,-1.4713,-1.4569,-1.4569,-1.4569,-1.4569,-1.4569,-1.4353,-1.4,-1.379,-1.3419,-1.3046,-1.3046,-1.3046,-1.3046,-1.3046,-1.3273,-1.3273,-1.2519,-1.2445,-1.2298,-1.1842,-1.1174,-1.0582,-1.0282,-0.915,-0.8093,-0.7484,-0.715,-0.6991,-0.702,-0.6764,-0.661,-0.6763,-0.6783,-0.6841,-0.699,-0.7004,-0.6983,-0.6932,-0.6837,-0.6692,-0.6481,-0.6386,-0.6315,-0.6342,-0.6338,-0.6338,-0.649,-0.6791,-0.7022,-0.7184,-0.7407,-0.7516,-0.7581,-0.7581,-0.7679,-0.7854,-0.7756,-0.7863,-0.8135,-0.8253,-0.8388,-0.8388,-0.8388,-0.8208,-0.8116,-0.8116,-0.8028,-0.7944,0.0,0.0,0.0,0.0,0.0,0.0,0.0,0.0,0.0,0.0,0.0,0.0,0.0,0.0,-2.2197,-2.2197,-2.2197,-2.2197,-2.2197,-2.2197,-2.2197,-2.2197,-2.1726,-2.1463,-2.1463,-2.0805,-2.0355,0.0,0.0,0.0,-1.8317,-1.8066,-1.752,-1.6908,-1.6908,-1.6908,-1.6908,-1.6908,-1.6839,-1.67,-1.6421,-1.6132,-1.5903,-1.5275,-1.4952,-1.4795,-1.4393,-1.4363,-1.4466,-1.4466,-1.4546,-1.4569,-1.4569,-1.4361,-1.4145,-1.379,-1.3717,-1.3645,-1.3572,-1.3492,-1.3492,-1.3492,-1.3492,-1.3492,-1.3346,-1.3127,-1.2973,-1.2746,-1.215,-1.1484,-1.1186,-1.0207,-0.915,-0.8093,-0.7553,-0.7211,-0.7092,-0.6716,-0.6458,-0.6607,-0.6624,-0.6685,-0.6837,-0.6851,-0.6831,-0.678,-0.6681,-0.6559,-0.641,-0.6312,-0.6338,-0.6412,-0.6412,-0.6567,-0.6795,-0.6945,-0.7099,-0.7334,-0.7407,-0.7484,-0.7484,-0.7484,-0.7549,-0.7671,-0.7732,-0.7963,-0.83,-0.8422,-0.8511,-0.8568,-0.8568,-0.8476,-0.8292,-0.8292,-0.8208,-0.812,0.0,0.0,0.0,0.0,0.0,0.0,0.0,0.0,0.0,-2.1588,0.0,0.0,0.0,0.0,0.0,-2.2197,-2.2197,-2.2197,-2.2197,-2.2197,-2.2197,-2.2197,-2.2197,-2.2197,-2.2197,-2.1463,-2.0933,0.0,0.0,0.0,0.0,0.0,-1.7442,-1.6908,-1.6908,-1.6908,-1.6908,-1.6908,-1.6621,-1.6272,-1.6272,-1.5842,-1.5163,-1.4792,-1.4453,-1.4061,-1.3711,-1.3807,-1.4101,-1.4109,-1.4339,-1.4553,-1.4425,-1.4145,-1.379,-1.3572,-1.3492,-1.3492,0.0,0.0,0.0,-1.3492,-1.3492,-1.3492,-1.3492,-1.3346,-1.3119,-1.2973,-1.2746,-1.2305,-1.1335,-1.1111,-1.0582,-0.9003,-0.8389,-0.7855,-0.7015,-0.6563,-0.639,-0.6531,-0.6544,-0.6525,-0.6678,-0.6695,-0.663,-0.6481,-0.6471,-0.641,-0.6345,-0.6338,-0.6412,-0.6563,-0.6563,-0.6795,-0.7184,-0.7184,-0.7334,-0.7484,-0.7484,-0.7484,-0.7484,-0.7484,-0.7484,-0.7492,-0.7671,-0.7951,-0.8276,-0.8284,-0.8398,-0.856,-0.8564,-0.8568,-0.8568,-0.8568,-0.8568,-0.8568,0.0,0.0,0.0,0.0,0.0,0.0,0.0,0.0,0.0,0.0,0.0,0.0,-2.2197,-2.2197,-2.2197,-2.2197,-2.2197,-2.2197,-2.2197,-2.2197,-2.2197,-2.2197,-2.1987,-2.1851,-2.1851,-2.14,-2.1158,0.0,0.0,0.0,0.0,0.0,0.0,0.0,-1.6491,-1.6342,-1.6123,-1.6342,-1.6272,-1.5912,-1.563,-1.5346,-1.5163,-1.4522,-1.4178,-1.4061,-1.3711,-1.3648,-1.3767,-1.4021,-1.418,-1.4229,-1.4196,-1.4,-1.379,-1.3572,-1.3492,-1.3492,-1.3492,0.0,0.0,0.0,0.0,0.0,-1.3492,-1.3346,-1.32,-1.3119,-1.2826,-1.2526,-1.2224,-1.1558,-1.0732,-0.975,-0.8836,-0.8003,-0.7253,-0.6868,-0.6729,-0.6772,-0.6776,-0.6763,-0.6767,-0.6785,-0.6683,-0.6474,-0.6471,-0.641,-0.6345,-0.6338,-0.6412,-0.6563,-0.6563,-0.6795,-0.7184,-0.7184,-0.7334,-0.7484,-0.7484,-0.7484,-0.7484,-0.7484,-0.7484,-0.7484,-0.7537,-0.7691,-0.7927,-0.8182,-0.8321,-0.8381,-0.8515,-0.8568,-0.8568,-0.8568,-0.8568,-0.8568,0.0,0.0,0.0,0.0,0.0,0.0,0.0,0.0,0.0,0.0,0.0,0.0,-2.2185,-2.2197,-2.2197,-2.2197,-2.2197,-2.2197,-2.2197,-2.2061,-2.1987,-2.1987,-2.1663,-2.1474,-2.1474,-2.1285,0.0,0.0,0.0,0.0,0.0,0.0,0.0,0.0,0.0,-1.6821,-1.6446,-1.6664,-1.6324,-1.5551,-1.5267,-1.5133,-1.4863,-1.4146,-1.3894,-1.3823,-1.333,-1.3251,-1.341,-1.3541,-1.3674,-1.3762,-1.3966,-1.3855,-1.3645,-1.3499,-1.3492,-1.3492,-1.3492,-1.3492,-1.3492,-1.3492,0.0,0.0,-1.3492,-1.3419,-1.3273,-1.3193,-1.3046,-1.2826,-1.2746,-1.215,-1.1329,-1.0196,-0.9437,-0.8613,-0.7334,-0.7022,-0.6865,-0.6865,-0.6865,-0.6902,-0.6845,-0.6856,-0.6777,-0.6695,-0.6616,-0.6503,-0.6342,-0.649,-0.6641,-0.6714,-0.6795,-0.7026,-0.7334,-0.7334,-0.7407,-0.7484,-0.7565,-0.7565,-0.7484,-0.7638,-0.7714,-0.7642,-0.7642,-0.7704,-0.7903,-0.8033,-0.8158,-0.83,-0.841,-0.8499,-0.8568,-0.8568,-0.8568,-0.8568,0.0,0.0,0.0,0.0,0.0,0.0,0.0,0.0,0.0,0.0,-2.0967,-2.1486,-2.2061,-2.2185,-2.2197,-2.2197,-2.2197,-2.2185,-2.2123,-2.1851,-2.1651,-2.1651,-2.1348,-2.1158,-2.1158,-2.1094,0.0,0.0,0.0,0.0,0.0,0.0,0.0,0.0,0.0,-1.7706,-1.7335,-1.7335,-1.648,-1.5209,-1.5251,-1.5037,-1.4577,-1.3906,-1.3561,-1.3441,-1.2798,-1.2766,-1.298,-1.2858,-1.305,-1.3357,-1.3693,-1.3645,-1.3492,-1.3492,-1.3492,-1.3492,-1.3492,-1.3492,-1.3492,-1.3492,-1.3492,0.0,-1.3492,-1.3492,-1.3419,-1.3273,-1.3193,-1.3127,-1.2973,-1.2673,-1.1996,-1.0571,-1.0121,-0.9291,-0.7484,-0.7099,-0.6942,-0.6942,-0.6942,-0.6942,-0.6942,-0.6942,-0.6942,-0.6942,-0.6714,-0.6563,-0.6412,-0.6714,-0.6942,-0.6942,-0.7103,-0.7334,-0.7484,-0.7484,-0.7484,-0.7561,-0.7723,-0.7723,-0.7561,-0.7949,-0.803,-0.7804,-0.7804,-0.7953,-0.8115,-0.7898,-0.8008,-0.8316,-0.8251,-0.8373,-0.8536,-0.8536,-0.8552,-0.8568,-2.0009,0.0,0.0,0.0,0.0,0.0,0.0,0.0,0.0,-2.0571,-2.121,-2.1651,-2.1788,-2.2061,-2.2197,-2.2197,-2.2197,-2.2061,-2.1788,-2.1726,-2.16,-2.1285,-2.0892,-2.07,-2.07,-2.0453,0.0,0.0,0.0,0.0,0.0,0.0,0.0,0.0,0.0,-1.7345,-1.7001,-1.7001,-1.6327,-1.5249,-1.5564,-1.5435,-1.4967,-1.4004,-1.3344,-1.293,-1.2516,-1.2352,-1.2367,-1.2864,-1.318,-1.3357,-1.3693,-1.3645,-1.3492,-1.3492,-1.3492,-1.3492,-1.3492,-1.3492,-1.3492,-1.3492,-1.3492,0.0,-1.3492,-1.3492,-1.3492,-1.3419,-1.3346,-1.3193,-1.3127,-1.2452,-1.1706,-1.1254,-1.0571,-0.9518,-0.771,-0.7407,-0.7403,-0.7403,-0.7403,-0.733,-0.718,-0.7103,-0.7099,-0.6942,-0.6865,-0.6788,-0.6788,-0.6865,-0.6942,-0.7103,-0.718,-0.7334,-0.7484,-0.7484,-0.7565,-0.7723,-0.7804,-0.7876,-0.7949,-0.8025,-0.8106,-0.803,-0.803,-0.8025,-0.8106,-0.8069,-0.806,-0.8116,-0.8094,-0.8182,-0.8345,-0.8345,-0.8438,-0.8568,-2.0074,0.0,0.0,0.0,0.0,0.0,0.0,0.0,-2.0324,-2.0324,-2.0828,-2.121,-2.1411,-2.1612,-2.1675,-2.1675,-2.1675,-2.1612,-2.1474,-2.1273,-2.1083,-2.0903,-2.0518,-2.0324,-2.0324,-2.0205,-2.0085,0.0,0.0,0.0,0.0,0.0,0.0,0.0,0.0,-1.8044,-1.7637,-1.7637,-1.7195,-1.6384,-1.6075,-1.5462,-1.4672,-1.4227,-1.3911,-1.3584,-1.2911,-1.2717,-1.2822,-1.3278,-1.3543,-1.3677,-1.3678,-1.3572,-1.3492,-1.3492,-1.3492,-1.3492,-1.3492,-1.3492,-1.3492,-1.3492,-1.3492,0.0,0.0,-1.3492,-1.3492,-1.3492,-1.3419,-1.3346,-1.3346,-1.2893,-1.2298,-1.1768,-1.1242,-1.0346,-0.847,-0.8169,-0.794,-0.7561,-0.7484,-0.7484,-0.7334,-0.7334,-0.7253,-0.7099,-0.7173,-0.7096,-0.6942,-0.7096,-0.7176,-0.7184,-0.7334,-0.7407,-0.7484,-0.7565,-0.7723,-0.7804,-0.803,-0.8102,-0.8102,-0.8327,-0.8327,-0.8255,-0.8255,-0.8327,-0.8403,-0.8178,-0.8159,-0.826,-0.8133,-0.8074,-0.815,-0.815,-0.8211,-0.8292,-2.0009,0.0,0.0,0.0,0.0,0.0,0.0,0.0,-2.0085,-2.0085,-2.0388,-2.07,-2.1031,-2.1158,-2.1221,-2.1221,-2.1221,-2.1158,-2.1094,-2.0764,-2.0526,-2.0373,-2.0127,-1.9944,-1.9955,-1.9955,-1.9922,0.0,0.0,0.0,0.0,0.0,0.0,0.0,0.0,-1.8682,-1.8257,-1.8257,-1.7936,-1.7317,-1.6448,-1.5528,-1.4625,-1.4558,-1.4453,-1.4232,-1.3498,-1.3252,-1.338,-1.3653,-1.3846,-1.3871,-1.3598,-1.3492,-1.3492,-1.3492,-1.3492,-1.3492,-1.3492,-1.3492,-1.3492,-1.3492,-1.3492,-1.3492,0.0,0.0,0.0,-1.3492,-1.3492,-1.3492,-1.3492,-1.3346,-1.3039,-1.2352,-1.2063,-1.1403,-0.9755,-0.9226,-0.8623,-0.7633,-0.7484,-0.7484,-0.7484,-0.7484,-0.7407,-0.7257,-0.7407,-0.7326,-0.7019,-0.7326,-0.7407,-0.7257,-0.7488,-0.7561,-0.7561,-0.7723,-0.7876,-0.7953,-0.8255,-0.8327,-0.8255,-0.8551,-0.8627,-0.8479,-0.8479,-0.8551,-0.8703,-0.8327,-0.8255,-0.8345,-0.8195,-0.8049,-0.8045,-0.8045,-0.7983,-0.8012,-1.9868,-2.0009,0.0,0.0,0.0,0.0,0.0,0.0,-2.0085,-2.0085,-2.0388,-2.0635,-2.0635,-2.0967,-2.1221,-2.1221,-2.1221,-2.1031,-2.07,-2.0635,-2.0253,-1.958,-1.9495,-1.9443,-1.9275,-1.9275,-1.9404,-1.9605,0.0,0.0,0.0,0.0,0.0,0.0,-1.8454,-1.8216,-1.7802,-1.7802,-1.7226,-1.6325,-1.6486,-1.6233,-1.5633,-1.4951,-1.4285,-1.3787,-1.395,-1.3575,-1.3139,-1.3866,-1.3646,-1.3201,-1.3389,-1.3492,-1.3492,-1.3492,-1.3492,-1.3492,-1.3492,-1.3492,-1.3492,-1.3492,-1.3492,-1.3492,-1.3492,0.0,-1.3492,-1.3492,0.0,-1.3492,-1.3492,0.0,0.0,-1.3119,-1.3046,-1.2673,-1.1552,-1.0645,-0.9367,-0.771,-0.7484,-0.7484,-0.7484,-0.7484,-0.7484,-0.7484,-0.7484,-0.748,-0.7403,-0.748,-0.7484,-0.7484,-0.7642,-0.7804,-0.7804,-0.7953,-0.8178,-0.8327,-0.8403,-0.8475,-0.8627,-0.8703,-0.8699,-0.8703,-0.8703,-0.8703,-0.8703,-0.8627,-0.8551,-0.8408,-0.82,-0.8095,-0.8104,-0.8104,-0.8044,-0.8012,-1.9944,-2.0074,-2.0085,0.0,0.0,0.0,0.0,0.0,-2.0085,-2.0085,-2.0205,-2.0324,-2.0324,-2.0464,-2.0593,-2.0593,-2.0593,-2.0464,-2.0324,-2.0324,-2.0106,-1.9716,-1.9705,-1.9511,-1.9051,-1.9051,-1.9009,-1.9093,-1.9017,0.0,0.0,0.0,0.0,0.0,-1.8112,-1.775,-1.7265,-1.7205,-1.6758,-1.6107,-1.6175,-1.6058,-1.5753,-1.5257,-1.4726,-1.4276,-1.498,-1.4701,-1.4015,-1.4529,-1.4359,-1.3859,-1.3593,-1.3492,-1.3492,-1.3492,-1.3492,-1.3492,-1.3492,-1.3492,-1.3492,-1.3492,-1.3492,-1.3492,-1.3492,-1.3492,-1.3492,-1.3492,0.0,0.0,0.0,0.0,0.0,0.0,-1.3346,-1.3046,-1.199,-1.1533,-1.0559,-0.8618,-0.7863,-0.7484,-0.7484,-0.7484,-0.7484,-0.7484,-0.7484,-0.7484,-0.7484,-0.7484,-0.7484,-0.7484,-0.7723,-0.7804,-0.7804,-0.8102,-0.8327,-0.8403,-0.8551,-0.8627,-0.8703,-0.8703,-0.8703,-0.8703,-0.8703,-0.8703,-0.8703,-0.8703,-0.8627,-0.8551,-0.8475,-0.8227,-0.7914,-0.7914,-0.7803,-0.7707,-1.9977,-2.0074,-2.0085,-2.0085,0.0,0.0,0.0,-2.0085,-2.0085,-2.0085,-2.0085,-2.0085,-2.0085,-2.0085,-2.0085,-2.0085,-2.0085,-2.0074,-2.0074,-2.0074,-1.9955,-1.9619,-1.9684,-1.9458,-1.8839,-1.8712,-1.8712,-1.8793,0.0,0.0,0.0,0.0,0.0,0.0,-1.7616,-1.7164,-1.6732,-1.6614,-1.6361,-1.6009,-1.5904,-1.573,-1.5604,-1.5478,-1.5195,-1.505,-1.5962,-1.575,-1.5094,-1.5486,-1.5236,-1.4609,-1.4057,-1.3702,-1.3572,-1.3492,-1.3492,-1.3492,-1.3492,-1.3492,-1.3492,-1.3492,-1.3492,-1.3492,-1.3492,-1.3492,-1.3492,-1.3492,-1.3492,0.0,0.0,0.0,-1.3492,-1.3492,0.0,-1.3266,-1.2505,-1.2198,-1.1304,-0.9523,-0.8466,-0.771,-0.7557,-0.7484,-0.7484,-0.7484,-0.7484,-0.7484,-0.7484,-0.7484,-0.7561,-0.7565,-0.7799,-0.7876,-0.7953,-0.8327,-0.8475,-0.8475,-0.8627,-0.8703,-0.8703,-0.8703,-0.8703,-0.8703,-0.8703,-0.8703,-0.8703,-0.8703,-0.8703,-0.8703,-0.8627,-0.8327,-0.7876,-0.7876,-0.7718,-0.7484,-1.9781,-2.0009,-2.0085,-2.0085,-2.0085,-2.0085,-2.0085,-2.0085,-2.0085,-2.0085,-2.0085,-2.0085,-2.0085,-2.0085,-2.0085,-2.0085,-2.0085,-2.0009,-1.9933,-2.0009,-1.9738,-1.8945,-1.9136,-1.9009,-1.8648,-1.8134,-1.828,-1.9121,0.0,0.0,0.0,0.0,0.0,0.0,-1.6878,-1.6563,-1.6134,-1.5982,-1.5934,-1.5914,-1.574,-1.5604,-1.541,-1.541,-1.5674,-1.6094,-1.6553,-1.6448,-1.6227,-1.6843,-1.6079,-1.4903,-1.4832,-1.4346,-1.3725,-1.3572,-1.3492,-1.3492,-1.3492,-1.3492,-1.3492,-1.3492,-1.3492,-1.3492,-1.3492,-1.3492,-1.3492,-1.3492,-1.3492,-1.3492,-1.3492,-1.3492,-1.3492,-1.3492,-1.3492,0.0,0.0,-1.2579,-1.1527,-1.034,-0.9296,-0.8322,-0.7561,-0.7484,-0.7484,-0.7484,-0.7484,-0.7484,-0.7484,-0.7484,-0.7565,-0.7804,-0.7953,-0.8178,-0.8403,-0.8551,-0.8699,-0.8699,-0.8703,-0.8703,-0.8703,-0.8703,-0.8703,-0.8703,-0.8703,-0.8703,-0.8703,-0.8703,-0.8703,-0.8703,-0.8475,-0.825,-0.8102,-0.8102,-0.7868,-0.7484,-1.977,-1.9933,-2.0009,-2.0074,-2.0085,-2.0085,-2.0085,-2.0085,-2.0085,-2.0085,-2.0085,-2.0085,-2.0085,-2.0085,-2.0074,-2.0009,-1.9944,-1.9868,-1.9736,-1.9736,-1.9607,-1.9175,-1.9251,-1.9038,-1.8456,-1.829,-1.8363,-1.8609,-1.8454,0.0,0.0,0.0,0.0,0.0,-1.6565,-1.6113,-1.5961,-1.5798,-1.5798,-1.576,-1.592,-1.5909,-1.584,-1.5969,-1.6058,-1.6223,-1.6894,-1.6769,-1.6312,-1.693,-1.6376,-1.5463,-1.5745,-1.5259,-1.4561,-1.4633,-1.4274,-1.392,-1.392,-1.392,-1.392,-1.392,-1.392,-1.3848,-1.3717,-1.3717,-1.3645,-1.3499,-1.3492,-1.3492,-1.3492,-1.3492,-1.3492,-1.3492,-1.3492,-1.3492,0.0,-1.3112,-1.2432,-1.1527,-1.0415,-0.9518,-0.9145,-0.8694,-0.847,-0.847,-0.8097,-0.7872,-0.7872,-0.7872,-0.7949,-0.803,-0.8178,-0.8327,-0.8403,-0.8627,-0.8703,-0.8703,-0.8703,-0.8703,-0.8703,-0.8703,-0.8703,-0.8703,-0.8703,-0.8703,-0.8703,-0.8703,-0.8703,-0.8699,-0.8627,-0.8403,-0.8106,-0.7953,-0.7718,-0.7484,-1.9639,-1.9597,-1.9673,-2.0042,-2.0085,-2.0085,-2.0085,-2.0074,-2.0074,-2.0074,-2.0009,-1.9944,-2.0009,-1.9944,-1.9878,-1.9802,-1.9802,-1.9736,-1.9473,-1.955,-1.9473,-1.9208,-1.9274,-1.9073,-1.863,-1.8464,-1.8464,-1.862,-1.8464,-1.8526,0.0,0.0,0.0,0.0,-1.6397,-1.5938,-1.5798,-1.5672,-1.5703,-1.5881,-1.6194,-1.636,-1.6441,-1.6651,-1.6658,-1.6664,-1.7233,-1.7253,-1.6996,-1.7542,-1.7139,-1.6446,-1.6724,-1.6228,-1.5463,-1.5267,-1.484,-1.4418,-1.4201,-1.4129,-1.4129,-1.4129,-1.4129,-1.4065,-1.3863,-1.3797,-1.3717,-1.3572,-1.3492,-1.3492,-1.3492,-1.3492,-1.3492,-1.3492,-1.3492,-1.3492,0.0,-1.3419,-1.3112,-1.2505,-1.1391,-1.0571,-1.0115,-0.9669,-0.9448,-0.9518,-0.9074,-0.8851,-0.8927,-0.8927,-0.8998,-0.9074,-0.8927,-0.9003,-0.9382,-0.9236,-0.9231,-0.9528,-0.9528,-0.9382,-0.916,-0.916,-0.9003,-0.8703,-0.8703,-0.8703,-0.8703,-0.8703,-0.8703,-0.8699,-0.8627,-0.8403,-0.8178,-0.7953,-0.7718,-0.7561,-1.9128,-1.9061,-1.918,-1.9933,-2.0064,-2.0053,-2.0074,-2.0009,-1.9933,-2.0074,-1.9813,-1.9671,-1.9868,-1.9736,-1.9605,-1.9605,-1.9605,-1.9483,-1.9285,-1.9483,-1.9407,-1.9131,-1.9208,-1.9208,-1.9075,-1.864,-1.863,-1.9075,-1.863,-1.8413,0.0,0.0,0.0,0.0,-1.6447,-1.6098,-1.5742,-1.5517,-1.5693,-1.6194,-1.6582,-1.6821,-1.705,-1.7476,-1.7589,-1.7478,-1.7589,-1.7912,-1.8337,-1.8674,-1.8327,-1.7706,-1.7774,-1.7276,-1.6498,-1.5613,-1.5267,-1.5054,-1.4338,-1.4129,-1.4129,-1.4129,-1.4129,-1.4057,-1.3863,-1.379,-1.379,-1.3572,-1.3499,-1.3492,-1.3492,-1.3492,-1.3492,-1.3492,-1.3492,-1.3492,-1.3492,-1.3492,-1.3419,-1.3273,-1.2378,-1.1477,-1.0714,-1.0415,-1.034,-1.0565,-1.034,-1.034,-1.049,-1.0565,-1.064,-1.0783,-1.0045,-1.0126,-1.1111,-1.0368,-1.0368,-1.1111,-1.1111,-1.0663,-0.9992,-0.9992,-0.9539,-0.8856,-0.8856,-0.8775,-0.8775,-0.8775,-0.8775,-0.878,-0.8627,-0.8551,-0.8479,-0.8255,-0.7872,-0.771,-1.8302,-1.8628,-1.9052,-1.9661,-1.9652,-1.9661,-1.9879,-1.9933,-1.9868,-1.9736,-1.9671,-1.9605,-1.9671,-1.9605,-1.9539,-1.9417,-1.9351,-1.9341,-1.9142,-1.9208,-1.9208,-1.9075,-1.9131,-1.9142,-1.9075,-1.8951,-1.8951,-1.9075,-1.8951,-1.8823,-1.869,0.0,0.0,0.0,-1.6533,-1.6253,-1.6439,-1.6096,-1.6152,-1.6602,-1.7041,-1.7337,-1.7496,-1.7932,-1.8178,-1.8245,-1.8245,-1.8382,-1.8472,-1.8741,-1.8539,-1.8337,-1.8664,-1.8104,-1.7423,-1.7345,-1.6515,-1.5621,-1.5409,-1.4911,-1.4497,-1.4497,-1.4497,-1.4425,-1.4289,-1.4145,-1.3992,-1.379,-1.3572,-1.3492,-1.3492,-1.3492,-1.3492,-1.3492,-1.3492,-1.3492,-1.3492,-1.3492,-1.3499,-1.3419,-1.32,-1.282,-1.2298,-1.1848,-1.1552,-1.162,-1.118,-1.0881,-1.0956,-1.0956,-1.0956,-1.1031,-1.0807,-1.0807,-1.1111,-1.0887,-1.0887,-1.1111,-1.1111,-1.0962,-1.0812,-1.0812,-1.0663,-1.0507,-1.0507,-1.0137,-0.9614,-1.0212,-1.0137,-0.9614,-1.0212,-1.0201,-0.9895,-0.9074,-0.8699,-0.8694,-1.8447,-1.8617,-1.886,-1.9135,-1.9212,-1.9318,-1.9738,-1.9671,-1.9605,-1.9605,-1.9473,-1.9407,-1.9473,-1.9407,-1.9341,-1.9208,-1.9208,-1.9208,-1.9075,-1.9075,-1.9075,-1.9075,-1.9075,-1.9075,-1.9075,-1.9075,-1.9075,-1.9075,-1.9075,-1.9008,-1.8798,0.0,0.0,0.0,-1.6983,-1.668,-1.6728,-1.667,-1.6787,-1.7051,-1.748,-1.778,0.0,-1.8315,-1.8539,-1.8741,-1.8741,-1.8674,-1.8674,-1.8875,-1.8875,-1.8808,-1.9008,-1.8731,-1.825,-1.8037,-1.7413,-1.6585,-1.5965,-1.5488,-1.5062,-1.4713,-1.4569,-1.4569,-1.4425,-1.4209,-1.4065,-1.3863,-1.3645,-1.3492,-1.3492,-1.3492,-1.3492,-1.3492,-1.3492,-1.3492,-1.3492,-1.3492,-1.3492,-1.3492,-1.3492,-1.3419,-1.32,-1.2746,-1.2526,-1.2673,-1.2224,-1.2077,-1.215,-1.215,-1.215,-1.215,-1.1781,-1.1781,-1.215,-1.1781,-1.1781,-1.215,-1.215,-1.1929,-1.1632,-1.1632,-1.1409,-1.1111,-1.1111,-1.0812,-1.0438,-1.0887,-1.0812,-1.0443,-1.0887,-1.0956,-1.072,-1.0351,-0.9825,-0.9523,-1.8971,-1.8791,-1.8605,-1.8753,-1.8871,-1.9062,-1.9475,-1.9407,-1.9351,-1.9539,-1.9274,-1.9162,-1.9368,-1.9235,-1.9178,-1.9241,-1.9251,-1.922,-1.9235,-1.9158,-1.9137,-1.9075,-1.9075,-1.9075,-1.9075,-1.9075,-1.9075,-1.9075,-1.9075,-1.9008,0.0,0.0,0.0,0.0,-1.7468,-1.7168,-1.6846,-1.7275,-1.7461,-1.7556,-1.7929,-1.8212,-1.8549,-1.8549,-1.8741,-1.9075,-1.9075,-1.9008,-1.8875,-1.9075,-1.9075,-1.9075,-1.9075,-1.9075,-1.8998,-1.8307,-1.8104,-1.7687,-1.6455,-1.5974,-1.5621,-1.4919,-1.4713,-1.4569,-1.4425,-1.4281,-1.4057,-1.3863,-1.3645,-1.3492,-1.3492,-1.3492,-1.3492,-1.3492,-1.3492,-1.3492,-1.3492,-1.3492,-1.3492,-1.3492,-1.3492,0.0,-1.3492,-1.3346,-1.3346,-1.3492,-1.3346,-1.3346,-1.3492,-1.3492,-1.3492,-1.3492,-1.2826,-1.2826,-1.3492,-1.2826,-1.2826,-1.3492,-1.3492,-1.3119,-1.2452,-1.2452,-1.2077,-1.1409,-1.1409,-1.1335,-1.126,-1.1335,-1.1409,-1.1409,-1.1409,-1.1409,-1.1409,-1.1706,-1.1174,-1.0346,-1.8433,-1.8498,-1.857,-1.8955,-1.9017,-1.9114,-1.9198,-1.9274,-1.9274,-1.9208,-1.9142,-1.9287,-1.9671,-1.9713,-1.9789,-2.0151,-2.0182,-2.0027,-1.9734,-1.9713,-1.9468,-1.9085,-1.9075,-1.9075,-1.9075,-1.9075,-1.9075,-1.9075,-1.9075,-1.8942,0.0,0.0,0.0,0.0,-1.7539,-1.7344,-1.7295,-1.7715,-1.7958,-1.817,-1.824,-1.8472,-1.8751,-1.8751,-1.8875,-1.9075,-1.9075,-1.9075,-1.9065,-1.9075,-1.9075,-1.9075,-1.9075,-1.9075,-1.9065,-1.8931,-1.8452,-1.7969,-1.7687,-1.6724,-1.5762,-1.5621,-1.5062,-1.4569,-1.4569,-1.4346,-1.4057,-1.4057,-1.3783,-1.3492,-1.3492,-1.3492,-1.3492,-1.3492,-1.3492,-1.3492,-1.3492,-1.3492,-1.3492,-1.3492,-1.3492,-1.3492,-1.3492,-1.3492,-1.3492,-1.3492,-1.3492,-1.3492,-1.3492,-1.3492,-1.3492,-1.3492,-1.3346,-1.3346,-1.3492,-1.3346,-1.3346,-1.3492,-1.3492,-1.3419,-1.3273,-1.3273,-1.32,-1.3046,-1.3046,-1.2673,-1.215,-1.2826,-1.3046,-1.3046,-1.3046,-1.2973,-1.2826,-1.2746,-1.2445,-1.2144,-1.8702,-1.8733,-1.8806,-1.9034,-1.9075,-1.9147,-1.9463,-1.9495,-1.9562,-1.9495,-1.9427,-1.9603,-2.0058,-2.01,-2.0193,-2.04,-2.042,-2.0338,-2.012,-1.9893,-1.9734,-1.9437,-1.9199,-1.9075,-1.9075,-1.9075,-1.9075,-1.9075,-1.9008,-1.8808,-1.8482,-1.8414,-1.8279,-1.7998,-1.7803,-1.7705,-1.7715,-1.793,-1.8144,-1.8269,-1.8269,-1.8472,-1.8808,-1.8808,-1.8942,-1.9075,-1.9075,-1.9075,-1.9075,-1.9075,-1.9075,-1.9075,-1.9075,-1.9075,-1.9075,-1.9075,-1.8865,-1.8519,-1.8104,-1.7207,-1.6245,-1.5903,-1.5204,-1.4569,-1.4569,-1.4346,-1.4129,-1.4129,-1.3775,-1.3492,-1.3492,-1.336,-1.3294,-1.347,-1.3353,-1.3301,-1.347,-1.3492,-1.3492,-1.3492,-1.3492,-1.3433,-1.3258,-1.3397,-1.3492,-1.3492,-1.3492,-1.3492,-1.3492,-1.3492,-1.3492,-1.3492,-1.3492,-1.3492,-1.3492,-1.3492,-1.3492,-1.3492,-1.3492,-1.3492,-1.3492,-1.3492,-1.3492,-1.3492,-1.3492,-1.3273,-1.2973,-1.3346,-1.3492,-1.3492,-1.3492,-1.3419,-1.3346,-1.3046,-1.2826,-1.2673,-1.9075,-1.9147,-1.9287,-1.9287,-1.9292,-1.9479,-1.9851,-1.9903,-1.9903,-1.9903,-1.9903,-2.0069,-2.0524,-2.0565,-2.0617,-2.071,-2.0721,-2.0679,-2.0576,-2.0151,-1.9862,-1.9768,-1.9313,-1.9075,-1.9075,-1.9008,-1.8942,-1.8942,-1.8808,-1.8607,-1.8482,-1.8347,-1.8202,-1.8008,-1.8008,-1.8008,-1.8008,-1.8008,-1.8144,-1.8337,-1.8337,-1.8539,-1.8875,-1.8875,-1.8942,-1.9075,-1.9075,-1.9075,-1.9075,-1.9075,-1.9075,-1.9075,-1.9075,-1.9075,-1.9075,-1.9075,-1.9075,-1.8998,-1.8385,-1.7696,-1.7001,-1.6385,-1.5542,-1.4776,-1.4776,-1.4418,-1.4065,-1.4065,-1.3723,-1.3367,-1.3301,-1.3075,-1.2987,-1.325,-1.3075,-1.2994,-1.325,-1.3287,-1.3287,-1.3287,-1.3287,-1.3184,-1.2928,-1.314,-1.3287,-1.3287,-1.3418,-1.3492,-1.3492,-1.3492,-1.3492,-1.3492,-1.3492,-1.3492,-1.3492,-1.3492,-1.3492,-1.3492,-1.3492,-1.3492,-1.3492,-1.3492,-1.3492,-1.3492,-1.3492,-1.3492,-1.3492,-1.3492,-1.3492,-1.3492,-1.3492,-1.3492,-1.3419,-1.3046,-1.29,-1.2826,-1.9075,-1.9406,-1.9696,-1.9696,-2.0027,-2.0317,-2.0358,-2.0358,-2.0358,-2.0358,-2.0358,-2.0534,-2.1,-2.1052,-2.1217,-2.1642,-2.1673,-2.1497,-2.1073,-2.0617,-2.0182,-1.9848,-1.9188,-1.8808,-1.8808,-1.8684,-1.8549,-1.8549,-1.8549,-1.8482,-1.8337,-1.8337,-1.8202,-1.8008,-1.8008,-1.8008,-1.8008,-1.8008,-1.8212,-1.8482,-1.8482,-1.8741,-1.9075,-1.9075,-1.9065,-1.9075,-1.9075,-1.9075,-1.9075,-1.9075,-1.9075,-1.9075,-1.9075,-1.9075,-1.9075,-1.9075,-1.9075,-1.9065,-1.9008,-1.8452,-1.7901,-1.7823,-1.6576,-1.5392,-1.5392,-1.4561,-1.3863,-1.3863,-1.3401,-1.2965,-1.2665,-1.2584,-1.2577,-1.2606,-1.2584,-1.2577,-1.2606,-1.2614,-1.2614,-1.2614,-1.2614,-1.2599,-1.257,-1.2592,-1.2614,-1.2614,-1.3162,-1.3492,-1.3492,-1.3492,-1.3492,-1.3492,-1.3492,-1.3492,-1.3492,-1.3492,-1.3492,-1.3492,-1.3492,-1.3492,-1.3492,-1.3492,-1.3492,-1.3492,-1.3492,-1.3492,-1.3492,-1.3492,-1.3492,-1.3492,-1.3492,-1.3419,-1.3193,-1.3193,-1.2973,-1.2599,-1.9674,-1.9968,-2.0162,-2.0162,-2.0307,-2.0514,-2.0793,-2.0834,-2.0938,-2.1217,-2.101,-2.101,-2.1476,-2.1528,-2.1611,-2.1787,-2.1807,-2.1611,-2.1145,-2.0679,-2.0153,-1.964,-1.9121,-1.8741,-1.8617,-1.8549,-1.8482,-1.8482,-1.8414,-1.8337,-1.8269,-1.8212,-1.8076,-1.8008,-1.8008,-1.8008,-1.8008,-1.8008,-1.8212,-1.8482,-1.8482,-1.8741,-1.9075,-1.9075,-1.9075,-1.9075,-1.9075,-1.9075,-1.9075,-1.9075,-1.9075,-1.9075,-1.9075,-1.9075,-1.9075,-1.9075,-1.9075,-1.9075,-1.9075,-1.8586,-1.7969,-1.7833,-1.7001,-1.6035,-1.548,-1.4741,-1.4042,-1.3562,-1.3083,-1.2672,-1.2548,-1.2365,-1.2292,-1.2489,-1.2358,-1.2299,-1.2489,-1.2519,-1.2519,-1.2519,-1.2519,-1.2445,-1.2248,-1.2409,-1.2438,-1.2248,-1.2833,-1.3206,-1.3206,-1.3389,-1.3492,-1.3492,-1.3492,-1.3492,-1.3492,-1.3492,-1.3492,-1.3492,-1.3492,-1.3492,-1.3492,-1.3492,-1.3492,-1.3492,-1.3492,-1.3492,-1.3492,-1.3492,-1.3492,-1.3492,-1.3492,-1.3419,-1.3346,-1.3119,-1.29,-1.2725,-2.0001,-2.0257,-2.0411,-2.0411,-2.0524,-2.0728,-2.1046,-2.1097,-2.122,-2.1614,-2.1377,-2.1295,-2.17,-2.1731,-2.1655,-2.1655,-2.1542,-2.1326,-2.0997,-2.035,-1.9878,-1.9442,-1.8917,-1.8607,-1.8414,-1.8414,-1.8347,-1.8347,-1.8279,-1.8202,-1.8202,-1.8076,-1.8008,-1.8008,-1.8008,-1.8008,-1.8008,-1.8008,-1.8144,-1.8414,-1.8482,-1.8674,-1.9008,-1.9075,-1.9075,-1.9075,-1.9075,-1.9075,-1.9075,-1.9008,-1.9008,-1.9008,-1.9065,-1.9075,-1.9008,-1.9008,-1.8942,-1.8942,-1.8942,-1.8519,-1.8114,-1.7988,-1.7279,-1.6432,-1.5739,-1.4957,-1.4182,-1.3347,-1.2736,-1.235,-1.2255,-1.205,-1.197,-1.2204,-1.205,-1.1977,-1.2204,-1.2241,-1.2241,-1.2241,-1.2241,-1.2145,-1.1919,-1.2102,-1.2204,-1.2153,-1.2661,-1.3004,-1.3001,-1.3228,-1.3397,-1.3492,-1.3492,-1.3492,-1.3492,-1.3492,-1.3492,-1.3492,-1.3492,-1.3492,-1.3492,-1.3492,-1.3492,-1.3492,-1.3492,-1.3492,-1.3492,-1.3492,-1.3492,-1.3492,-1.3492,-1.3492,-1.3331,-1.302,-1.2767,-1.2573,-1.9795,-2.0146,-2.0531,-2.0531,-2.0893,-2.1195,-2.1195,-2.1195,-2.1205,-2.1205,-2.1205,-2.1272,-2.1502,-2.1502,-2.1436,-2.1205,-2.0813,-2.0636,-2.0636,-1.9726,-1.9223,-1.9223,-1.8644,-1.8269,-1.8269,-1.8144,-1.8008,-1.8008,-1.8008,-1.8008,-1.8008,-1.8008,-1.8008,-1.8008,-1.8008,-1.8008,-1.8008,-1.8008,-1.8144,-1.8337,-1.8482,-1.8617,-1.8808,-1.9008,-1.9075,-1.9075,-1.9075,-1.9075,-1.9075,-1.8875,-1.8808,-1.8808,-1.9075,-1.8942,-1.8808,-1.8808,-1.8674,-1.8482,-1.8482,-1.8482,-1.8482,-1.8482,-1.7465,-1.6485,-1.6485,-1.5446,-1.4212,-1.3188,-1.2482,-1.1948,-1.1633,-1.163,-1.163,-1.1637,-1.163,-1.163,-1.1637,-1.1637,-1.1637,-1.1637,-1.1637,-1.1637,-1.163,-1.163,-1.1872,-1.2458,-1.2783,-1.2968,-1.2972,-1.3009,-1.3162,-1.3484,-1.3492,-1.3492,-1.3492,-1.3492,-1.3492,-1.3492,-1.3492,-1.3492,-1.3492,-1.3492,-1.3492,-1.3492,-1.3492,-1.3492,-1.3492,-1.3492,-1.3492,-1.3492,-1.3492,-1.3346,-1.3157,-1.2927,-1.2523,-1.2191,-2.0566,-2.0741,-2.0994,-2.0994,-2.1115,-2.1205,-2.1205,-2.1205,-2.1205,-2.1205,-2.1205,-2.1205,-2.1138,-2.1205,-2.1282,-2.1215,-2.0813,-2.043,-2.0119,-1.9545,-1.9013,-1.8634,-1.8417,-1.8269,-1.8076,-1.8008,-1.8008,-1.8008,-1.8008,-1.8008,-1.8008,-1.8008,-1.8008,-1.8008,-1.8008,-1.8008,-1.8008,-1.8008,-1.8144,-1.8269,-1.8347,-1.8539,-1.8808,-1.8875,-1.9008,-1.9075,-1.9075,-1.9008,-1.8875,-1.8808,-1.8674,-1.8617,-1.8684,-1.8684,-1.8617,-1.8617,-1.8549,-1.8482,-1.8482,-1.8318,-1.8077,-1.7889,-1.7366,-1.6648,-1.6058,-1.4974,-1.4018,-1.345,-1.319,-1.2972,-1.292,-1.2903,-1.2903,-1.2903,-1.2903,-1.2903,-1.2903,-1.2903,-1.2903,-1.2903,-1.2903,-1.2903,-1.2903,-1.2903,-1.2956,-1.3199,-1.33,-1.3468,-1.3697,-1.3703,-1.394,-1.4547,-1.4356,-1.4258,-1.4258,-1.4258,-1.3977,-1.3492,-1.3492,-1.3492,-1.3492,-1.3492,-1.3492,-1.3492,-1.3492,-1.3492,-1.3492,-1.3492,-1.3492,-1.3492,-1.3492,-1.3492,-1.331,-1.2778,-1.2516,-1.2298,-2.0819,-2.0896,-2.0964,-2.0964,-2.0964,-2.0964,-2.0964,-2.0964,-2.0964,-2.0964,-2.0964,-2.0964,-2.0819,-2.0886,-2.0964,-2.0964,-2.0426,-1.9959,-1.968,-1.9093,-1.8567,-1.8212,-1.8212,-1.8144,-1.8008,-1.8008,-1.8008,-1.8008,-1.8008,-1.8008,-1.8008,-1.8008,-1.8008,-1.8008,-1.8008,-1.8008,-1.8008,-1.8008,-1.8076,-1.8202,-1.8269,-1.8472,-1.8684,-1.8741,-1.8875,-1.9008,-1.9008,-1.8875,-1.8674,-1.8607,-1.8539,-1.8414,-1.8347,-1.8279,-1.8347,-1.8414,-1.8347,-1.8307,-1.8148,-1.7899,-1.7641,-1.7352,-1.6987,-1.6488,-1.5685,-1.4834,-1.4101,-1.3925,-1.3692,-1.3511,-1.3511,-1.3511,-1.3511,-1.3511,-1.3511,-1.3511,-1.3511,-1.3511,-1.3511,-1.3511,-1.3511,-1.3511,-1.3511,-1.3511,-1.3631,-1.3872,-1.3872,-1.4098,-1.4522,-1.4177,-1.4362,-1.5053,-1.4927,-1.4828,-1.5029,-1.5029,-1.4752,-1.4338,-1.4057,-1.3912,-1.3912,-1.3637,-1.3492,-1.3492,-1.3492,-1.3492,-1.3492,-1.3492,-1.3492,-1.3492,-1.3492,-1.3418,-1.3129,-1.253,-1.2193,-1.1957,-2.0712,-2.0644,-2.0566,-2.0566,-2.0566,-2.0566,-2.0566,-2.0566,-2.0566,-2.0566,-2.0566,-2.0566,-2.0566,-2.0566,-2.0566,-2.0566,-1.9785,-1.9287,-1.9287,-1.8486,-1.8008,-1.8008,-1.8008,-1.8008,-1.8008,-1.8008,-1.8008,-1.8008,-1.8008,-1.8008,-1.8008,-1.8008,-1.8008,-1.8008,-1.8008,-1.8008,-1.8008,-1.8008,-1.8008,-1.8008,-1.8202,-1.8347,-1.8549,-1.8684,-1.8808,-1.8808,-1.8808,-1.8674,-1.8482,-1.8347,-1.8269,-1.8269,-1.8046,-1.7969,-1.7969,-1.8162,-1.8094,-1.7871,-1.7451,-1.7314,-1.7197,-1.6787,-1.6348,-1.5908,-1.5508,-1.4942,-1.4529,-1.4529,-1.4043,-1.3623,-1.3623,-1.3623,-1.3623,-1.3623,-1.3623,-1.3623,-1.3623,-1.3623,-1.3623,-1.3623,-1.3623,-1.3623,-1.3623,-1.3623,-1.3863,-1.4529,-1.4529,-1.4824,-1.5352,-1.4574,-1.4431,-1.5162,-1.5163,-1.536,-1.5703,-1.5799,-1.5745,-1.5675,-1.5029,-1.4673,-1.4673,-1.3912,-1.3564,-1.3564,-1.3492,-1.3492,-1.3492,-1.3492,-1.3492,-1.3492,-1.3492,-1.3237,-1.2727,-1.2171,-1.1734,-1.1311,-2.1538,-2.1011,-2.0566,-2.0566,-2.0566,-2.0566,-2.0566,-2.0566,-2.0566,-2.0566,-2.0566,-2.0566,-2.0566,-2.0566,-2.0566,-2.0566,-1.9785,-1.9287,-1.9287,-1.8486,-1.8008,-1.8008,-1.8008,-1.8008,-1.8008,-1.8008,-1.8008,-1.8008,-1.8008,-1.8008,-1.8008,-1.8008,-1.8008,-1.8008,-1.8008,-1.8008,-1.8008,-1.8008,-1.8008,-1.8008,-1.8076,-1.8212,-1.8482,-1.8405,-1.8674,-1.9008,-1.8674,-1.8549,-1.8482,-1.8347,-1.8212,-1.8017,-1.7637,-1.7529,-1.7529,-1.7595,-1.7595,-1.7441,-1.7002,-1.6631,-1.6348,-1.625,-1.5889,-1.5537,-1.5439,-1.5294,-1.5177,-1.5177,-1.5059,-1.4932,-1.4932,-1.4932,-1.4932,-1.4932,-1.4932,-1.4932,-1.4932,-1.4932,-1.4932,-1.4932,-1.4932,-1.4932,-1.4932,-1.4932,-1.4991,-1.5177,-1.5177,-1.5235,-1.541,-1.5204,-1.5321,-1.5841,-1.5936,-1.5968,-1.6057,-1.6432,-1.6306,-1.5675,-1.5525,-1.5463,-1.5384,-1.4681,-1.4322,-1.433,-1.3775,-1.3492,-1.3492,-1.3492,-1.3492,-1.3492,-1.3492,-1.3375,-1.3021,-1.2248,-1.213,-1.2254,-2.236,-2.1983,-2.169,-2.169,-2.169,-2.1538,-2.1165,-2.1165,-2.1011,-2.0644,-2.0566,-2.0566,-2.0566,-2.0566,-2.0566,-2.0566,-1.9961,-1.9492,-1.9297,-1.8662,-1.8213,-1.8018,-1.8008,-1.8008,-1.8008,-1.8008,-1.8008,-1.8008,-1.8008,-1.8008,-1.8008,-1.8008,-1.8008,-1.8008,-1.8008,-1.8008,-1.8008,-1.8008,-1.8076,-1.8144,-1.8008,-1.8212,-1.8482,-1.8337,-1.8472,-1.8741,-1.8472,-1.8347,-1.825,-1.7984,-1.7792,-1.7646,-1.7227,-1.709,-1.7041,-1.6846,-1.6924,-1.6992,-1.6543,-1.625,-1.6076,-1.5811,-1.5586,-1.541,-1.541,-1.541,-1.541,-1.541,-1.541,-1.541,-1.541,-1.541,-1.541,-1.541,-1.541,-1.541,-1.541,-1.541,-1.541,-1.541,-1.541,-1.541,-1.541,-1.541,-1.541,-1.541,-1.541,-1.541,-1.541,-1.541,-1.5615,-1.6115,-1.6319,-1.6553,-1.6751,-1.7156,-1.7157,-1.6733,-1.6376,-1.6237,-1.6237,-1.5455,-1.4887,-1.4601,-1.4186,-1.384,-1.3492,-1.3492,-1.3404,-1.3287,-1.344,-1.3237,-1.2812,-1.2742,-1.2779,-1.2729,-2.318,-2.3095,-2.3032,-2.3032,-2.3032,-2.2809,-2.2059,-2.1983,-2.1766,-2.1011,-2.0944,-2.0944,-2.0944,-2.0867,-2.0789,-2.0789,-2.0301,-1.9805,-1.9316,-1.8877,-1.8447,-1.8027,-1.8008,-1.8008,-1.8008,-1.8008,-1.8008,-1.8008,-1.8008,-1.8008,-1.8008,-1.8008,-1.8008,-1.8008,-1.8008,-1.8008,-1.8008,-1.8008,-1.8076,-1.8269,-1.8076,-1.8212,-1.8482,-1.8337,-1.8269,-1.8327,-1.82,-1.8045,-1.7842,-1.7432,-1.7285,-1.7207,-1.6768,-1.6631,-1.6543,-1.6094,-1.624,-1.6445,-1.6064,-1.6076,-1.5977,-1.5605,-1.5566,-1.5596,-1.5527,-1.5508,-1.5488,-1.542,-1.541,-1.541,-1.541,-1.541,-1.541,-1.541,-1.541,-1.541,-1.541,-1.541,-1.541,-1.541,-1.541,-1.541,-1.541,-1.541,-1.541,-1.541,-1.541,-1.541,-1.541,-1.541,-1.5586,-1.5947,-1.6465,-1.6973,-1.7471,-1.7832,-1.8008,-1.8008,-1.7364,-1.7079,-1.701,-1.6237,-1.5525,-1.4958,-1.4816,-1.4402,-1.3848,-1.3848,-1.3652,-1.3382,-1.3667,-1.3264,-1.2683,-1.3309,-1.3452,-1.3235,-2.3891,-2.3463,-2.3032,-2.3032,-2.3032,-2.2957,-2.2809,-2.2798,-2.2809,-2.266,-2.266,-2.266,-2.266,-2.1983,-2.1614,-2.1614,-2.0951,-2.0127,-1.9336,-1.8877,-1.8447,-1.8027,-1.8008,-1.8008,-1.8008,-1.8008,-1.8008,-1.8008,-1.8008,-1.8008,-1.8008,-1.8008,-1.8008,-1.8008,-1.8008,-1.8008,-1.8008,-1.8008,-1.8008,-1.8008,-1.8008,-1.8144,-1.8337,-1.8144,-1.8212,-1.8365,-1.774,-1.7603,-1.7579,-1.6973,-1.6836,-1.6758,-1.6309,-1.6172,-1.6084,-1.5644,-1.5566,-1.5605,-1.5527,-1.5781,-1.6105,-1.6037,-1.625,-1.6426,-1.6045,-1.5957,-1.5859,-1.5488,-1.541,-1.541,-1.541,-1.541,-1.541,-1.541,-1.541,-1.541,-1.541,-1.541,-1.541,-1.541,-1.541,-1.541,-1.541,-1.541,-1.541,-1.541,-1.541,-1.541,-1.541,-1.541,-1.5439,-1.5508,-1.6309,-1.7109,-1.791,-1.7978,-1.8008,-1.8008,-1.7862,-1.7794,-1.7794,-1.7079,-1.6655,-1.6515,-1.5807,-1.5463,-1.5392,-1.5392,-1.5113,-1.4788,-1.4847,-1.4478,-1.3876,-1.3623,-1.3949,-1.445,-2.4719,-2.4492,-2.4204,-2.4204,-2.4204,-2.4059,-2.3683,-2.361,-2.3463,-2.3021,-2.3032,-2.3032,-2.3032,-2.266,-2.2285,-2.1832,-2.1461,-2.0817,-1.9658,-1.9228,-1.8789,-1.8359,-1.8135,-1.8008,-1.8008,-1.8008,-1.8008,-1.8008,-1.8008,-1.8008,-1.8008,-1.8008,-1.8008,-1.8008,-1.8008,-1.8008,-1.8008,-1.8008,-1.8076,-1.8144,-1.8008,-1.7996,-1.7942,-1.7988,-1.7792,-1.752,-1.7439,-1.7292,-1.7017,-1.6514,-1.6367,-1.6299,-1.585,-1.5713,-1.5674,-1.5469,-1.541,-1.5469,-1.5693,-1.5908,-1.6184,-1.6367,-1.6582,-1.668,-1.6475,-1.6426,-1.6299,-1.585,-1.5762,-1.5693,-1.5459,-1.541,-1.541,-1.541,-1.541,-1.541,-1.541,-1.541,-1.541,-1.541,-1.541,-1.541,-1.541,-1.541,-1.541,-1.541,-1.541,-1.541,-1.541,-1.541,-1.541,-1.541,-1.6269,-1.7148,-1.8008,-1.8008,-1.79,-1.7676,-1.7676,-1.7676,-1.7666,-1.7082,-1.6805,-1.6853,-1.6222,-1.5895,-1.5675,-1.5675,-1.5523,-1.5197,-1.5129,-1.4832,-1.441,-1.4435,-1.4681,-1.5006,-2.5312,-2.5312,-2.5312,-2.5312,-2.5312,-2.5087,-2.448,-2.4409,-2.4192,-2.361,-2.3537,-2.3537,-2.3537,-2.339,-2.3021,-2.2424,-2.2209,-2.1634,-2.0521,-2.0015,-1.9441,-1.8652,-1.8232,-1.8008,-1.8008,-1.8008,-1.8008,-1.8008,-1.8008,-1.8008,-1.8008,-1.8008,-1.8008,-1.8008,-1.8008,-1.8008,-1.8008,-1.8008,-1.8076,-1.8212,-1.8076,-1.787,-1.7737,-1.7948,-1.7598,-1.7051,-1.7178,-1.7021,-1.665,-1.6094,-1.5908,-1.585,-1.5518,-1.541,-1.541,-1.541,-1.541,-1.5508,-1.5947,-1.6143,-1.6328,-1.6777,-1.6953,-1.7002,-1.6904,-1.6885,-1.6728,-1.6243,-1.6125,-1.5988,-1.5498,-1.541,-1.541,-1.541,-1.541,-1.541,-1.541,-1.541,-1.541,-1.541,-1.541,-1.541,-1.541,-1.541,-1.541,-1.541,-1.541,-1.541,-1.541,-1.541,-1.5508,-1.5713,-1.6377,-1.71,-1.7852,-1.7959,-1.7744,-1.7236,-1.7334,-1.7334,-1.7227,-1.6885,-1.6756,-1.685,-1.6457,-1.616,-1.5912,-1.6069,-1.5822,-1.5473,-1.5504,-1.5173,-1.4815,-1.5151,-1.5278,-1.535,-2.5312,-2.5312,-2.5312,-2.5312,-2.5312,-2.53,-2.5229,-2.5229,-2.5158,-2.5158,-2.5158,-2.5158,-2.5158,-2.4492,-2.3963,-2.3963,-2.3316,-2.2676,-2.2053,-2.1577,-2.0544,-1.8652,-1.8232,-1.8008,-1.8008,-1.8008,-1.8008,-1.8008,-1.8008,-1.8008,-1.8008,-1.8008,-1.8008,-1.8008,-1.8008,-1.8008,-1.8008,-1.8008,-1.8008,-1.8008,-1.8008,-1.7988,-1.7959,-1.7998,-1.7969,-1.7812,-1.7051,-1.6758,-1.6602,-1.5742,-1.5459,-1.5459,-1.542,-1.541,-1.541,-1.541,-1.541,-1.5508,-1.5947,-1.6367,-1.6787,-1.7227,-1.7627,-1.7812,-1.7422,-1.7334,-1.709,-1.624,-1.6125,-1.5988,-1.5498,-1.541,-1.541,-1.541,-1.541,-1.541,-1.541,-1.541,-1.541,-1.541,-1.541,-1.541,-1.541,-1.541,-1.541,-1.541,-1.541,-1.541,-1.541,-1.541,-1.5781,-1.6548,-1.6699,-1.6953,-1.7422,-1.7812,-1.7598,-1.6787,-1.7187,-1.7168,-1.6777,-1.6748,-1.6704,-1.6699,-1.666,-1.667,-1.6664,-1.7125,-1.6796,-1.6079,-1.6423,-1.6065,-1.5332,-1.5243,-1.5432,-1.5756,-2.4759,-2.4819,-2.4927,-2.5252,-2.5312,-2.5312,-2.5312,-2.5312,-2.5312,-2.5312,-2.5312,-2.5312,-2.5312,-2.5016,-2.4518,-2.3695,-2.3387,-2.2816,-2.1762,-2.1696,-2.086,-1.8917,-1.8291,-1.8008,-1.8008,-1.8008,-1.8008,-1.8008,-1.8008,-1.8008,-1.8008,-1.8008,-1.8008,-1.8008,-1.8008,-1.8008,-1.8008,-1.8008,-1.7861,-1.7627,-1.7627,-1.7461,-1.7246,-1.7519,-1.7451,-1.7207,-1.7158,-1.6787,-1.6269,-1.5928,-1.5635,-1.541,-1.541,-1.541,-1.541,-1.541,-1.541,-1.5566,-1.6289,-1.6602,-1.6904,-1.7598,-1.7891,-1.7969,-1.7812,-1.7773,-1.7529,-1.665,-1.6475,-1.626,-1.5547,-1.541,-1.541,-1.541,-1.541,-1.541,-1.541,-1.541,-1.541,-1.541,-1.541,-1.541,-1.541,-1.541,-1.541,-1.541,-1.541,-1.541,-1.541,-1.541,-1.5693,-1.6299,-1.6318,-1.666,-1.7373,-1.7539,-1.7187,-1.6328,-1.6768,-1.6748,-1.6309,-1.6035,-1.6211,-1.6719,-1.6436,-1.6475,-1.6685,-1.6914,-1.6777,-1.6465,-1.6357,-1.6113,-1.5781,-1.5469,-1.5361,-1.5446,-2.4218,-2.429,-2.4398,-2.4759,-2.4963,-2.5059,-2.5059,-2.5204,-2.5312,-2.5312,-2.5312,-2.5252,-2.5083,-2.5059,-2.4634,-2.3629,-2.3513,-2.3086,-2.1958,-2.1729,-2.1037,-1.9704,-1.9054,-1.8664,-1.8664,-1.8462,-1.8337,-1.8337,-1.8076,-1.8008,-1.8008,-1.8008,-1.8008,-1.8008,-1.8202,-1.8337,-1.8327,-1.8388,-1.8213,-1.7995,-1.7606,-1.7248,-1.701,-1.7125,-1.708,-1.6943,-1.6963,-1.667,-1.623,-1.5957,-1.5664,-1.541,-1.541,-1.541,-1.541,-1.541,-1.541,-1.5605,-1.6494,-1.6665,-1.6934,-1.7793,-1.8008,-1.8008,-1.8008,-1.8008,-1.7764,-1.6904,-1.6665,-1.6403,-1.5576,-1.541,-1.541,-1.541,-1.541,-1.541,-1.541,-1.541,-1.541,-1.541,-1.541,-1.541,-1.541,-1.541,-1.541,-1.541,-1.541,-1.541,-1.541,-1.541,-1.5615,-1.6115,-1.5928,-1.6279,-1.7168,-1.7178,-1.6738,-1.5859,-1.6309,-1.6289,-1.585,-1.5547,-1.5742,-1.6299,-1.5986,-1.6035,-1.6338,-1.6621,-1.6562,-1.6318,-1.6279,-1.6103,-1.582,-1.5527,-1.5362,-1.5254,-2.3761,-2.3761,-2.3827,-2.3773,-2.4181,-2.4506,-2.4506,-2.4963,-2.53,-2.53,-2.53,-2.5107,-2.4578,-2.4518,-2.4314,-2.3809,-2.3761,-2.3544,-2.3015,-2.1806,-2.1123,-2.1123,-2.0484,-2.0096,-2.0096,-1.9375,-1.9044,-1.9044,-1.8327,-1.8008,-1.8008,-1.8008,-1.8008,-1.8076,-1.8721,-1.9044,-1.9003,-1.9201,-1.9323,-1.9206,-1.8061,-1.7575,-1.7513,-1.6908,-1.7002,-1.7266,-1.6449,-1.6357,-1.6529,-1.5713,-1.541,-1.541,-1.541,-1.541,-1.541,-1.541,-1.541,-1.5605,-1.6494,-1.6665,-1.6934,-1.7793,-1.8008,-1.8008,-1.8008,-1.8008,-1.7764,-1.6904,-1.6728,-1.6455,-1.5576,-1.541,-1.541,-1.541,-1.541,-1.541,-1.541,-1.541,-1.541,-1.541,-1.541,-1.541,-1.541,-1.541,-1.541,-1.541,-1.541,-1.541,-1.541,-1.541,-1.5615,-1.6105,-1.5635,-1.583,-1.6655,-1.6665,-1.6289,-1.542,-1.5859,-1.583,-1.541,-1.541,-1.541,-1.541,-1.541,-1.541,-1.5478,-1.6357,-1.6201,-1.5498,-1.6377,-1.6182,-1.541,-1.541,-1.541,-1.541,-2.3147,-2.322,-2.334,-2.3701,-2.3893,-2.3989,-2.3989,-2.4121,-2.423,-2.423,-2.4542,-2.4554,-2.4049,-2.4314,-2.4169,-2.3292,-2.322,-2.2991,-2.2462,-2.2083,-2.1862,-2.1862,-2.0752,-2.0096,-2.0096,-1.9901,-1.977,-1.977,-1.9573,-1.9452,-1.9452,-1.9452,-1.9452,-1.9507,-1.9704,-1.9587,-1.9201,-1.9252,-1.8931,-1.8289,-1.797,-1.756,-1.7152,-1.6971,-1.6897,-1.6894,-1.6631,-1.6416,-1.6221,-1.5957,-1.5664,-1.541,-1.541,-1.541,-1.541,-1.541,-1.541,-1.5605,-1.6494,-1.6665,-1.6934,-1.7793,-1.8008,-1.8008,-1.8008,-1.7783,-1.7412,-1.6846,-1.6484,-1.6084,-1.5518,-1.541,-1.541,-1.541,-1.541,-1.541,-1.541,-1.541,-1.541,-1.541,-1.541,-1.541,-1.541,-1.541,-1.541,-1.541,-1.541,-1.541,-1.541,-1.541,-1.5469,-1.5596,-1.5478,-1.5537,-1.5801,-1.6113,-1.6133,-1.5869,-1.6056,-1.583,-1.541,-1.541,-1.541,-1.541,-1.541,-1.541,-1.543,-1.5693,-1.5654,-1.5439,-1.5703,-1.5644,-1.541,-1.541,-1.541,-1.541,-2.2606,-2.2666,-2.2775,-2.3087,-2.3316,-2.346,-2.346,-2.3628,-2.3773,-2.3773,-2.4037,-2.4025,-2.352,-2.3737,-2.358,-2.2751,-2.2666,-2.2534,-2.2209,-2.2197,-2.2197,-2.2197,-2.14,-2.0955,-2.0955,-2.0613,-2.0484,-2.0484,-2.0226,-2.0096,-2.0096,-2.0096,-2.0096,-2.0096,-2.0355,-2.0217,-1.9676,-1.9806,-1.9372,-1.8601,-1.8182,-1.7752,-1.741,-1.689,-1.6787,-1.6745,-1.6331,-1.6152,-1.6096,-1.5859,-1.5625,-1.541,-1.541,-1.541,-1.541,-1.541,-1.541,-1.5566,-1.6269,-1.6465,-1.6641,-1.7334,-1.7764,-1.7969,-1.7803,-1.7568,-1.7207,-1.6592,-1.625,-1.5988,-1.5498,-1.541,-1.541,-1.541,-1.541,-1.541,-1.541,-1.541,-1.541,-1.541,-1.541,-1.541,-1.541,-1.541,-1.541,-1.541,-1.541,-1.541,-1.541,-1.541,-1.541,-1.541,-1.541,-1.5498,-1.5664,-1.5762,-1.5801,-1.5801,-1.5801,-1.5664,-1.541,-1.541,-1.541,-1.541,-1.541,-1.541,-1.542,-1.5596,-1.5566,-1.543,-1.5596,-1.5566,-1.541,-1.541,-1.541,-1.541,-2.2197,-2.2197,-2.2197,-2.2197,-2.2582,-2.2907,-2.2907,-2.3316,-2.3628,-2.3628,-2.3664,-2.3496,-2.2967,-2.2955,-2.2763,-2.2246,-2.2197,-2.2197,-2.2197,-2.2197,-2.2197,-2.2197,-2.2197,-2.2197,-2.2197,-2.1526,-2.1198,-2.1198,-2.0624,-2.0291,-2.0291,-2.0291,-2.0291,-2.0302,-2.0944,-2.0887,-2.0346,-2.0511,-2.0261,-1.966,-1.8616,-1.8147,-1.7984,-1.6866,-1.6675,-1.6881,-1.5888,-1.5782,-1.6058,-1.5547,-1.541,-1.541,-1.541,-1.541,-1.541,-1.541,-1.541,-1.5508,-1.5947,-1.6125,-1.6172,-1.6621,-1.7324,-1.7793,-1.7412,-1.7295,-1.7041,-1.6292,-1.6096,-1.5889,-1.5488,-1.541,-1.541,-1.541,-1.541,-1.541,-1.541,-1.541,-1.541,-1.541,-1.541,-1.541,-1.541,-1.541,-1.541,-1.541,-1.541,-1.541,-1.541,-1.541,-1.541,-1.541,-1.541,-1.5605,-1.6006,-1.5615,-1.543,-1.5469,-1.543,-1.541,-1.541,-1.541,-1.541,-1.541,-1.541,-1.541,-1.5439,-1.584,-1.5771,-1.5449,-1.585,-1.5762,-1.541,-1.541,-1.541,-1.541,-2.2197,-2.2197,-2.2197,-2.2197,-2.2294,-2.2366,-2.2366,-2.2462,-2.2534,-2.2534,-2.2895,-2.2955,-2.2426,-2.2739,-2.2763,-2.2246,-2.2197,-2.2197,-2.2197,-2.2197,-2.2197,-2.2197,-2.2197,-2.2197,-2.2197,-2.2061,-2.1987,-2.1987,-2.18,-2.1726,-2.1726,-2.1726,-2.1726,-2.1737,-2.1925,-2.1414,-2.0534,-2.0601,-2.0057,-1.9155,-1.8917,-1.8536,-1.8093,-1.7809,-1.749,-1.7119,-1.6899,-1.6602,-1.6158,-1.5614,-1.541,-1.541,-1.541,-1.541,-1.541,-1.541,-1.541,-1.5508,-1.5947,-1.6125,-1.6172,-1.6621,-1.6875,-1.6992,-1.6894,-1.6602,-1.6351,-1.6164,-1.5791,-1.5527,-1.543,-1.541,-1.541,-1.541,-1.541,-1.541,-1.541,-1.541,-1.541,-1.541,-1.541,-1.541,-1.541,-1.541,-1.541,-1.541,-1.541,-1.541,-1.541,-1.541,-1.541,-1.541,-1.541,-1.5459,-1.5557,-1.5459,-1.5586,-1.5918,-1.5576,-1.541,-1.541,-1.541,-1.541,-1.541,-1.541,-1.541,-1.542,-1.5508,-1.5498,-1.542,-1.5518,-1.5498,-1.541,-1.541,-1.541,-1.541,-2.2197,-2.2197,-2.2197,-2.2197,-2.2197,-2.2197,-2.2197,-2.2197,-2.2197,-2.2197,-2.2438,-2.2498,-2.2221,-2.2438,-2.2498,-2.2209,-2.2197,-2.2197,-2.2197,-2.2197,-2.2197,-2.2197,-2.2197,-2.2197,-2.2197,-2.2197,-2.2197,-2.2197,-2.2197,-2.2197,-2.2197,-2.2197,-2.2197,-2.2197,-2.2197,-2.174,-2.0971,-2.073,-2.0129,-1.9348,-1.9095,-1.8827,-1.8483,-1.8213,-1.7929,-1.7534,-1.6978,-1.6358,-1.5806,-1.5526,-1.541,-1.5468,-1.5748,-1.5633,-1.5468,-1.5748,-1.5633,-1.5459,-1.5693,-1.5752,-1.5811,-1.6045,-1.6103,-1.6152,-1.6367,-1.623,-1.6066,-1.5791,-1.5566,-1.541,-1.541,-1.541,-1.541,-1.541,-1.541,-1.541,-1.541,-1.541,-1.541,-1.541,-1.541,-1.541,-1.541,-1.541,-1.541,-1.541,-1.541,-1.541,-1.541,-1.541,-1.541,-1.541,-1.541,-1.541,-1.541,-1.541,-1.5527,-1.5752,-1.5518,-1.541,-1.541,-1.541,-1.541,-1.541,-1.541,-1.541,-1.541,-1.541,-1.541,-1.541,-1.541,-1.541,-1.541,-1.541,-1.541,-1.541,-2.2197,-2.2197,-2.2197,-2.2197,-2.2197,-2.2197,-2.2197,-2.2197,-2.2197,-2.2197,-2.2197,-2.2197,-2.2197,-2.2197,-2.2197,-2.2197,-2.2197,-2.2197,-2.2197,-2.2197,-2.2197,-2.2197,-2.2197,-2.2197,-2.2197,-2.2197,-2.2197,-2.2197,-2.2197,-2.2197,-2.2197,-2.2197,-2.2197,-2.2197,-2.2197,-2.1897,-2.1368,-2.0935,-2.037,-1.9744,-1.93,-1.9071,-1.8934,-1.8429,-1.8267,-1.8147,-1.7146,-1.6358,-1.5864,-1.5748,-1.569,-1.5806,-1.6312,-1.6026,-1.5633,-1.614,-1.5853,-1.541,-1.541,-1.541,-1.541,-1.541,-1.541,-1.5508,-1.5869,-1.5947,-1.585,-1.5488,-1.541,-1.541,-1.541,-1.541,-1.541,-1.541,-1.541,-1.541,-1.541,-1.541,-1.541,-1.541,-1.541,-1.541,-1.541,-1.541,-1.541,-1.541,-1.541,-1.541,-1.541,-1.541,-1.541,-1.541,-1.541,-1.541,-1.541,-1.541,-1.541,-1.541,-1.541,-1.541,-1.541,-1.541,-1.541,-1.541,-1.541,-1.541,-1.541,-1.541,-1.541,-1.541,-1.541,-1.541,-1.541,-1.541,-1.541,-1.542,-2.2197,-2.2197,-2.2197,-2.2197,-2.2197,-2.2197,-2.2197,-2.2197,-2.2197,-2.2197,-2.2197,-2.2197,-2.2197,-2.2197,-2.2197,-2.2197,-2.2197,-2.2197,-2.2197,-2.2197,-2.2197,-2.2197,-2.2197,-2.2197,-2.2197,-2.2197,-2.2197,-2.2197,-2.2197,-2.2197,-2.2197,-2.2197,-2.2197,-2.2197,-2.2197,-2.1897,-2.1404,-2.132,-2.0706,-1.9768,-1.9696,-1.9396,-1.8987,-1.8934,-1.8881,-1.8881,-1.8709,-1.8267,-1.7655,-1.7146,-1.6978,-1.6978,-1.7034,-1.6641,-1.6197,-1.6255,-1.5853,-1.541,-1.541,-1.541,-1.541,-1.541,-1.541,-1.543,-1.5488,-1.5498,-1.5488,-1.542,-1.541,-1.541,-1.541,-1.541,-1.541,-1.541,-1.541,-1.541,-1.541,-1.541,-1.541,-1.541,-1.541,-1.541,-1.541,-1.541,-1.541,-1.541,-1.541,-1.541,-1.541,-1.541,-1.541,-1.541,-1.541,-1.541,-1.541,-1.541,-1.541,-1.541,-1.541,-1.541,-1.541,-1.541,-1.541,-1.541,-1.541,-1.541,-1.541,-1.541,-1.541,-1.541,-1.541,-1.541,-1.541,-1.541,-1.541,-1.5469,-2.2197,-2.2197,-2.2197,-2.2197,-2.2197,-2.2197,-2.2197,-2.2197,-2.2197,-2.2197,-2.2197,-2.2197,-2.2197,-2.2197,-2.2197,-2.2197,-2.2197,-2.2247,-2.2309,-2.2309,-2.2371,-2.2494,-2.2506,-2.2506,-2.2506,-2.2506,-2.2506,-2.2506,-2.2321,-2.2197,-2.2197,-2.2197,-2.2197,-2.2197,-2.2197,-2.2065,-2.1825,-2.1536,-2.1127,-2.0634,-2.0021,-1.9636,-1.9396,-1.9095,-1.8987,-1.8934,-1.8602,-1.8093,-1.7534,-1.7313,-1.7202,-1.7257,-1.7589,-1.7313,-1.6866,-1.7202,-1.6866,-1.6415,-1.6415,-1.6415,-1.6415,-1.6415,-1.6415,-1.6415,-1.6415,-1.6415,-1.6197,-1.5526,-1.541,-1.541,-1.541,-1.541,-1.541,-1.541,-1.569,-1.5911,-1.5911,-1.6197,-1.6425,-1.6482,-1.6585,-1.6631,-1.6631,-1.6631,-1.6631,-1.6631,-1.6368,-1.6151,-1.6036,-1.571,-1.5536,-1.541,-1.541,-1.541,-1.541,-1.541,-1.541,-1.541,-1.541,-1.541,-1.541,-1.541,-1.541,-1.541,-1.541,-1.541,-1.541,-1.541,-1.541,-1.541,-1.541,-1.541,-1.541,-1.541,-1.541,-1.5478]},{"header":{"parameterUnit":"m.s-1","parameterCategory":1,"la1":30.6,"la2":28.766,"lo1":-90.7593,"lo2":-88.6598,"dy":0.0162,"dx":0.0183,"nx":116,"ny":114,"refTime":"2023-07-12T06:00:00:Z","depth":0,"parameterNumber":3,"parameterNumberName":"V-component_of_WINDS"},"data":[0.0,0.0,0.0,0.0,0.0,0.0,0.0,0.0,0.0,0.0,0.0,0.0,0.0,0.0,0.0,0.0,0.0,0.0,0.0,0.0,0.0,0.0,0.0,0.0,0.0,0.0,0.0,0.0,0.0,0.0,0.0,0.0,0.0,0.0,0.0,0.0,0.0,0.0,0.0,0.0,0.0,0.0,0.0,0.0,0.0,0.0,0.0,0.0,0.0,0.0,0.0,0.0,0.0,0.0,0.0,0.0,0.0,0.0,0.0,0.0,0.0,0.0,0.0,0.0,0.0,0.0,0.0,0.0,0.0,0.0,0.0,0.0,0.0,0.0,0.0,0.0,0.0,0.0,0.0,0.0,0.0,0.0,0.0,0.0,0.0,0.0,0.0,0.0,0.0,0.0,0.0,0.0,0.0,0.0,0.0,0.0,0.0,0.0,0.0,0.0,0.0,0.0,0.0,0.0,0.0,0.0,0.0,0.0,0.0,0.0,0.0,0.0,0.0,0.0,0.0,0.0,0.0,0.0,0.0,0.0,0.0,0.0,0.0,0.0,0.0,0.0,0.0,0.0,0.0,0.0,0.0,0.0,0.0,0.0,0.0,0.0,0.0,0.0,0.0,0.0,0.0,0.0,0.0,0.0,0.0,0.0,0.0,0.0,0.0,0.0,0.0,0.0,0.0,0.0,0.0,0.0,0.0,0.0,0.0,0.0,0.0,0.0,0.0,0.0,0.0,0.0,0.0,0.0,0.0,0.0,0.0,0.0,0.0,0.0,0.0,0.0,0.0,0.0,0.0,0.0,0.0,0.0,0.0,0.0,0.0,0.0,0.0,0.0,0.0,0.0,0.0,0.0,0.0,0.0,0.0,0.0,0.0,0.0,0.0,0.0,0.0,0.0,0.0,0.0,0.0,0.0,0.0,0.0,0.0,0.0,0.0,0.0,0.0,0.0,0.0,0.0,0.0,0.0,0.0,0.0,0.0,0.0,0.0,0.0,0.0,0.0,0.0,0.0,0.0,0.0,0.0,0.0,0.0,0.0,0.0,0.0,0.0,0.0,0.0,0.0,0.0,0.0,0.0,0.0,0.0,0.0,0.0,0.0,0.0,0.0,0.0,0.0,0.0,0.0,0.0,0.0,0.0,0.0,0.0,0.0,0.0,0.0,0.0,0.0,0.0,0.0,0.0,0.0,0.0,0.0,0.0,0.0,0.0,0.0,0.0,0.0,0.0,0.0,0.0,0.0,0.0,0.0,0.0,0.0,0.0,0.0,0.0,0.0,0.0,0.0,0.0,0.0,0.0,0.0,0.0,0.0,0.0,0.0,0.0,0.0,0.0,0.0,0.0,0.0,0.0,0.0,0.0,0.0,0.0,0.0,0.0,0.0,0.0,0.0,0.0,0.0,0.0,0.0,0.0,0.0,0.0,0.0,0.0,0.0,0.0,0.0,0.0,0.0,0.0,0.0,0.0,0.0,0.0,0.0,0.0,0.0,0.0,0.0,0.0,0.0,0.0,0.0,0.0,0.0,0.0,0.0,0.0,0.0,0.0,0.0,0.0,0.0,0.0,0.0,0.0,0.0,0.0,0.0,0.0,0.0,0.0,0.0,0.0,0.0,0.0,0.0,0.0,0.0,0.0,0.0,0.0,0.0,0.0,0.0,0.0,0.0,0.0,0.0,0.0,0.0,0.0,0.0,0.0,0.0,0.0,0.0,0.0,0.0,0.0,0.0,0.0,0.0,0.0,0.0,0.0,0.0,0.0,0.0,0.0,0.0,0.0,0.0,0.0,0.0,0.0,0.0,0.0,0.0,0.0,0.0,0.0,0.0,0.0,0.0,0.0,0.0,0.0,0.0,0.0,0.0,0.0,0.0,0.0,0.0,0.0,0.0,0.0,0.0,0.0,0.0,0.0,0.0,0.0,0.0,0.0,0.0,0.0,0.0,0.0,0.0,0.0,0.0,0.0,0.0,0.0,0.0,0.0,0.0,0.0,0.0,0.0,0.0,0.0,0.0,0.0,0.0,0.0,0.0,0.0,0.0,0.0,0.0,0.0,0.0,0.0,0.0,0.0,0.0,0.0,0.0,0.0,0.0,0.0,0.0,0.0,0.0,0.0,0.0,0.0,0.0,0.0,0.0,0.0,0.0,0.0,0.0,0.0,0.0,0.0,0.0,0.0,0.0,0.0,0.0,0.0,0.0,0.0,0.0,0.0,0.0,0.0,0.0,0.0,0.0,0.0,0.0,0.0,0.0,0.0,0.0,0.0,0.0,0.0,0.0,0.0,0.0,0.0,0.0,0.0,0.0,0.0,0.0,0.0,0.0,0.0,0.0,0.0,0.0,0.0,0.0,0.0,0.0,0.0,0.0,0.0,0.0,0.0,0.0,0.0,0.0,0.0,0.0,0.0,0.0,0.0,0.0,0.0,0.0,0.0,0.0,0.0,0.0,0.0,0.0,0.0,0.0,0.0,0.0,0.0,0.0,0.0,0.0,0.0,0.0,0.0,0.0,0.0,0.0,0.0,0.0,0.0,0.0,0.0,0.0,0.0,0.0,0.0,0.0,0.0,0.0,0.0,0.0,0.0,0.0,0.0,0.0,0.0,0.0,0.0,0.0,0.0,0.0,0.0,0.0,0.0,0.0,0.0,0.0,0.0,0.0,0.0,0.0,0.0,0.0,0.0,0.0,0.0,0.0,0.0,0.0,0.0,0.0,0.0,0.0,0.0,0.0,0.0,0.0,0.0,0.0,0.0,0.0,0.0,0.0,0.0,0.0,0.0,0.0,0.0,0.0,0.0,0.0,0.0,0.0,0.0,0.0,0.0,0.0,0.0,0.0,0.0,0.0,0.0,0.0,0.0,0.0,0.0,0.0,0.0,0.0,0.0,0.0,0.0,0.0,0.0,0.0,0.0,0.0,0.0,0.0,0.0,0.0,0.0,0.0,0.0,0.0,0.0,0.0,0.0,0.0,0.0,0.0,0.0,0.0,0.0,0.0,0.0,0.0,0.0,0.0,0.0,0.0,0.0,0.0,0.0,0.0,0.0,0.0,0.0,0.0,0.0,0.0,0.0,0.0,0.0,0.0,0.0,0.0,0.0,0.0,0.0,0.0,0.0,0.0,0.0,0.0,0.0,0.0,0.0,0.0,0.0,0.0,0.0,0.0,0.0,0.0,0.0,0.0,0.0,0.0,0.0,0.0,0.0,0.0,0.0,0.0,0.0,0.0,0.0,0.0,0.0,0.0,0.0,0.0,0.0,0.0,0.0,0.0,0.0,0.0,0.0,0.0,0.0,0.0,0.0,0.0,0.0,0.0,0.0,0.0,0.0,0.0,0.0,0.0,0.0,0.0,0.0,0.0,0.0,0.0,0.0,0.0,0.0,0.0,0.0,0.0,0.0,0.0,0.0,0.0,0.0,0.0,0.0,0.0,0.0,0.0,0.0,0.0,0.0,0.0,0.0,0.0,0.0,0.0,0.0,0.0,0.0,0.0,0.0,0.0,0.0,0.0,0.0,0.0,0.0,0.0,0.0,0.0,0.0,0.0,0.0,0.0,0.0,0.0,0.0,0.0,0.0,0.0,0.0,0.0,0.0,0.0,0.0,0.0,0.0,0.0,0.0,0.0,0.0,0.0,0.0,0.0,0.0,0.0,0.0,0.0,0.0,0.0,0.0,0.0,0.0,0.0,0.0,0.0,0.0,0.0,0.0,0.0,0.0,0.0,0.0,0.0,0.0,0.0,0.0,0.0,0.0,0.0,0.0,0.0,0.0,0.0,0.0,0.0,0.0,0.0,0.0,0.0,0.0,0.0,0.0,0.0,0.0,0.0,0.0,0.0,0.0,0.0,0.0,0.0,0.0,0.0,0.0,0.0,0.0,0.0,0.0,0.0,0.0,0.0,0.0,0.0,0.0,0.0,0.0,0.0,0.0,0.0,0.0,0.0,0.0,0.0,0.0,0.0,0.0,0.0,0.0,0.0,0.0,0.0,0.0,0.0,0.0,0.0,0.0,0.0,0.0,0.0,0.0,0.0,0.0,0.0,0.0,0.0,0.0,0.0,0.0,0.0,0.0,0.0,0.0,0.0,0.0,0.0,0.0,0.0,0.0,0.0,0.0,0.0,0.0,0.0,0.0,0.0,0.0,0.0,0.0,0.0,0.0,0.0,0.0,0.0,0.0,0.0,0.0,0.0,0.0,0.0,0.0,0.0,0.0,0.0,0.0,0.0,0.0,0.0,0.0,0.0,0.0,0.0,0.0,0.0,0.0,0.0,0.0,0.0,0.0,0.0,0.0,0.0,0.0,0.0,0.0,0.0,0.0,0.0,0.0,0.0,0.0,0.0,0.0,0.0,0.0,0.0,0.0,0.0,0.0,0.0,0.0,0.0,0.0,0.0,0.0,0.0,0.0,0.0,0.0,0.0,0.0,0.0,0.0,0.0,0.0,0.0,0.0,0.0,0.0,0.0,0.0,0.0,0.0,0.0,0.0,0.0,0.0,0.0,0.0,0.0,0.0,0.0,0.0,0.0,0.0,0.0,0.0,0.0,0.0,0.0,0.0,0.0,0.0,0.0,0.0,0.0,0.0,0.0,0.0,0.0,0.0,0.0,0.0,0.0,0.0,0.0,0.0,0.0,0.0,0.0,0.0,0.0,0.0,0.0,0.0,0.0,0.0,0.0,0.0,0.0,0.0,0.0,0.0,0.0,0.0,0.0,0.0,0.0,0.0,0.0,0.0,0.0,0.0,0.0,0.0,0.0,0.0,0.0,0.0,0.0,0.0,0.0,0.0,0.0,0.0,0.0,0.0,0.0,0.0,0.0,0.0,0.0,0.0,0.0,0.0,0.0,0.0,0.0,0.0,0.0,0.0,0.0,0.0,0.0,0.0,0.0,0.0,0.0,0.0,0.0,0.0,0.0,0.0,0.0,0.0,0.0,0.0,0.0,0.0,0.0,0.0,0.0,0.0,0.0,0.0,0.0,0.0,0.0,0.0,0.0,0.0,0.0,0.0,0.0,0.0,0.0,0.0,0.0,0.0,0.0,0.0,0.0,0.0,0.0,0.0,0.0,0.0,0.0,0.0,0.0,0.0,0.0,0.0,0.0,0.0,0.0,0.0,0.0,0.0,0.0,0.0,0.0,0.0,0.0,0.0,0.0,0.0,0.0,0.0,0.0,0.0,0.0,0.0,0.0,0.0,0.0,0.0,0.0,0.0,0.0,0.0,0.0,0.0,0.0,0.0,0.0,0.0,0.0,0.0,0.0,0.0,0.0,0.0,0.0,0.0,0.0,0.0,0.0,0.0,0.0,0.0,0.0,0.0,0.0,0.0,0.0,0.0,0.0,0.0,0.0,0.0,0.0,0.0,0.0,0.0,0.0,0.0,0.0,0.0,0.0,0.0,0.0,0.0,0.0,0.0,0.0,0.0,0.0,0.0,0.0,0.0,0.0,0.0,0.0,0.0,0.0,0.0,0.0,0.0,0.0,0.0,0.0,0.0,0.0,0.0,0.0,0.0,0.0,0.0,0.0,0.0,0.0,0.0,0.0,0.0,0.0,0.0,0.0,0.0,0.0,0.0,0.0,0.0,0.0,0.0,0.0,0.0,0.0,0.0,0.0,0.0,0.0,0.0,0.0,0.0,0.0,0.0,0.0,0.0,0.0,0.0,0.0,0.0,0.0,0.0,0.0,0.0,0.0,0.0,0.0,0.0,0.0,0.0,0.0,0.0,0.0,0.0,0.0,0.0,0.0,0.0,0.0,0.0,0.0,0.0,0.0,0.0,0.0,0.0,0.0,0.0,0.0,0.0,0.0,0.0,0.0,0.0,0.0,0.0,0.0,0.0,0.0,0.0,0.0,0.0,0.0,0.0,0.0,0.0,0.0,0.0,0.0,0.0,0.0,0.0,0.0,0.0,0.0,0.0,0.0,0.0,0.0,0.0,0.0,0.0,0.0,0.0,0.0,0.0,0.0,0.0,0.0,0.0,0.0,0.0,0.0,0.0,0.0,0.0,0.0,0.0,0.0,0.0,0.0,0.0,0.0,0.0,0.0,0.0,0.0,0.0,0.0,0.0,0.0,0.0,0.0,0.0,0.0,0.0,0.0,0.0,0.0,-3.9433,-3.9632,0.0,0.0,0.0,0.0,0.0,0.0,0.0,0.0,0.0,0.0,0.0,0.0,0.0,0.0,0.0,0.0,0.0,0.0,0.0,0.0,0.0,0.0,0.0,0.0,0.0,0.0,0.0,0.0,0.0,0.0,0.0,0.0,0.0,0.0,0.0,0.0,0.0,0.0,0.0,0.0,0.0,0.0,0.0,0.0,0.0,0.0,0.0,0.0,0.0,0.0,0.0,0.0,0.0,0.0,0.0,0.0,0.0,0.0,0.0,0.0,0.0,0.0,0.0,0.0,0.0,0.0,0.0,0.0,0.0,0.0,0.0,0.0,0.0,0.0,0.0,0.0,0.0,0.0,0.0,0.0,0.0,0.0,0.0,0.0,0.0,0.0,0.0,0.0,0.0,0.0,0.0,0.0,0.0,0.0,0.0,0.0,0.0,0.0,0.0,0.0,0.0,0.0,0.0,0.0,0.0,0.0,0.0,0.0,0.0,0.0,0.0,0.0,0.0,0.0,-3.9566,-3.9705,0.0,0.0,0.0,0.0,0.0,0.0,0.0,0.0,0.0,0.0,0.0,0.0,0.0,0.0,0.0,0.0,0.0,0.0,0.0,0.0,0.0,0.0,0.0,0.0,0.0,0.0,0.0,0.0,0.0,0.0,0.0,0.0,0.0,0.0,0.0,0.0,0.0,0.0,0.0,0.0,0.0,0.0,0.0,0.0,0.0,0.0,0.0,0.0,0.0,0.0,0.0,0.0,0.0,0.0,0.0,0.0,0.0,0.0,0.0,0.0,0.0,0.0,0.0,0.0,0.0,0.0,0.0,0.0,0.0,0.0,0.0,0.0,0.0,0.0,0.0,0.0,0.0,0.0,0.0,0.0,0.0,0.0,0.0,0.0,0.0,0.0,0.0,0.0,0.0,0.0,0.0,0.0,0.0,0.0,0.0,0.0,0.0,0.0,0.0,0.0,0.0,0.0,0.0,0.0,0.0,0.0,0.0,0.0,-3.9324,-3.9433,-3.9526,-3.966,-3.9775,-3.9797,-3.9797,-3.9819,-3.9901,-4.012,0.0,0.0,0.0,0.0,0.0,0.0,0.0,0.0,0.0,0.0,0.0,0.0,0.0,0.0,0.0,0.0,0.0,0.0,0.0,0.0,0.0,0.0,0.0,0.0,0.0,0.0,0.0,0.0,0.0,0.0,0.0,0.0,0.0,0.0,0.0,0.0,0.0,0.0,-3.3393,-3.3393,-3.3393,-3.3393,-3.3393,0.0,0.0,0.0,0.0,0.0,0.0,0.0,0.0,0.0,0.0,0.0,0.0,0.0,0.0,0.0,0.0,0.0,0.0,0.0,0.0,0.0,0.0,0.0,0.0,0.0,0.0,0.0,0.0,0.0,0.0,0.0,0.0,0.0,0.0,0.0,0.0,0.0,0.0,0.0,0.0,0.0,0.0,0.0,-3.8211,-3.7981,0.0,0.0,0.0,0.0,0.0,0.0,0.0,0.0,0.0,0.0,0.0,0.0,0.0,-3.8135,-3.8934,-3.9045,-3.9101,-3.9101,-3.9156,-3.9272,-3.9502,-3.9532,-3.9614,-3.9797,-3.9797,0.0,-4.0139,-4.0196,0.0,0.0,0.0,0.0,0.0,0.0,0.0,0.0,0.0,0.0,0.0,0.0,0.0,0.0,0.0,0.0,0.0,0.0,0.0,0.0,0.0,0.0,0.0,0.0,0.0,0.0,0.0,0.0,0.0,0.0,0.0,0.0,0.0,0.0,0.0,0.0,-3.3393,-3.3393,-3.3393,-3.3393,-3.3393,-3.3393,-3.3393,-3.3422,-3.3452,-3.3452,0.0,0.0,0.0,0.0,0.0,0.0,0.0,0.0,0.0,0.0,0.0,0.0,0.0,0.0,0.0,0.0,0.0,0.0,0.0,0.0,0.0,0.0,0.0,0.0,0.0,0.0,0.0,0.0,0.0,0.0,0.0,0.0,0.0,0.0,0.0,0.0,0.0,0.0,0.0,-3.9183,-3.8764,-3.8265,-3.7741,-3.7117,0.0,0.0,0.0,0.0,0.0,0.0,0.0,0.0,0.0,-3.7856,-3.7894,-3.8284,-3.9082,-3.9101,-3.9101,-3.9101,-3.9101,-3.9245,-3.9502,-3.9502,-3.9679,-4.0003,-4.0024,-4.0176,-4.0408,-4.0267,-4.0353,-4.0564,0.0,0.0,0.0,0.0,-4.07,-4.0687,0.0,0.0,0.0,0.0,0.0,0.0,0.0,0.0,0.0,0.0,0.0,0.0,0.0,0.0,0.0,-3.3452,0.0,0.0,0.0,0.0,0.0,0.0,0.0,0.0,0.0,0.0,0.0,0.0,-3.3393,-3.3393,-3.3393,-3.3393,-3.3393,-3.3422,-3.3422,-3.3452,-3.3509,-3.3509,-3.3491,0.0,0.0,0.0,0.0,0.0,0.0,0.0,0.0,0.0,0.0,0.0,0.0,0.0,0.0,0.0,0.0,0.0,0.0,0.0,0.0,0.0,0.0,0.0,0.0,0.0,0.0,0.0,0.0,0.0,0.0,0.0,0.0,0.0,0.0,0.0,0.0,0.0,0.0,-3.9452,-3.9227,-3.8483,-3.8324,-3.7947,0.0,0.0,0.0,0.0,0.0,0.0,-3.7002,-3.7002,-3.7373,-3.8172,-3.8209,-3.8488,-3.9082,-3.9101,-3.9101,-3.9101,-3.9101,-3.9272,-3.9604,-3.9604,-3.9857,-4.0302,-4.03,-4.0438,-4.0603,-4.0403,-4.0415,-4.0588,-4.0621,-4.0621,-4.0635,-4.07,-4.0733,-4.07,0.0,0.0,0.0,0.0,0.0,0.0,0.0,0.0,0.0,0.0,0.0,0.0,0.0,0.0,-3.3605,-3.3605,-3.3605,-3.3605,0.0,0.0,0.0,0.0,0.0,0.0,0.0,0.0,0.0,-3.3491,-3.3422,-3.3393,-3.3393,-3.3393,-3.3422,-3.3491,-3.3491,-3.3509,-3.3509,-3.3509,-3.352,-3.3605,0.0,0.0,0.0,0.0,0.0,0.0,0.0,0.0,0.0,0.0,0.0,0.0,0.0,0.0,0.0,0.0,0.0,0.0,0.0,0.0,0.0,0.0,0.0,0.0,0.0,0.0,0.0,0.0,0.0,0.0,0.0,0.0,0.0,0.0,0.0,0.0,0.0,0.0,0.0,-3.9268,-3.9223,0.0,0.0,0.0,0.0,-3.676,-3.6686,-3.7021,-3.7801,-3.7838,-3.8209,-3.9008,-3.9045,-3.9064,-3.9101,-3.9101,-3.9101,-3.9101,-3.9101,-3.9364,-3.988,-3.988,-4.0138,-4.0574,-4.0574,-4.0621,-4.0687,-4.0607,-4.0588,-4.0621,-4.0668,-4.07,-4.07,-4.0778,-4.079,-4.079,0.0,0.0,0.0,0.0,0.0,0.0,0.0,0.0,0.0,0.0,0.0,0.0,0.0,-3.3577,-3.3605,-3.3605,-3.3605,-3.3605,-3.3605,0.0,0.0,0.0,0.0,0.0,0.0,0.0,-3.3549,-3.3549,-3.3509,-3.3452,-3.3452,-3.3422,-3.3422,-3.3509,-3.3509,-3.3549,-3.3633,-3.3633,-3.3643,-3.3671,-3.3671,-3.3643,0.0,0.0,0.0,0.0,0.0,0.0,0.0,0.0,0.0,0.0,0.0,0.0,0.0,0.0,0.0,0.0,0.0,0.0,0.0,0.0,0.0,0.0,0.0,0.0,0.0,0.0,0.0,0.0,0.0,0.0,0.0,0.0,0.0,0.0,0.0,0.0,0.0,-3.9324,-3.9376,0.0,-3.872,-3.8737,-3.8652,-3.8265,-3.8228,-3.8377,-3.8655,-3.8674,-3.8804,-3.9082,-3.9101,-3.9165,-3.935,-3.9364,-3.9421,-3.9548,-3.958,-3.9781,-4.0082,-4.0138,-4.0334,-4.0588,-4.0654,-4.0687,-4.07,-4.0713,-4.0746,-4.0726,-4.0746,-4.0759,-4.0778,-4.079,-4.079,-4.079,0.0,0.0,0.0,0.0,0.0,0.0,0.0,0.0,0.0,0.0,0.0,-3.3605,-3.3633,-3.3643,-3.3671,-3.3671,-3.3671,-3.3671,-3.3671,0.0,0.0,0.0,0.0,0.0,0.0,-3.3605,-3.3605,-3.3615,-3.3577,-3.352,-3.352,-3.3481,-3.3481,-3.3577,-3.3549,-3.3605,-3.3726,-3.3726,-3.3726,-3.3726,-3.3726,-3.3698,-3.3671,0.0,0.0,0.0,0.0,0.0,0.0,0.0,0.0,0.0,0.0,0.0,0.0,0.0,0.0,0.0,0.0,0.0,0.0,0.0,0.0,0.0,0.0,0.0,0.0,0.0,0.0,0.0,0.0,0.0,0.0,0.0,0.0,0.0,0.0,-3.9647,-3.9623,-3.9383,-3.9452,-3.9427,-3.9245,-3.9272,-3.9272,-3.9165,-3.9129,-3.9101,-3.9101,-3.9101,-3.9101,-3.9101,-3.9101,-3.9219,-3.9502,-3.9494,-3.9599,-3.9797,-3.9886,-4.0024,-4.0229,-4.03,-4.0469,-4.0668,-4.0713,-4.0733,-4.0765,-4.1068,-4.1197,-4.1177,-4.0906,-4.0965,-4.1197,-4.1197,-4.139,-4.1641,0.0,0.0,0.0,0.0,0.0,0.0,0.0,0.0,0.0,0.0,-3.3549,-3.3633,-3.3698,-3.3753,-3.3807,-3.3807,-3.3807,-3.3807,-3.3807,-3.3753,0.0,0.0,0.0,0.0,-3.3698,-3.3633,-3.3615,-3.3698,-3.3615,-3.3605,-3.3605,-3.352,-3.3577,-3.3698,-3.3615,-3.3671,-3.3807,-3.3807,-3.3807,-3.3807,-3.3807,-3.3807,-3.3807,0.0,0.0,0.0,0.0,0.0,0.0,0.0,0.0,0.0,0.0,0.0,0.0,0.0,0.0,0.0,0.0,0.0,0.0,0.0,0.0,0.0,0.0,0.0,0.0,0.0,0.0,0.0,0.0,0.0,0.0,0.0,0.0,0.0,-3.9717,-3.9717,-3.967,-3.9508,-3.9526,-3.9526,-3.9502,-3.9401,-3.9324,-3.9298,-3.9165,-3.9129,-3.9101,-3.9129,-3.9129,-3.9129,-3.9129,-3.9245,-3.9526,-3.9519,-3.9622,-3.984,-3.9906,-4.0062,-4.0317,-4.037,-4.0549,-4.079,-4.079,-4.079,-4.0848,-4.1641,-4.1951,-4.1893,-4.1158,-4.1351,-4.2048,-4.2048,-4.257,-4.3266,0.0,0.0,0.0,0.0,0.0,0.0,0.0,0.0,0.0,0.0,-3.3605,-3.3643,-3.3753,-3.3807,-3.3807,-3.3807,-3.3807,-3.3807,-3.3807,0.0,0.0,0.0,0.0,0.0,-3.378,-3.3698,-3.3671,-3.3698,-3.3615,-3.3605,-3.3605,-3.3577,-3.3633,-3.3698,-3.3671,-3.3726,-3.3807,-3.3807,-3.3807,-3.3807,-3.3807,-3.3807,-3.3807,0.0,0.0,0.0,0.0,0.0,0.0,0.0,0.0,0.0,0.0,0.0,0.0,0.0,0.0,0.0,0.0,0.0,0.0,0.0,0.0,0.0,0.0,0.0,0.0,0.0,0.0,0.0,0.0,0.0,0.0,0.0,-3.9889,-3.9889,-3.9848,-3.9867,-3.9804,-3.967,-3.9717,-3.9693,-3.9526,-3.9532,-3.9526,-3.9324,-3.935,-3.935,-3.9245,-3.935,-3.9401,-3.9401,-3.9401,-3.958,-3.992,-3.9944,-4.0081,-4.0364,-4.0496,-4.0579,-4.0593,-4.066,-4.0733,-4.079,-4.079,-4.079,-4.081,-4.1042,-4.1119,-4.1235,-4.2222,-4.2744,-4.2937,-4.2937,-4.2686,-4.2357,0.0,0.0,0.0,0.0,0.0,0.0,0.0,0.0,0.0,0.0,-3.3605,-3.3643,-3.3807,-3.3807,-3.3807,-3.3807,-3.3807,-3.366,-3.333,0.0,0.0,0.0,0.0,-3.3807,-3.3807,-3.378,-3.3726,-3.3698,-3.3698,-3.3671,-3.3643,-3.3643,-3.3671,-3.3753,-3.3726,-3.3726,-3.3807,-3.3807,-3.3807,-3.3807,-3.3807,-3.3807,-3.3807,-3.3807,-3.3807,-3.3807,-3.3807,-3.3807,-3.3807,-3.3807,0.0,0.0,0.0,0.0,0.0,0.0,0.0,0.0,0.0,0.0,0.0,0.0,0.0,0.0,0.0,0.0,0.0,0.0,0.0,0.0,0.0,0.0,0.0,0.0,-3.9889,-3.9889,-3.9889,-3.9889,-3.9867,-3.9804,-3.9848,-3.9845,-3.967,-3.9693,-3.9647,-3.9477,-3.9502,-3.9477,-3.9401,-3.9477,-3.9502,-3.9502,-3.9502,-3.9679,-4.0101,-4.0101,-4.0262,-4.0588,-4.0746,-4.0759,-4.07,-4.0778,-4.079,-4.079,-4.079,-4.079,-4.0829,-4.1158,-4.1293,-4.139,0.0,0.0,0.0,0.0,-4.3285,-4.2531,0.0,0.0,0.0,0.0,0.0,0.0,0.0,0.0,0.0,0.0,0.0,-3.3643,-3.3807,-3.3807,-3.3807,-3.3807,-3.3807,-3.3495,0.0,0.0,0.0,-3.3561,-3.3633,-3.3623,-3.3532,-3.3532,-3.3478,-3.3424,-3.3478,-3.3533,-3.3552,-3.3552,-3.3634,-3.3807,-3.3726,-3.3753,-3.3807,-3.3807,-3.3807,-3.3807,-3.3807,-3.3807,-3.3807,-3.3807,-3.3807,-3.3807,-3.3807,-3.3807,-3.3788,-3.3815,0.0,0.0,0.0,0.0,0.0,0.0,0.0,0.0,0.0,0.0,0.0,0.0,0.0,0.0,0.0,0.0,0.0,0.0,0.0,0.0,0.0,0.0,0.0,0.0,-3.9889,-3.9889,-3.9889,-3.9889,-3.9889,-3.9889,-3.9889,-3.9889,-3.9889,-3.9804,-3.9717,-3.9693,-3.958,-3.9551,-3.9508,-3.9551,0.0,0.0,0.0,-3.9743,-4.012,-4.0119,-4.0336,-4.0756,-4.0881,-4.0952,-4.099,-4.1049,-4.1081,-4.1081,-4.1081,-4.1081,-4.1139,-4.1854,-4.2202,-4.228,-4.2183,-4.2628,-4.3401,-4.4175,-4.3904,-4.3163,0.0,0.0,0.0,0.0,0.0,0.0,0.0,0.0,0.0,-3.3671,-3.3671,-3.3698,-3.3807,-3.3807,-3.3807,-3.3807,-3.3807,-3.3733,0.0,0.0,-3.3348,-3.2826,-3.2826,-3.254,-3.188,-3.181,-3.1785,-3.1759,-3.1707,-3.2054,-3.272,-3.2729,-3.3111,-3.3807,-3.3807,-3.3807,-3.3807,-3.3807,-3.3807,-3.3807,-3.3807,-3.3807,-3.3807,-3.3807,-3.3807,-3.3807,-3.3807,-3.3807,-3.3815,-3.4049,-3.4124,-3.4154,-3.4439,0.0,0.0,0.0,0.0,0.0,0.0,0.0,0.0,0.0,0.0,0.0,0.0,0.0,0.0,0.0,0.0,0.0,0.0,0.0,0.0,-3.9889,-3.9889,-3.9889,-3.9889,-3.9889,-3.9889,-3.9889,-3.9889,-3.9889,-3.9889,-3.9889,-3.9826,-3.9717,-3.9781,-3.9781,-3.967,-3.9758,-3.9826,-3.9826,-3.9826,-3.996,-4.0266,-4.0264,-4.0761,-4.1745,-4.1757,0.0,-4.2789,-4.2821,-4.2821,-4.2821,-4.2821,-4.2821,-4.2821,-4.2976,-4.346,-4.404,-4.3324,-4.315,-4.3324,-4.3498,-4.3021,-4.2334,0.0,0.0,0.0,0.0,0.0,0.0,0.0,0.0,0.0,0.0,-3.3698,-3.3726,-3.3788,-3.3807,-3.3807,-3.3807,-3.344,0.0,0.0,-3.2816,-3.2596,-3.2614,-3.221,-3.1806,-3.1403,-3.1378,-3.1327,-3.1302,-3.1302,-3.1521,-3.1905,-3.1939,-3.2184,-3.2614,-3.3018,-3.3201,-3.3238,-3.3623,-3.3807,-3.3788,-3.386,-3.3842,-3.386,-3.3815,-3.3868,-3.3998,-3.3986,-3.4087,-3.4232,-3.4348,-3.4416,-3.4502,-3.4693,-3.4999,-3.5455,0.0,0.0,0.0,0.0,0.0,0.0,0.0,0.0,0.0,0.0,0.0,0.0,0.0,0.0,-4.0036,-4.0015,0.0,-3.9954,-3.9954,-3.9911,-3.9889,-3.9889,-3.9889,-3.9889,-3.9889,-3.9889,-3.9889,-3.9889,-3.9889,-3.9867,-3.9804,-3.9848,-3.9867,-3.9804,-3.9848,-3.9889,-3.9889,-4.0306,-4.0687,-4.0933,-4.1283,-4.1846,-4.2647,-4.2593,-4.2806,-4.3305,-4.3305,-4.3305,-4.3305,-4.3305,-4.3305,-4.3305,-4.3344,-4.3583,-4.3904,-4.3536,-4.3664,-4.3995,-4.3995,-4.349,-4.2789,0.0,0.0,0.0,0.0,0.0,0.0,0.0,0.0,0.0,0.0,0.0,-3.3753,-3.3788,-3.3807,-3.3807,0.0,0.0,0.0,0.0,-3.199,-3.1788,-3.2137,-3.1513,-3.1091,-3.0944,-3.0925,-3.0901,-3.0826,-3.0876,-3.0968,-3.1064,-3.1139,-3.1237,-3.1421,-3.2082,-3.2401,-3.2463,-3.3298,-3.3674,-3.3707,-3.3949,-3.403,-3.403,-3.3979,-3.4055,-3.4227,-3.4265,-3.4423,-3.4632,-3.4655,-3.4714,-3.4793,-3.4945,-3.4981,-3.5148,-3.6014,-3.6392,0.0,0.0,0.0,0.0,0.0,0.0,0.0,0.0,-4.0253,-4.0215,-4.0176,-4.0157,-4.0117,-4.0098,-4.0057,-4.0017,-4.0017,-3.9975,-3.9933,-3.9911,-3.9911,-3.9911,-3.9911,-3.9911,-3.9889,-3.9889,-3.9889,-3.9889,-3.9889,-3.9889,-3.9889,-3.9889,-4.006,-4.0135,-4.0135,-4.0991,-4.1542,-4.1779,-4.2374,-4.2927,-4.3448,-4.3408,-4.352,-4.3761,-4.3775,-4.3788,-4.3788,-4.3802,-4.3815,-4.3815,-4.3889,-4.3858,-4.384,-4.3945,-4.4383,-4.4932,-4.4591,-4.4062,-4.3491,0.0,0.0,0.0,0.0,0.0,0.0,0.0,0.0,0.0,0.0,0.0,0.0,0.0,0.0,0.0,0.0,0.0,0.0,-3.2669,-3.2522,-3.188,-3.054,-3.0375,-3.0008,-2.9292,-2.925,-2.9227,-2.9161,-2.9161,-2.9551,-3.0247,-3.0247,-3.0656,-3.1384,-3.1476,-3.1636,-3.1862,-3.272,-3.3194,-3.3428,-3.4142,-3.4464,-3.4508,-3.4508,-3.442,-3.4311,-3.4551,-3.4653,-3.4714,-3.4889,-3.4962,-3.5016,-3.527,-3.53,-3.527,-3.54,-3.594,-3.6539,-3.6719,-3.7884,-3.9221,-4.0081,-4.031,-4.0272,0.0,-4.0253,-4.0253,-4.0137,-4.0157,-4.0176,-4.0117,-4.0077,-4.0096,-4.0096,-4.0077,-4.0057,-3.9996,-3.9996,-3.9996,-3.9996,-3.9933,-3.9889,-3.9889,-3.9889,-3.9889,-3.9889,-3.9889,-3.9889,-3.9889,-4.0631,-4.1067,-4.1067,-4.1844,-4.2332,-4.2485,-4.2757,-4.3253,-4.4017,-4.4292,-4.4742,-4.5359,-4.5467,-4.551,-4.5524,-4.5577,-4.5602,-4.5614,-4.5673,-4.5695,-4.5695,-4.5705,-4.5813,-4.5764,-4.42,-4.3578,-4.3497,0.0,0.0,0.0,0.0,0.0,0.0,0.0,0.0,0.0,0.0,0.0,0.0,0.0,0.0,0.0,0.0,0.0,0.0,-3.1953,-3.1458,-3.0907,-3.0228,-2.9751,-2.9324,-2.8947,-2.8929,-2.8905,-2.8834,-2.8834,-2.8998,-2.9351,-2.9457,-2.9738,-3.0153,-3.0732,-3.1067,-3.1229,-3.207,-3.2468,-3.2608,-3.3496,-3.3895,-3.3973,-3.4642,-3.4851,-3.4774,-3.4889,-3.4999,0.0,0.0,-3.5254,-3.5304,-3.5315,-3.535,-3.5364,-3.5315,-3.555,-3.5898,-3.6367,-3.7747,-3.9143,-3.9451,-3.9928,-4.0291,-4.0253,-4.0272,-4.0272,-4.0234,-4.0234,-4.0253,-4.0215,-4.0176,-4.0157,-4.0157,-4.0137,-4.0077,-4.0057,-4.0057,-4.0247,-4.0699,-4.0279,-3.9954,-3.9954,-3.9911,-3.9889,-3.9889,-3.9889,-4.0116,-4.0631,-4.101,-4.1408,-4.1882,-4.2716,-4.3225,-4.3361,-4.3836,-4.4362,-4.4972,-4.4957,-4.5185,-4.5596,-4.558,-4.5645,-4.5747,-4.5898,-4.5964,-4.5964,-4.6027,-4.6047,-4.6007,-4.6084,-4.6102,-4.6016,-4.5278,-4.5051,-4.5064,0.0,0.0,0.0,0.0,0.0,0.0,0.0,0.0,0.0,0.0,0.0,0.0,0.0,0.0,0.0,0.0,0.0,0.0,0.0,-3.065,-3.0099,-2.9879,-2.9287,0.0,-2.8905,-2.8881,-2.8834,-2.8761,-2.8785,-2.8785,-2.8785,-2.892,-2.9034,-2.9115,-2.9866,-3.0294,-3.0489,-3.1333,-3.1749,-3.194,-3.2845,-3.3223,-3.3355,-3.442,-3.4694,-3.456,-3.5035,-3.5304,0.0,0.0,-3.546,-3.5474,-3.5398,-3.5398,-3.5412,-3.535,-3.5315,-3.5473,-3.63,-3.7608,-3.8778,-3.8972,-3.9661,-4.031,-4.031,-4.031,-4.031,-4.031,-4.05,-4.0613,-4.0348,-4.0463,-4.052,-4.0273,-4.0176,-4.0157,-4.0137,-4.0327,-4.0668,-4.1254,-4.0969,-4.072,-4.072,-4.0241,-3.9933,-3.9954,-4.016,-4.0558,-4.1184,-4.1654,-4.2166,-4.2754,-4.3587,-4.4094,-4.4195,-4.4715,-4.5135,-4.5456,-4.5361,-4.5381,-4.5528,-4.5475,-4.5528,-4.5692,-4.5886,-4.5975,-4.5986,-4.6084,-4.6093,-4.6056,-4.6154,-4.6162,-4.6138,-4.6138,-4.6154,-4.6196,0.0,0.0,0.0,0.0,0.0,0.0,0.0,0.0,0.0,0.0,0.0,0.0,0.0,0.0,0.0,0.0,0.0,0.0,0.0,-3.065,-2.9861,-2.9067,-2.8947,-2.8905,-2.8905,-2.8834,-2.8761,-2.8694,-2.8761,-2.8761,-2.8694,-2.8785,-2.881,-2.881,-2.8923,-2.9181,-2.9608,-3.0546,-3.1162,-3.1584,-3.2405,-3.276,-3.29,-3.3806,-3.3643,-3.3185,-3.4883,0.0,0.0,0.0,-3.5493,-3.5493,-3.5493,-3.5493,0.0,-3.5412,-3.5364,-3.5488,-3.637,-3.7201,-3.8049,-3.8873,-3.9698,-4.031,-4.031,-4.031,-4.031,-4.031,-4.1027,-4.138,-4.0481,-4.1027,-4.1363,-4.0424,-4.0291,-4.0272,-4.0196,-4.0882,-4.1378,-4.1397,-4.2062,-4.2514,-4.2514,-4.0988,-4.0017,-4.0096,-4.0815,-4.1269,-4.1307,-4.2777,-4.3644,-4.3663,-4.444,-4.4881,-4.4972,-4.5115,-4.5156,-4.5125,-4.5438,-4.5495,-4.5322,-4.5513,-4.5586,-4.562,-4.5827,-4.5898,-4.5929,-4.613,-4.6196,-4.6196,-4.6196,-4.6196,-4.6196,-4.6196,-4.6196,-4.6196,0.0,0.0,0.0,0.0,0.0,0.0,0.0,0.0,0.0,0.0,0.0,0.0,0.0,0.0,0.0,0.0,0.0,0.0,0.0,-3.0064,-2.9222,-2.8947,-2.8881,-2.881,-2.8767,-2.8761,-2.8712,-2.8637,-2.8662,-2.8662,-2.8637,-2.8839,-2.8915,-2.8943,-2.9148,-2.9338,-2.9533,-3.0018,-3.0307,-3.0532,-3.1516,-3.1919,-3.2029,-3.2915,-3.3058,-3.2927,0.0,0.0,0.0,-3.5315,-3.5493,-3.5493,-3.5493,-3.5493,-3.5493,-3.546,-3.546,-3.5489,-3.5744,-3.6823,-3.7955,-3.8277,-3.9407,-4.0466,-4.054,-4.0554,-4.0709,-4.1253,-4.1605,-4.1923,-4.2174,-4.2488,-4.2405,-4.1519,-4.1369,-4.1176,-4.0607,-4.0761,-4.1324,-4.239,-4.2313,-4.2566,-4.3682,-4.2087,-4.1185,-4.1673,-4.1527,-4.1911,-4.2968,-4.3536,-4.4087,-4.4596,-4.4858,-4.501,-4.508,-4.5084,-4.5132,-4.522,-4.5361,-4.5321,-4.5175,-4.5381,-4.5473,-4.5491,-4.5815,-4.5891,-4.5777,-4.6074,-4.6074,-4.5894,-4.6119,-4.6146,-4.6084,-4.6181,-4.6196,-4.6196,0.0,0.0,0.0,0.0,0.0,0.0,0.0,0.0,0.0,0.0,0.0,0.0,0.0,0.0,0.0,0.0,0.0,0.0,0.0,0.0,-2.8858,-2.8858,-2.881,-2.8743,-2.8694,-2.8687,-2.8637,-2.8587,-2.8587,-2.8587,-2.8612,-2.8785,-2.8863,-2.8874,-2.9104,-2.9297,-2.9495,-2.9716,-2.9872,-3.0076,-3.0753,-3.1045,-3.1121,-3.2001,-3.2163,0.0,0.0,0.0,0.0,-3.4641,-3.5045,-3.5084,-3.5411,-3.5493,-3.5488,-3.5522,-3.5534,-3.5528,-3.5514,-3.6717,-3.8022,-3.8059,-3.9328,-4.0584,-4.0684,-4.0696,-4.0851,-4.1362,-4.1986,-4.2501,-4.2737,-4.3291,-4.3439,-4.2518,-4.2351,-4.208,-4.1248,-4.1661,-4.2209,-4.2626,-4.2762,-4.3109,-4.3868,-4.2556,-4.1982,-4.2699,-4.2278,-4.2604,-4.3939,-4.4217,-4.457,-4.5084,-4.5057,-4.508,-4.5148,-4.5103,-4.5151,-4.5301,-4.5301,-4.5258,-4.517,-4.5302,-4.5362,-4.5381,-4.5684,-4.5783,-4.5717,-4.5928,-4.5947,-4.5815,-4.5968,-4.6008,-4.6007,-4.6093,-4.6154,-4.6196,0.0,0.0,0.0,0.0,0.0,0.0,0.0,0.0,0.0,0.0,0.0,0.0,0.0,0.0,0.0,0.0,0.0,0.0,0.0,0.0,0.0,-2.8785,-2.8737,-2.8694,-2.8694,-2.8637,-2.8587,-2.8587,-2.8612,-2.8612,-2.8612,-2.8637,-2.8637,-2.8637,-2.8785,-2.9034,-2.9418,-2.9551,-2.982,-3.0171,-3.0185,-3.0204,-3.0294,-3.1125,0.0,0.0,0.0,0.0,0.0,-3.3564,-3.416,-3.4353,-3.5238,-3.5507,-3.5515,-3.5574,-3.5588,-3.562,-3.5676,-3.6928,-3.821,-3.821,-3.9481,-4.0721,-4.0731,-4.0731,-4.0731,-4.0789,-4.2151,-4.3092,-4.2233,-4.3518,-4.4374,-4.333,-4.3189,-4.2898,-4.1989,-4.3273,-4.3737,-4.2118,-4.3376,-4.4059,-4.3225,-4.2492,-4.2424,-4.324,-4.3069,-4.3325,-4.4226,-4.48,-4.5106,-4.5106,-4.5125,-4.5148,-4.5192,-4.5192,-4.5254,-4.5297,-4.5297,-4.5297,-4.5297,-4.5297,-4.5297,-4.5317,-4.5456,-4.5571,-4.5689,-4.5684,-4.5803,-4.5944,-4.5777,-4.5803,-4.5986,-4.5986,-4.6075,-4.6189,0.0,0.0,0.0,0.0,0.0,0.0,0.0,0.0,0.0,0.0,0.0,0.0,0.0,0.0,0.0,0.0,0.0,0.0,0.0,0.0,0.0,0.0,0.0,0.0,0.0,0.0,0.0,0.0,0.0,-2.8887,-2.8887,-2.9052,-2.9123,-2.9123,-2.9206,-2.9291,-2.9434,-2.9644,-2.9801,-2.9918,0.0,-3.0204,-3.0223,0.0,0.0,0.0,0.0,0.0,0.0,-3.2679,-3.366,-3.4353,-3.5238,-3.5534,-3.5581,-3.5596,-3.564,-3.5687,-3.5693,-3.6956,-3.8294,-3.8337,-3.9656,-4.094,-4.098,-4.0992,-4.1181,-4.1838,-4.2331,-4.276,-4.3136,-4.4097,-4.4343,-4.2774,-4.3078,-4.298,-4.1521,-4.1688,-4.2019,-4.2174,-4.2583,-4.303,-4.343,-4.3292,-4.3553,-4.4409,-4.3668,-4.3819,-4.5244,-4.5374,-4.54,-4.54,-4.5239,-4.5192,-4.5256,-4.5256,-4.5297,-4.5297,-4.5297,-4.5297,-4.5297,-4.5297,-4.5297,-4.5317,-4.5456,-4.5455,-4.5419,-4.5634,-4.5603,-4.5493,-4.563,-4.566,-4.5638,-4.5736,-4.5883,-4.6037,0.0,0.0,0.0,0.0,0.0,0.0,0.0,0.0,0.0,0.0,0.0,0.0,0.0,0.0,0.0,0.0,0.0,0.0,0.0,0.0,0.0,0.0,0.0,0.0,0.0,0.0,0.0,0.0,0.0,0.0,0.0,-2.9206,-2.9293,-2.9293,-2.9375,-2.9455,-2.9551,0.0,0.0,0.0,0.0,0.0,0.0,0.0,0.0,0.0,0.0,0.0,0.0,-3.2416,-3.3805,-3.4904,-3.5386,-3.5585,-3.567,-3.5715,-3.5757,-3.5801,-3.5827,-3.6812,-3.7876,-3.7908,-3.9219,-4.0472,-4.0512,-4.0828,-4.1234,-4.1737,-4.2124,-4.2544,-4.2983,-4.3752,-4.413,-4.3539,-4.3526,-4.3266,-4.2338,-4.2202,-4.2085,-4.1812,-4.2085,-4.2357,-4.2494,-4.2825,-4.339,-4.4267,-4.4064,-4.4475,-4.5757,-4.5619,-4.549,-4.549,-4.5321,-4.5256,-4.5297,-4.5297,-4.5297,-4.5297,-4.5297,-4.5297,-4.5297,-4.5297,-4.5297,-4.5317,-4.5381,-4.54,-4.54,-4.5491,-4.5473,-4.54,-4.5491,-4.5507,-4.5507,-4.5587,-4.5722,-4.5859,0.0,0.0,0.0,0.0,0.0,0.0,0.0,0.0,0.0,0.0,0.0,0.0,0.0,0.0,0.0,0.0,0.0,0.0,0.0,0.0,0.0,0.0,0.0,0.0,0.0,0.0,0.0,0.0,0.0,0.0,0.0,0.0,0.0,0.0,0.0,0.0,0.0,0.0,0.0,0.0,0.0,0.0,0.0,0.0,0.0,0.0,0.0,0.0,0.0,-3.2561,-3.407,-3.5319,-3.5532,-3.566,-3.5753,-3.5872,-3.5914,-3.5929,-3.5985,-3.6638,-3.7301,-3.7301,-3.8551,-3.98,-3.98,-4.0464,-4.1108,-4.1108,-4.1706,-4.2225,-4.2225,-4.289,-4.3649,-4.4292,-4.3949,-4.3526,-4.3312,-4.3364,-4.2844,-4.1286,-4.1714,-4.187,-4.1169,-4.1929,-4.2786,-4.3539,-4.4411,-4.522,-4.5978,-4.5713,-4.5507,-4.5473,-4.5361,-4.5297,-4.5297,-4.5297,-4.5297,-4.5297,-4.5297,-4.5297,-4.5297,-4.5297,-4.5297,-4.5297,-4.5297,-4.538,-4.5455,-4.5341,-4.538,-4.5455,-4.536,-4.538,-4.5473,-4.5473,-4.5555,-4.5675,0.0,0.0,0.0,0.0,0.0,0.0,0.0,0.0,0.0,0.0,0.0,0.0,0.0,0.0,0.0,0.0,0.0,0.0,0.0,0.0,0.0,0.0,0.0,0.0,0.0,0.0,0.0,0.0,-2.9082,0.0,0.0,0.0,0.0,0.0,0.0,0.0,0.0,0.0,0.0,0.0,0.0,0.0,0.0,0.0,0.0,0.0,0.0,0.0,0.0,0.0,-3.3325,-3.3852,-3.5249,-3.5772,-3.5878,-3.5889,-3.5938,-3.5985,-3.5991,-3.6638,-3.7301,-3.7301,-3.8551,-3.98,-3.98,-4.0464,-4.1108,-4.1108,-4.1225,-4.1339,-4.1328,-4.2026,-4.2427,-4.1861,-4.2785,-4.3111,-4.1734,-4.2104,-4.2182,-4.1208,-4.1227,-4.1247,-4.111,-4.2474,-4.3442,-4.3578,-4.5051,-4.6006,-4.6162,-4.584,-4.5555,-4.5341,-4.5298,-4.5297,-4.5297,-4.5297,-4.5297,-4.5297,-4.5297,-4.5297,-4.5297,-4.5297,-4.5297,-4.5297,-4.5297,-4.5298,-4.5339,-4.5317,-4.5298,-4.5339,-4.5317,-4.5298,-4.532,-4.532,-4.5419,-4.5522,0.0,0.0,0.0,0.0,0.0,0.0,0.0,0.0,0.0,0.0,-3.3304,-3.3274,0.0,0.0,0.0,0.0,0.0,0.0,0.0,0.0,0.0,0.0,0.0,0.0,0.0,-2.8648,-2.8551,-2.8814,0.0,-2.9375,-2.9608,-2.9805,-2.9888,-2.9888,-2.9972,0.0,0.0,0.0,0.0,0.0,0.0,0.0,0.0,0.0,0.0,0.0,0.0,0.0,0.0,0.0,-3.2863,-3.3604,-3.5288,-3.5864,-3.5947,-3.5947,-3.5962,-3.5991,-3.5991,-3.6306,-3.6618,-3.6618,-3.7575,-3.8629,-3.9078,-3.9819,-4.0542,-4.101,-4.1108,-4.1108,-4.1104,-4.1445,-4.1744,-4.1774,-4.2421,-4.2792,-4.2455,-4.2338,-4.2163,-4.1773,-4.1344,-4.111,-4.111,-4.263,-4.3598,-4.3598,-4.5202,-4.6196,-4.6196,-4.5875,-4.5571,-4.5317,-4.5297,-4.5297,-4.5297,-4.5297,-4.5297,-4.5297,-4.5297,-4.5297,-4.5297,-4.5297,-4.5297,-4.5297,-4.5297,-4.5297,-4.5297,-4.5297,-4.5297,-4.5297,-4.5297,-4.5297,-4.5297,-4.5297,-4.5341,-4.54,0.0,0.0,0.0,0.0,0.0,0.0,0.0,-3.4051,-3.4101,-3.3424,-3.3196,-3.3135,-3.3232,-3.3262,0.0,0.0,0.0,0.0,0.0,0.0,0.0,0.0,0.0,0.0,0.0,0.0,0.0,-2.935,-2.9599,0.0,0.0,0.0,0.0,0.0,-3.0257,-3.0193,-3.0087,0.0,0.0,0.0,0.0,-3.0185,0.0,0.0,0.0,0.0,0.0,0.0,0.0,0.0,-3.2491,-3.3373,-3.4885,-3.5658,-3.5991,-3.5991,-3.5991,-3.5991,-3.5991,-3.5991,-3.5991,-3.5991,-3.6657,-3.7536,-3.8394,-3.9214,-4.0054,-4.0912,-4.1108,-4.1104,-4.1104,-4.1109,-4.1325,-4.2008,-4.222,-4.2552,-4.3234,-4.2728,-4.2299,-4.2299,-4.1598,-4.111,-4.111,-4.263,-4.3598,-4.3598,-4.5202,-4.6189,-4.6154,-4.5883,-4.5587,-4.5341,-4.5298,-4.5297,-4.5297,-4.5297,-4.5297,-4.5297,-4.5297,-4.5297,-4.5297,-4.5297,-4.5297,-4.5297,-4.5297,-4.5297,-4.5297,-4.5297,-4.5297,-4.5297,-4.5297,-4.5297,-4.5297,-4.5297,-4.5297,-4.5297,0.0,0.0,0.0,0.0,0.0,0.0,0.0,-3.4076,-3.3692,-3.3194,-3.3117,-3.3086,-3.3011,-3.3073,0.0,0.0,0.0,0.0,0.0,0.0,0.0,0.0,0.0,0.0,0.0,0.0,0.0,-3.1072,-3.1283,0.0,0.0,0.0,0.0,0.0,0.0,-3.0728,-3.0022,-3.0068,0.0,0.0,0.0,0.0,0.0,0.0,0.0,0.0,0.0,-3.0639,-3.0828,-3.1705,-3.2104,-3.2383,-3.3334,-3.4722,-3.5991,-3.5991,-3.5991,-3.5991,-3.5991,-3.5991,-3.5991,-3.5991,-3.6657,-3.7536,-3.8394,-3.9214,-4.0054,-4.0912,-4.1101,-4.1094,-4.1094,-4.1105,-4.113,-4.1217,-4.1875,-4.2395,-4.2416,-4.2357,-4.2299,-4.2299,-4.1598,-4.111,-4.111,-4.263,-4.3598,-4.3598,-4.5202,-4.6146,-4.6017,-4.5815,-4.563,-4.5491,-4.5361,-4.5297,-4.5297,-4.5297,-4.5297,-4.5297,-4.5297,-4.5297,-4.5297,-4.5297,-4.5297,-4.5297,-4.5297,-4.5297,-4.5297,-4.5297,-4.5297,-4.5297,-4.5297,-4.5297,-4.5297,-4.5297,-4.5297,-4.5297,0.0,0.0,0.0,0.0,0.0,0.0,0.0,-3.4689,-3.4233,-3.388,-3.3329,-3.2979,-3.2979,-3.2979,-3.2979,0.0,0.0,0.0,0.0,0.0,0.0,0.0,0.0,0.0,0.0,0.0,-3.0772,-3.1125,-3.1336,0.0,0.0,0.0,0.0,0.0,0.0,-3.1777,-3.1507,-3.1523,0.0,0.0,0.0,0.0,0.0,0.0,0.0,0.0,0.0,0.0,-3.0806,-3.1157,-3.1636,-3.2154,-3.2505,-3.3812,-3.5217,-3.5224,-3.5597,-3.601,-3.6001,-3.6004,-3.601,-3.6001,-3.6254,-3.6746,-3.7562,-3.842,-3.9256,-4.0134,-4.0734,-4.11,-4.11,-4.1091,-4.11,-4.1095,-4.1811,-4.252,-4.302,-4.3072,-4.3072,-4.3072,-4.2338,-4.1637,-4.1149,-4.2143,-4.3254,-4.4306,-4.5429,-4.6066,-4.6007,-4.5803,-4.5603,-4.5381,-4.5339,-4.5297,-4.5297,-4.5297,-4.5297,-4.5297,-4.5297,-4.5297,-4.5297,-4.5297,-4.5297,-4.5297,-4.5297,-4.5297,-4.5297,-4.5297,-4.5297,-4.5297,-4.5297,-4.5297,-4.5297,-4.5297,-4.5297,-4.5297,0.0,0.0,0.0,0.0,0.0,0.0,-3.5588,-3.5016,-3.4588,-3.4267,-3.348,-3.2916,-3.2948,-3.2916,-3.2916,-3.2916,0.0,0.0,0.0,0.0,0.0,0.0,0.0,0.0,0.0,0.0,-3.1339,-3.1664,-3.1897,-3.2201,0.0,0.0,-3.2883,-3.2731,0.0,0.0,0.0,0.0,0.0,0.0,0.0,0.0,0.0,0.0,0.0,0.0,0.0,0.0,0.0,0.0,0.0,-3.1714,-3.1714,0.0,0.0,-3.4612,-3.5318,-3.6001,-3.6009,-3.5994,-3.6001,-3.6009,-3.599,-3.6208,-3.7024,-3.7663,-3.8443,-3.9575,-4.0291,-4.0799,-4.1052,-4.1095,-4.1109,0.0,-4.1584,-4.2338,-4.3442,-4.3383,-4.341,-4.3916,-4.3215,-4.2357,-4.1539,-4.1928,-4.2965,-4.4705,-4.5298,-4.5638,-4.5835,-4.5722,-4.5555,-4.5361,-4.5319,-4.5297,-4.5297,-4.5297,-4.5297,-4.5297,-4.5297,-4.5297,-4.5297,-4.5317,-4.5317,-4.5297,-4.5317,-4.5317,-4.5297,-4.5297,-4.5297,-4.5297,-4.5297,-4.5297,-4.5297,-4.5297,-4.5297,-4.5297,0.0,0.0,0.0,0.0,0.0,0.0,0.0,-3.4899,-3.4481,-3.4138,-3.3384,-3.2916,-3.2916,-3.2916,-3.2916,-3.2916,0.0,0.0,0.0,0.0,0.0,0.0,0.0,0.0,0.0,0.0,-3.2975,-3.3184,-3.3505,-3.3821,-3.4087,-3.4413,-3.4196,-3.3487,0.0,0.0,0.0,0.0,0.0,0.0,0.0,0.0,0.0,0.0,0.0,0.0,0.0,0.0,0.0,0.0,0.0,0.0,0.0,0.0,0.0,0.0,-3.5323,-3.6005,-3.6005,-3.6005,-3.6005,-3.6005,-3.6005,-3.62,-3.7019,-3.7219,-3.7702,-3.9438,-3.9819,-4.0081,-4.0939,-4.1103,-4.111,-4.111,-4.111,-4.1695,-4.3364,-4.2864,-4.2942,-4.4676,-4.413,-4.3227,-4.2377,-4.2185,-4.2811,-4.4559,-4.4594,-4.4815,-4.5468,-4.549,-4.549,-4.549,-4.538,-4.5297,-4.5297,-4.5297,-4.5297,-4.5297,-4.5297,-4.5297,-4.5297,-4.5378,-4.5359,-4.5297,-4.5359,-4.5359,-4.5297,-4.5297,-4.5297,-4.5297,-4.5297,-4.5297,-4.5297,-4.5297,-4.5297,-4.5297,0.0,0.0,0.0,0.0,0.0,0.0,0.0,-3.4206,-3.3904,-3.4428,-3.3317,-3.2818,-3.3618,-3.3223,-3.2916,-3.2916,0.0,0.0,0.0,0.0,0.0,0.0,0.0,0.0,0.0,0.0,0.0,-3.2993,-3.3232,-3.3532,-3.3839,-3.4227,-3.4389,-3.4392,-3.4433,-3.4321,0.0,0.0,0.0,0.0,0.0,0.0,-3.1384,0.0,0.0,0.0,0.0,0.0,0.0,0.0,0.0,0.0,0.0,0.0,0.0,0.0,0.0,-3.5981,-3.5948,-3.5973,-3.5981,-3.5943,-3.5929,-3.5992,-3.6255,-3.6762,-3.7522,-3.8672,-3.9388,-4.0064,-4.0941,-4.1091,-4.111,-4.111,-4.111,-4.1695,-4.3364,-4.3364,-4.339,-4.3955,-4.2685,-4.1606,-4.1246,-4.1679,-4.2451,-4.3656,-4.4128,-4.472,-4.5522,-4.5475,-4.54,-4.5361,-4.5319,-4.5297,-4.5297,-4.5297,-4.5297,-4.5297,-4.5297,-4.5297,-4.5297,-4.5317,-4.5338,-4.5359,-4.5398,-4.5399,-4.538,-4.538,-4.538,-4.5378,-4.5378,-4.5338,-4.5297,-4.5297,-4.5297,-4.5297,0.0,0.0,0.0,0.0,0.0,0.0,0.0,-3.444,-3.426,-3.4981,-3.3864,-3.3261,-3.4011,-3.3366,-3.2916,-3.2916,0.0,0.0,0.0,0.0,0.0,0.0,0.0,0.0,0.0,-3.2852,-3.2916,-3.2916,-3.3099,-3.3321,-3.3514,-3.3954,-3.4316,-3.4623,-3.473,-3.4831,0.0,0.0,0.0,0.0,0.0,0.0,-3.1775,0.0,0.0,0.0,0.0,0.0,0.0,0.0,0.0,0.0,0.0,0.0,0.0,0.0,-3.4561,-3.5922,-3.5908,-3.5919,-3.5948,-3.5914,-3.5894,-3.5899,-3.5894,-3.6317,-3.696,-3.7837,0.0,-3.9571,-4.0448,-4.0877,-4.111,-4.111,-4.111,-4.1662,-4.3308,-4.3249,-4.3136,-4.3421,-4.215,-4.1253,-4.1151,-4.1287,-4.1757,-4.2679,-4.3378,-4.4162,-4.5028,-4.5266,-4.538,-4.5339,-4.5338,-4.5338,-4.5339,-4.5339,-4.5339,-4.5339,-4.5339,-4.5339,-4.5339,-4.5339,-4.536,-4.54,-4.54,-4.54,0.0,-4.54,-4.54,-4.54,-4.54,-4.538,-4.5339,-4.5339,-4.5339,-4.5338,0.0,0.0,0.0,0.0,0.0,0.0,0.0,0.0,0.0,0.0,-3.4588,-3.3959,-3.4031,-3.3333,-3.2884,0.0,0.0,0.0,0.0,0.0,0.0,0.0,0.0,0.0,0.0,-3.2802,-3.2916,-3.2916,-3.3086,-3.319,-3.325,-3.3662,-3.4049,-3.4316,-3.4517,-3.471,0.0,0.0,0.0,0.0,0.0,0.0,0.0,0.0,0.0,0.0,0.0,0.0,0.0,0.0,0.0,0.0,0.0,0.0,0.0,0.0,0.0,0.0,0.0,-3.5903,-3.5908,-3.5908,-3.5908,-3.5903,-3.5883,0.0,0.0,0.0,0.0,-3.8675,-3.9552,-4.0429,-4.0987,-4.0987,-4.1046,-4.1622,-4.318,-4.2685,-4.243,-4.3118,-4.2376,-4.1822,-4.188,-4.1017,-4.0881,-4.1805,-4.2458,-4.3252,-4.4231,-4.494,-4.5362,-4.5419,-4.54,-4.54,-4.54,-4.54,-4.54,-4.54,-4.54,-4.54,-4.54,-4.54,-4.54,-4.5419,-4.5419,-4.5419,-4.5419,-4.5419,-4.5419,-4.5419,-4.5419,-4.54,-4.54,-4.54,-4.54,-4.5399,0.0,0.0,0.0,0.0,0.0,0.0,0.0,0.0,0.0,0.0,0.0,-3.2544,-3.3335,-3.2964,0.0,0.0,0.0,0.0,0.0,0.0,0.0,0.0,0.0,0.0,0.0,-3.2884,-3.2916,-3.2916,-3.2948,-3.3147,-3.3502,-3.3671,-3.3986,-3.4386,-3.4539,0.0,0.0,0.0,0.0,0.0,0.0,0.0,0.0,0.0,0.0,0.0,-3.0843,-3.069,0.0,0.0,0.0,0.0,0.0,0.0,0.0,0.0,-3.4439,-3.5799,-3.5823,0.0,-3.5892,-3.5892,-3.5892,-3.5885,0.0,0.0,0.0,0.0,0.0,0.0,-3.8636,-3.9513,-4.0078,-3.998,-4.0516,-4.149,-4.3039,-4.3073,-4.2976,-4.3046,-4.174,-4.1024,-4.1545,-4.0837,-4.0989,-4.2539,-4.2232,-4.2923,-4.5073,-4.4785,-4.4843,-4.5457,-4.5476,-4.5457,-4.54,-4.54,-4.54,-4.54,-4.54,-4.54,-4.54,-4.54,-4.5419,-4.5476,-4.5476,-4.5513,-4.555,-4.555,-4.5513,-4.5476,-4.5476,-4.5457,-4.54,-4.54,-4.54,-4.54,0.0,0.0,0.0,0.0,0.0,0.0,0.0,0.0,0.0,0.0,0.0,0.0,0.0,0.0,0.0,0.0,0.0,0.0,0.0,0.0,0.0,0.0,0.0,0.0,0.0,-3.2606,-3.2672,-3.277,-3.277,-3.293,-3.3268,-3.3522,-3.3805,-3.4093,-3.4431,0.0,0.0,0.0,0.0,0.0,-3.483,0.0,0.0,0.0,0.0,0.0,-3.0858,-3.0657,0.0,-3.0657,-3.0657,-3.0715,0.0,0.0,0.0,0.0,-3.4709,-3.5757,-3.5756,-3.5799,-3.585,-3.585,-3.5884,-3.5898,-3.585,0.0,0.0,0.0,0.0,0.0,-3.7818,-3.8884,-3.9677,-3.9615,-4.0286,-4.1219,-4.2353,-4.3131,-4.3261,-4.2406,-4.1871,-4.153,-4.1514,-4.1513,-4.174,-4.2313,-4.2345,-4.2763,-4.3763,-4.4128,-4.4493,-4.4935,-4.5339,-4.5513,-4.5495,-4.5495,-4.5495,-4.5495,-4.5495,-4.5495,-4.5495,-4.5457,-4.5495,-4.5531,-4.5513,-4.555,-4.5586,-4.5586,-4.5586,-4.555,-4.555,-4.5513,-4.5495,-4.5495,-4.5457,-4.5438,0.0,0.0,0.0,0.0,0.0,0.0,0.0,0.0,0.0,0.0,0.0,0.0,0.0,0.0,0.0,0.0,0.0,0.0,0.0,0.0,0.0,0.0,0.0,-3.2266,-3.2144,-3.2232,-3.2386,-3.2555,-3.2588,-3.2705,-3.2898,-3.3357,-3.3625,-3.3742,-3.4274,0.0,0.0,0.0,-3.4583,-3.4623,-3.4708,0.0,0.0,0.0,0.0,0.0,0.0,0.0,0.0,-3.054,-3.0559,-3.0724,-3.1536,0.0,0.0,0.0,0.0,0.0,-3.5698,-3.5747,-3.5773,-3.5782,-3.5834,-3.5864,-3.5877,0.0,0.0,0.0,0.0,0.0,-3.6962,-3.8307,-3.9393,-3.9345,-4.0293,-4.1166,-4.161,-4.3005,-4.3482,-4.2049,-4.2431,-4.2507,-4.1781,-4.2316,-4.2428,-4.1756,-4.2324,-4.2508,-4.2027,-4.322,-4.397,-4.4105,-4.4951,-4.5393,-4.5393,-4.5528,-4.5586,-4.5586,-4.5586,-4.5586,-4.5586,-4.5396,-4.5416,-4.5586,-4.5396,-4.5416,-4.5586,-4.5586,-4.5586,-4.5586,-4.5586,-4.5586,-4.5586,-4.5586,-4.5568,-4.5513,0.0,0.0,0.0,0.0,0.0,0.0,0.0,0.0,0.0,0.0,0.0,0.0,0.0,0.0,0.0,0.0,0.0,0.0,0.0,0.0,0.0,0.0,0.0,-3.2283,-3.2249,-3.2283,-3.2318,-3.2352,-3.2539,-3.2719,-3.2993,-3.316,-3.3465,-3.385,-3.3972,-3.4173,-3.4427,-3.4427,-3.4495,-3.4602,-3.4623,0.0,0.0,0.0,0.0,0.0,0.0,0.0,0.0,-3.0253,-3.0367,-3.0675,-3.1535,0.0,0.0,0.0,0.0,0.0,-3.5695,-3.5706,-3.5727,-3.5728,-3.5727,-3.5737,-3.5737,-3.5728,0.0,0.0,0.0,-3.6066,-3.5948,-3.7335,-3.8433,-3.8202,-4.06,-4.2259,-4.1628,-4.2967,-4.3902,-4.3654,-4.3138,-4.2756,-4.2604,-4.2162,-4.1833,-4.1694,-4.1204,-4.147,-4.2835,-4.245,-4.2527,-4.3258,-4.4066,-4.4489,-4.4489,-4.522,-4.5586,-4.5586,-4.5586,-4.5586,-4.5566,-4.4836,-4.4893,-4.5547,-4.4816,-4.4913,-4.5586,-4.5586,-4.5586,-4.5586,-4.5586,-4.5586,-4.5586,-4.5586,-4.5586,-4.5586,0.0,0.0,0.0,0.0,0.0,0.0,0.0,0.0,0.0,0.0,0.0,0.0,0.0,0.0,0.0,0.0,0.0,0.0,0.0,0.0,0.0,0.0,-3.1965,-3.202,-3.202,-3.202,-3.2091,-3.2197,-3.2266,-3.2438,-3.2621,-3.2943,-3.3379,-3.3895,-3.3895,-3.4049,-3.4293,-3.4293,-3.4316,-3.4386,0.0,0.0,0.0,0.0,0.0,0.0,0.0,0.0,0.0,0.0,-3.015,-3.0459,-3.1782,0.0,0.0,0.0,0.0,0.0,-3.5643,-3.5673,-3.5684,-3.5604,-3.5658,-3.5699,-3.5698,-3.5756,-3.5807,0.0,-3.5795,-3.5776,-3.5715,-3.7005,-3.8331,-3.909,-4.1226,-4.266,-4.2259,-4.3654,-4.438,-4.3463,-4.3424,-4.3119,-4.224,-4.2276,-4.2159,-4.1731,-4.138,-4.1354,-4.1681,-4.1758,-4.1989,-4.2374,-4.322,-4.3643,-4.3643,-4.4047,-4.447,-4.4893,-4.4893,-4.4662,-4.4239,-4.3835,-4.3874,-4.422,-4.3835,-4.3874,-4.4239,-4.4239,-4.4509,-4.4893,-4.4893,-4.5182,-4.5586,-4.5586,-4.5586,-4.5586,0.0,0.0,0.0,0.0,0.0,0.0,0.0,0.0,0.0,0.0,0.0,0.0,0.0,0.0,0.0,0.0,0.0,0.0,0.0,0.0,-3.1763,-3.1726,-3.1726,-3.1763,-3.18,-3.18,-3.1873,-3.2037,-3.209,-3.2179,-3.2318,-3.2687,-3.3111,-3.3634,-3.3634,-3.377,-3.4005,-3.4055,-3.408,-3.4148,0.0,0.0,0.0,0.0,0.0,0.0,0.0,0.0,0.0,0.0,0.0,0.0,0.0,0.0,0.0,-3.4737,-3.534,-3.5464,-3.5477,-3.5521,-3.554,-3.547,0.0,-3.5679,-3.5618,-3.5718,-3.5818,-3.5782,-3.5706,-3.564,-3.5621,-3.6678,-3.8112,-3.9736,-4.1074,-4.1972,-4.2183,-4.3482,-4.3997,-4.2928,-4.3329,-4.3177,-4.1762,-4.2219,-4.2291,-4.1481,-4.1473,-4.12,-4.0527,-4.1123,-4.1508,-4.1508,-4.2335,-4.2797,-4.2797,-4.3008,-4.3412,-4.4028,-4.4028,-4.3701,-4.3085,-4.2893,-4.2912,-4.3085,-4.2874,-4.2912,-4.3104,-4.3104,-4.3451,-4.4028,-4.4028,-4.4528,-4.5297,-4.5297,-4.5413,-4.5586,0.0,0.0,0.0,0.0,0.0,0.0,0.0,0.0,0.0,0.0,0.0,0.0,0.0,0.0,0.0,0.0,0.0,0.0,0.0,0.0,-3.1596,-3.1517,-3.1517,-3.1614,-3.18,-3.18,-3.18,-3.1837,-3.2001,-3.2179,-3.2283,-3.2318,-3.2504,-3.2798,-3.2798,-3.3001,-3.3379,-3.357,-3.3752,-3.3947,-3.4148,0.0,0.0,0.0,0.0,0.0,0.0,0.0,0.0,0.0,0.0,0.0,0.0,0.0,-3.2844,-3.4539,-3.5032,-3.5049,-3.5114,-3.5146,-3.5162,-3.5281,-3.5515,-3.5631,-3.5388,-3.5489,-3.5604,-3.5449,-3.5477,-3.5483,-3.5355,-3.6036,-3.7139,-3.882,-3.9183,-3.9565,-4.0368,-4.1227,-4.203,-4.2717,-4.2852,-4.2565,-4.1759,-4.1754,-4.1443,-4.0662,-4.0585,-4.0566,-4.0489,-4.0546,-4.0585,-4.0585,-4.145,-4.1893,-4.1893,-4.2701,-4.3124,-4.3181,-4.3181,-4.3162,-4.3066,-4.2258,-4.2335,-4.3047,-4.2239,-4.2354,-4.3104,-4.3104,-4.3124,-4.3181,-4.3181,-4.3682,-4.4393,-4.4393,-4.4913,-4.5586,0.0,0.0,0.0,0.0,0.0,0.0,0.0,0.0,0.0,0.0,0.0,0.0,0.0,0.0,0.0,0.0,0.0,0.0,0.0,0.0,-3.1538,-3.1517,-3.1517,-3.1555,-3.1614,-3.1634,-3.1671,-3.1671,-3.1819,-3.2001,-3.2179,-3.2179,-3.2352,-3.2702,-3.2702,-3.2858,-3.3118,-3.3189,-3.3382,-3.3671,-3.3733,-3.3884,0.0,0.0,0.0,0.0,0.0,0.0,0.0,0.0,-2.9531,-2.987,0.0,0.0,0.0,0.0,-3.4889,-3.5069,-3.5102,-3.5168,-3.5216,-3.5187,-3.5311,0.0,0.0,-3.5402,-3.5451,-3.5405,-3.5386,-3.5671,-3.6629,-3.7481,-3.8266,-3.8897,-3.9451,-3.9928,-4.0253,-4.0998,-4.1648,-4.2011,-4.2049,-4.176,-4.1025,-4.0946,-4.0825,-4.0508,-4.0489,-4.0489,-4.0489,-4.0489,-4.0489,-4.0489,-4.0816,-4.0989,-4.0989,-4.1316,-4.147,-4.1489,-4.2027,-4.2008,-4.147,-4.1143,-4.1162,-4.145,-4.1123,-4.1181,-4.147,-4.147,-4.1797,-4.2354,-4.2893,-4.3297,-4.3605,-4.4124,-4.4509,-4.4874,0.0,0.0,0.0,0.0,0.0,0.0,0.0,0.0,0.0,0.0,0.0,0.0,0.0,0.0,0.0,0.0,0.0,0.0,0.0,-3.1462,-3.1423,-3.1402,-3.1402,-3.1402,-3.1402,-3.1483,-3.1542,-3.1559,-3.1651,-3.18,-3.1965,-3.1965,-3.2126,-3.242,-3.242,-3.2519,-3.2713,-3.2791,-3.2996,-3.3255,-3.3429,-3.3643,0.0,0.0,0.0,0.0,0.0,0.0,0.0,0.0,0.0,0.0,0.0,0.0,0.0,0.0,-3.463,-3.4832,-3.4908,-3.5018,-3.5069,-3.5053,0.0,0.0,-3.5171,-3.5266,-3.5321,-3.5268,-3.5273,-3.5764,-3.7405,-3.775,-3.798,-3.8495,-3.8648,-3.8801,-3.9069,-3.9794,-4.0424,-4.0785,-4.1034,-4.1031,-4.0559,-4.0499,-4.0495,-4.0489,-4.0489,-4.0489,-4.0489,-4.0489,-4.0489,-4.0489,-4.0489,-4.0489,-4.0489,-4.0489,-4.0489,-4.0508,-4.1104,-4.1085,-4.0489,-4.0489,-4.0489,-4.0489,-4.0489,-4.0489,-4.0489,-4.0489,-4.0854,-4.145,-4.2047,-4.245,-4.2758,-4.3316,-4.3682,-4.4047,0.0,0.0,0.0,0.0,0.0,0.0,0.0,0.0,0.0,0.0,0.0,0.0,0.0,0.0,0.0,0.0,0.0,0.0,0.0,-3.1295,-3.1274,-3.119,-3.119,-3.119,-3.119,-3.1274,-3.1368,-3.1517,-3.1517,-3.1538,-3.1617,-3.1617,-3.1671,-3.18,-3.18,-3.191,-3.2108,-3.23,-3.2519,-3.2766,-3.3284,-3.3486,-3.3542,0.0,0.0,0.0,0.0,0.0,0.0,0.0,-2.9407,0.0,0.0,0.0,0.0,0.0,-3.4197,-3.4269,-3.4517,-3.4602,-3.4647,-3.485,-3.4908,-3.4908,-3.4908,-3.5054,-3.516,-3.5038,-3.5111,-3.5713,-3.7387,-3.6337,-3.5763,-3.7426,-3.6298,-3.5515,-3.6394,-3.7196,-3.8035,-3.8986,-3.9863,-4.0432,-4.0502,-4.0511,-4.0489,-4.0489,-4.0489,-4.0489,-4.0489,-4.0489,-4.0489,-4.0489,-4.0489,-4.0489,-4.0489,-4.0489,-4.0489,-4.0489,-4.0489,-4.0489,-4.0489,-4.0489,-4.0489,-4.0489,-4.0489,-4.0489,-4.0489,-4.0489,-4.0489,-4.0489,-4.0489,-4.1027,-4.1797,-4.1797,-4.2354,-4.3201,0.0,0.0,0.0,0.0,0.0,0.0,0.0,0.0,0.0,0.0,0.0,0.0,0.0,0.0,0.0,0.0,0.0,0.0,0.0,-3.0723,-3.0861,-3.119,-3.119,-3.119,-3.119,-3.123,-3.1308,-3.1517,-3.1517,-3.1538,-3.1617,-3.1617,-3.1671,-3.18,-3.18,-3.1819,-3.1893,-3.1948,-3.2266,-3.2763,-3.2952,-3.3284,-3.3734,0.0,0.0,0.0,0.0,0.0,0.0,0.0,0.0,0.0,0.0,0.0,0.0,-3.3733,-3.434,-3.4495,-3.458,-3.471,-3.4831,-3.4889,-3.4908,-3.4908,-3.4908,-3.4982,-3.5073,-3.5129,-3.5658,-3.6434,-3.7502,-3.7292,-3.712,-3.7617,-3.6814,-3.6203,-3.6453,-3.7213,-3.8106,-3.8999,-3.9915,-4.0482,-4.0511,-4.0508,-4.0489,-4.0489,-4.0489,-4.0489,-4.0489,-4.0489,-4.0489,-4.0489,-4.0489,-4.0489,-4.0489,-4.0489,-4.0489,-4.0489,-4.0489,-4.0489,-4.0489,-4.0489,-4.0489,-4.0489,-4.0489,-4.0489,-4.0489,-4.0489,-4.0489,-4.0489,-4.0489,-4.0662,-4.095,-4.1566,-4.197,-4.2316,0.0,0.0,0.0,0.0,0.0,0.0,0.0,0.0,0.0,0.0,0.0,0.0,0.0,0.0,0.0,0.0,0.0,0.0,0.0,0.0,-3.0435,-3.0878,-3.0918,-3.1015,-3.119,-3.119,-3.1269,-3.1402,-3.1402,-3.1423,-3.1504,-3.1504,-3.1579,-3.1709,-3.1709,-3.1746,-3.18,-3.18,-3.2109,-3.2619,-3.2749,-3.3105,-3.3606,0.0,0.0,0.0,0.0,0.0,0.0,0.0,0.0,0.0,0.0,0.0,0.0,-3.3807,-3.4316,-3.4473,-3.4561,-3.4689,-3.4811,-3.4889,-3.4908,-3.4908,-3.4927,-3.4964,-3.502,-3.5147,-3.56,-3.6339,-3.7483,-3.7445,-3.7445,-3.8113,-3.7538,-3.7022,-3.7022,-3.7494,-3.8024,-3.8553,-3.9429,-3.998,-4.0027,-4.0296,-4.0489,-4.0489,-4.0489,-4.0489,-4.0489,-4.0489,-4.0489,-4.0489,-4.0489,-4.0489,-4.0489,-4.0489,-4.0489,-4.0489,-4.0489,-4.0489,-4.0489,-4.0489,-4.0489,-4.0489,-4.0489,-4.0489,-4.0489,-4.0489,-4.0489,-4.0489,-4.0489,-4.0489,-4.0546,-4.1085,-4.1277,-4.1412,0.0,0.0,0.0,0.0,0.0,0.0,0.0,0.0,0.0,0.0,0.0,0.0,0.0,0.0,0.0,0.0,0.0,0.0,0.0,0.0,-2.9968,-3.0435,-3.0477,-3.0699,-3.1151,-3.119,-3.119,-3.119,-3.119,-3.1213,-3.1295,-3.1295,-3.1411,-3.1617,-3.1617,-3.1671,-3.18,-3.18,-3.202,-3.2369,-3.2684,-3.3032,-3.3379,-3.3762,0.0,0.0,0.0,0.0,0.0,0.0,0.0,0.0,0.0,0.0,-3.3157,-3.3956,-3.4221,-3.4269,-3.4517,-3.4623,-3.4647,-3.4831,-3.4908,-3.4927,-3.4983,-3.5001,-3.502,-3.5111,-3.5164,-3.5694,-3.7311,-3.6986,-3.7024,-3.8629,-3.8282,-3.78,-3.78,-3.7945,-3.8016,-3.8024,-3.8792,-3.9346,-3.9392,-4.0065,-4.0489,-4.0489,-4.0489,-4.0489,-4.0489,-4.0489,-4.0489,-4.0489,-4.0489,-4.0489,-4.0489,-4.0489,-4.0489,-4.0489,-4.0489,-4.0489,-4.0489,-4.0489,-4.0489,-4.0489,-4.0489,-4.0489,-4.0489,-4.0489,-4.0489,-4.0489,-4.0489,-4.0489,-4.0489,-4.0489,-4.0489,-4.0604,0.0,0.0,0.0,0.0,0.0,0.0,0.0,0.0,0.0,0.0,0.0,0.0,0.0,0.0,0.0,0.0,0.0,0.0,0.0,0.0,-2.9483,-2.9924,-3.0309,-3.0559,-3.0658,-3.1015,-3.119,-3.119,-3.119,-3.1213,-3.1295,-3.1295,-3.1411,-3.1617,-3.1617,-3.1671,-3.18,-3.18,-3.2144,-3.2716,-3.2763,-3.3154,-3.3707,-3.3788,-3.3842,0.0,0.0,0.0,0.0,0.0,0.0,0.0,-3.2934,-3.299,-3.3157,-3.3956,-3.4269,-3.4386,-3.4561,-3.4666,-3.4769,-3.487,-3.4908,-3.4889,-3.4927,-3.5001,-3.5092,-3.5164,-3.5179,-3.5518,-3.6585,-3.6623,-3.6833,-3.7898,-3.7898,-3.7816,-3.7868,-3.8473,-3.8927,-3.8923,-3.9688,-4.0239,-4.0239,-4.0392,-4.0489,-4.0489,-4.0489,-4.0489,-4.0489,-4.0489,-4.0489,-4.0489,-4.0489,-4.0489,-4.0489,-4.0489,-4.0489,-4.0489,-4.0489,-4.0489,-4.0489,-4.0489,-4.0489,-4.0489,-4.0489,-4.0489,-4.0489,-4.0489,-4.0489,-4.0489,-4.0489,-4.0489,-4.0489,-4.0489,-4.0489,-4.0527,0.0,0.0,0.0,0.0,0.0,0.0,0.0,0.0,0.0,0.0,0.0,0.0,0.0,0.0,0.0,0.0,0.0,0.0,0.0,0.0,0.0,0.0,-2.9908,-3.0267,-3.0518,-3.074,-3.0958,-3.119,-3.119,-3.1213,-3.1295,-3.1295,-3.1411,-3.1617,-3.1617,-3.1671,-3.18,-3.18,-3.2179,-3.2795,-3.2795,-3.3196,-3.3807,-3.3807,-3.3815,-3.3842,-3.3842,0.0,0.0,0.0,0.0,0.0,0.0,0.0,-3.3519,-3.4043,-3.4293,-3.4427,-3.4561,-3.4687,-3.4829,-3.4889,-3.4908,-3.4908,-3.4945,-3.502,-3.5129,-3.52,-3.5196,-3.5477,-3.6356,-3.6491,-3.6927,-3.8221,-3.841,-3.8597,-3.9087,-3.9211,-3.9246,-3.9246,-3.9662,-3.9931,-3.9931,-4.0258,-4.0489,-4.0489,-4.0489,-4.0489,-4.0489,-4.0123,-3.9931,-3.9931,-3.9508,-3.9296,-3.9296,-3.9296,-3.9296,-3.9315,-3.9685,-4.0076,-4.0444,-4.0492,-4.0489,-4.0489,-4.0489,-4.0489,-4.0489,-4.0489,-4.0489,-4.0489,-4.0489,-4.0489,-4.0489,-4.0489,-4.0489,-4.0489,0.0,0.0,0.0,0.0,0.0,0.0,0.0,0.0,0.0,0.0,0.0,0.0,0.0,0.0,0.0,0.0,0.0,0.0,0.0,0.0,0.0,0.0,-2.9438,-2.9924,-3.0351,-3.0477,-3.074,-3.119,-3.119,-3.1213,-3.1295,-3.1295,-3.1411,-3.1617,-3.1617,-3.1671,-3.18,-3.18,-3.2144,-3.2699,-3.2699,-3.3075,-3.3625,-3.3625,-3.3652,-3.368,-3.368,-3.3652,-3.3671,-3.3671,0.0,0.0,0.0,0.0,-3.3921,-3.4099,-3.4269,-3.4427,-3.4561,-3.4687,-3.4788,-3.4831,-3.4812,-3.4812,-3.4983,-3.502,-3.5075,-3.5183,-3.5196,-3.542,-3.6146,-3.6413,-3.6984,-3.8429,-3.8922,-3.9377,-4.0175,-3.9838,-3.9508,-3.9508,-3.9508,-3.9508,-3.9508,-4.0104,-4.0489,-4.0489,-4.0489,-4.0431,-4.0296,-3.9662,-3.9219,-3.9084,-3.8373,-3.8007,-3.8007,-3.8007,-3.7988,-3.7993,-3.8658,-3.9394,-4.0185,-4.023,-4.0338,-4.0508,-4.0489,-4.0489,-4.0489,-4.0489,-4.0489,-4.0489,-4.0489,-4.0489,-4.0489,-4.0489,-4.0489,-4.0489,0.0,0.0,0.0,0.0,0.0,0.0,0.0,0.0,0.0,0.0,0.0,0.0,0.0,0.0,0.0,0.0,0.0,0.0,-2.8411,0.0,0.0,-2.8493,-2.8967,-2.9393,-2.9881,-3.0309,-3.074,-3.119,-3.119,-3.1213,-3.1295,-3.1295,-3.1411,-3.1617,-3.1617,-3.1671,-3.18,-3.18,-3.202,-3.2386,-3.2386,-3.2586,-3.2921,-3.2921,-3.3032,-3.3202,-3.3202,-3.3339,-3.352,-3.352,-3.3549,0.0,0.0,0.0,-3.3895,-3.3921,-3.4173,-3.4427,-3.4561,-3.4623,-3.4645,-3.4645,-3.4454,-3.4413,-3.4889,-3.487,-3.4851,-3.5147,-3.5196,-3.5248,-3.5362,-3.5993,-3.6602,-3.6891,-3.8153,-3.9183,-3.9435,-3.9969,-4.0335,-4.0335,-4.0335,-4.0335,-4.0335,-4.0431,-4.0489,-4.0489,-4.0489,-4.02,-3.9488,-3.9354,-3.895,-3.82,-3.8065,-3.8007,-3.8007,-3.8007,-3.7973,-3.7905,-3.8012,-3.8495,-3.9265,-3.9282,-3.972,-4.0499,-4.0492,-4.0489,-4.0489,-4.0489,-4.0489,-4.0489,-4.0489,-4.0489,-4.0489,-4.0489,-4.0489,-4.0489,0.0,0.0,0.0,0.0,0.0,0.0,0.0,0.0,0.0,0.0,0.0,0.0,0.0,0.0,0.0,-2.8411,-2.8411,-2.8411,-2.8411,-2.8411,-2.8411,-2.8411,-2.8873,-2.9303,-2.9793,-3.0267,-3.074,-3.119,-3.119,-3.1269,-3.1406,-3.1406,-3.1483,-3.1617,-3.1671,-3.1746,-3.18,-3.18,-3.1984,-3.2283,-3.2283,-3.2504,-3.2795,-3.2939,-3.3001,-3.3111,-3.3238,-3.3268,-3.3286,-3.3286,-3.3256,-3.3238,-3.3357,0.0,0.0,0.0,-3.3921,-3.4148,-3.4316,-3.4381,-3.4381,-3.4381,-3.4293,-3.4274,-3.4548,-3.4529,-3.4529,-3.4753,-3.4926,-3.5072,-3.5193,-3.5515,-3.5952,-3.6495,-3.7217,-3.807,-3.9112,-3.9585,-3.9988,-4.045,-4.0489,-4.0489,-4.0489,-4.0489,-4.0489,-4.0489,-4.0065,-3.9662,-3.9315,-3.8373,-3.768,-3.7276,-3.6834,-3.6603,-3.6603,-3.6603,-3.6786,-3.7168,-3.7121,-3.7529,-3.8316,-3.8353,-3.9133,-4.0449,-4.0447,-4.0427,-4.0427,-4.0427,-4.0427,-4.0427,-4.0427,-4.0463,-4.0495,-4.0495,-4.0492,-4.0489,0.0,0.0,0.0,0.0,0.0,0.0,0.0,0.0,0.0,0.0,0.0,0.0,0.0,0.0,0.0,0.0,-2.8411,-2.8411,-2.8411,-2.8411,-2.8411,-2.8411,-2.8748,-2.9136,-2.9617,-3.0097,-3.0559,-3.1015,-3.1173,-3.1308,-3.1462,-3.15,-3.1559,-3.1617,-3.1746,-3.18,-3.18,-3.18,-3.1965,-3.2179,-3.2179,-3.2335,-3.2651,-3.2798,-3.2894,-3.2988,-3.3147,-3.3135,-3.3055,-3.3055,-3.2961,-3.2948,-3.3086,-3.319,0.0,0.0,0.0,-3.3947,-3.4074,-3.4099,-3.4099,-3.4099,-3.4049,-3.4055,-3.4242,-3.4242,-3.4265,-3.4423,-3.4653,-3.487,-3.5089,-3.5176,-3.5436,-3.6154,-3.6469,-3.7057,-3.837,-3.88,-3.9258,-4.0085,-4.02,-4.0277,-4.0469,-4.0489,-4.0412,-4.02,-3.9642,-3.9104,-3.8661,-3.7411,-3.6622,-3.6411,-3.5815,-3.5493,-3.5493,-3.546,-3.5724,-3.6278,-3.6192,-3.6599,-3.7406,-3.746,-3.8297,-3.9729,-3.9976,-4.0204,-4.0398,-4.0398,-4.0398,-4.0398,-4.0398,-4.0432,-4.0466,-4.0466,-4.0463,-4.0476,0.0,0.0,0.0,0.0,0.0,0.0,0.0,0.0,0.0,0.0,0.0,0.0,-2.8411,-2.8411,-2.8411,-2.8411,-2.8411,-2.8411,-2.8411,-2.8411,-2.8411,-2.8411,-2.8396,0.0,-2.912,-2.9617,-3.0054,-3.0518,-3.1061,-3.1295,-3.1295,-3.1504,-3.1579,-3.1617,-3.1746,-3.18,-3.18,-3.18,-3.18,-3.1837,-3.1837,-3.1929,-3.2144,-3.2144,-3.2335,-3.2639,-3.2639,-3.277,-3.2916,-3.2916,-3.2916,-3.2916,-3.2916,-3.3135,-3.3393,0.0,0.0,0.0,-3.3842,-3.3815,-3.3815,-3.3815,-3.3633,-3.3587,-3.4099,-3.4111,-3.4105,-3.4334,-3.4486,-3.4593,-3.487,-3.5072,-3.5245,-3.5353,-3.6051,-3.6654,-3.6814,-3.7536,-3.8392,-3.9258,-3.9354,-3.9662,-4.0431,-4.0489,-4.0181,-3.9411,-3.9315,-3.8584,-3.693,-3.6757,-3.6353,-3.5603,-3.5512,-3.5493,-3.5493,-3.5364,-3.5339,-3.5369,-3.5302,-3.5725,-3.6566,-3.6585,-3.7024,-3.7902,-3.8791,-3.9648,-4.0398,-4.0398,-4.0398,-4.0398,-4.0398,-4.0415,-4.0415,-4.0415,-4.0415,-4.0415,0.0,0.0,0.0,0.0,0.0,0.0,0.0,0.0,0.0,0.0,0.0,0.0,0.0,-2.8411,-2.8411,-2.8411,-2.8411,-2.8411,-2.8411,-2.8411,-2.8411,-2.8411,-2.87,-2.892,-2.909,-2.9572,-2.9881,0.0,-3.041,-3.074,-3.0965,-3.1235,-3.1483,-3.1746,-3.18,-3.18,-3.18,-3.18,-3.18,-3.18,-3.1929,-3.2054,-3.2108,-3.2335,-3.2506,-3.2606,-3.2737,-3.2852,-3.2916,-3.2916,-3.2916,-3.2916,-3.2916,-3.3011,-3.3183,-3.3292,-3.3422,-3.3549,-3.3549,-3.3549,-3.3549,-3.3549,-3.3481,-3.3481,-3.3707,-3.3734,-3.3788,-3.391,-3.4136,-3.4344,-3.4435,-3.4753,-3.5054,-3.5209,-3.5538,-3.5967,-3.6539,-3.6944,-3.7488,-3.8354,-3.8469,-3.8796,-3.9642,-3.9719,-3.9604,-3.9315,-3.8777,-3.795,-3.6757,-3.6219,-3.5815,-3.5512,-3.5493,-3.5493,-3.5446,-3.535,-3.5304,-3.5312,-3.5226,-3.5362,-3.5668,-3.5668,-3.6126,-3.6948,-3.7288,-3.8223,-3.9543,-4.0117,-4.0328,-4.0328,-4.0328,-4.0345,-4.0344,-4.0344,-4.0362,-4.0398,0.0,0.0,0.0,0.0,0.0,0.0,0.0,0.0,0.0,0.0,0.0,0.0,0.0,0.0,-2.8411,-2.8411,-2.8411,-2.8411,-2.8411,-2.8411,-2.8411,-2.8411,-2.87,-2.8873,-2.8873,-2.9303,-2.9617,0.0,0.0,0.0,-3.0942,-3.1134,-3.1445,-3.18,-3.18,-3.18,-3.18,-3.18,-3.1837,-3.191,-3.2054,-3.2179,-3.2249,-3.2206,-3.2249,-3.2278,-3.2139,-3.2259,-3.2491,-3.2491,-3.267,-3.2916,-3.2916,-3.3028,-3.3122,-3.3292,-3.3322,-3.3352,-3.3382,-3.3393,-3.3393,-3.3393,-3.3393,-3.3393,-3.3452,-3.3538,-3.3577,-3.3643,-3.3842,-3.4074,-3.4173,-3.4458,-3.4753,-3.5054,-3.5155,-3.5446,-3.6067,-3.6238,-3.6622,-3.7469,-3.7565,-3.7911,-3.8777,-3.8854,-3.8738,-3.845,-3.7892,-3.7199,-3.6353,-3.5795,-3.5493,-3.546,-3.546,-3.5432,-3.5369,-3.532,-3.5289,-3.5261,-3.5226,-3.5209,-3.5209,-3.5209,-3.5515,-3.6088,-3.6375,-3.7464,-3.9049,-3.9623,-4.0043,-4.031,-4.031,-4.031,-4.0308,-4.0308,-4.0345,-4.0363,0.0,0.0,0.0,0.0,0.0,0.0,0.0,0.0,0.0,-2.8779,0.0,0.0,0.0,0.0,0.0,-2.8411,-2.8411,-2.8411,-2.8411,-2.8411,-2.8411,-2.8411,-2.8411,-2.8411,-2.8411,-2.8873,-2.9212,0.0,0.0,0.0,0.0,0.0,-3.1466,-3.18,-3.18,-3.18,-3.18,-3.18,-3.1929,-3.2108,-3.2108,-3.2301,-3.2517,-3.1721,-3.1533,-3.1581,-3.0796,-3.1011,-3.1671,-3.1689,-3.2206,-3.288,-3.2979,-3.3122,-3.3292,-3.3382,-3.3393,-3.3393,0.0,0.0,0.0,-3.3393,-3.3393,-3.3393,-3.3393,-3.3452,-3.352,-3.3577,-3.3643,-3.3807,-3.4124,-3.4197,-3.4344,-3.4812,-3.4944,-3.5069,-3.5266,-3.5412,-3.5782,-3.657,-3.6647,-3.7007,-3.7873,-3.7969,-3.7603,-3.6757,-3.6699,-3.6353,-3.5532,-3.5493,-3.546,-3.5412,-3.5412,-3.5369,-3.5312,-3.5312,-3.5261,-3.5209,-3.5209,-3.5209,-3.5209,-3.5209,-3.5209,-3.5248,-3.6088,-3.7406,-3.8935,-3.8973,-3.9508,-4.0272,-4.0291,-4.031,-4.031,-4.031,-4.031,-4.031,0.0,0.0,0.0,0.0,0.0,0.0,0.0,0.0,0.0,0.0,0.0,0.0,-2.8411,-2.8411,-2.8411,-2.8411,-2.8411,-2.8411,-2.8411,-2.8411,-2.8411,-2.8411,-2.8525,-2.8605,-2.8605,-2.892,-2.9121,0.0,0.0,0.0,0.0,0.0,0.0,0.0,-3.2018,-3.2073,-3.2161,-3.2073,-3.2108,-3.2266,-3.2404,-3.2539,-3.2517,-3.1866,-3.1658,-3.1581,-3.0796,-3.0654,-3.0921,-3.1492,-3.1849,-3.2148,-3.2845,-3.3183,-3.3292,-3.3382,-3.3393,-3.3393,-3.3393,0.0,0.0,0.0,0.0,0.0,-3.3393,-3.3452,-3.3509,-3.352,-3.3633,-3.3726,-3.3815,-3.4049,-3.4298,-3.4569,-3.4794,-3.5015,-3.5258,-3.5335,-3.5441,-3.5671,-3.5691,-3.6051,-3.6964,-3.706,-3.6959,-3.6719,-3.6699,-3.6353,-3.5532,-3.5493,-3.546,-3.5412,-3.5412,-3.5369,-3.5312,-3.5312,-3.5261,-3.5209,-3.5209,-3.5209,-3.5209,-3.5209,-3.5209,-3.5209,-3.5458,-3.6184,-3.7292,-3.8495,-3.9145,-3.9431,-4.0062,-4.031,-4.031,-4.031,-4.031,-4.031,0.0,0.0,0.0,0.0,0.0,0.0,0.0,0.0,0.0,0.0,0.0,0.0,-2.8396,-2.8411,-2.8411,-2.8411,-2.8411,-2.8411,-2.8411,-2.8493,-2.8525,-2.8525,-2.8748,-2.8889,-2.8889,-2.9029,0.0,0.0,0.0,0.0,0.0,0.0,0.0,0.0,0.0,-3.1802,-3.1932,-3.1841,-3.2038,-3.242,-3.2555,-3.2639,-3.2613,-3.1586,-3.1207,-3.1046,-2.994,-2.9762,-3.0118,-3.0594,-3.1261,-3.2032,-3.2901,-3.3244,-3.3352,-3.3411,-3.3393,-3.3393,-3.3393,-3.3393,-3.3393,-3.3393,0.0,0.0,-3.3393,-3.3422,-3.3481,-3.3491,-3.3549,-3.3633,-3.3643,-3.3842,-3.4105,-3.442,-3.4615,-3.487,-3.5261,-3.5304,-3.5315,-3.5315,-3.5315,-3.5507,-3.6055,-3.6113,-3.6128,-3.6123,-3.6138,-3.596,-3.5512,-3.5446,-3.5398,-3.5364,-3.5369,-3.5324,-3.5261,-3.5261,-3.5226,-3.5209,-3.5212,-3.5212,-3.5209,-3.5176,-3.516,-3.5196,-3.5196,-3.5482,-3.6018,-3.7389,-3.8381,-3.9049,-3.9565,-3.9986,-4.031,-4.031,-4.031,-4.031,0.0,0.0,0.0,0.0,0.0,0.0,0.0,0.0,0.0,0.0,-2.9259,-2.8905,-2.8493,-2.8396,-2.8411,-2.8411,-2.8411,-2.8396,-2.8444,-2.8605,-2.8732,-2.8732,-2.8982,-2.9121,-2.9121,-2.9167,0.0,0.0,0.0,0.0,0.0,0.0,0.0,0.0,0.0,-3.1295,-3.1435,-3.1435,-3.1826,-3.2431,-3.2519,-3.2619,-3.2549,-3.1052,-3.0457,-3.019,-2.8744,-2.8673,-2.9326,-2.9572,-3.0743,-3.2245,-3.3057,-3.3352,-3.3393,-3.3393,-3.3393,-3.3393,-3.3393,-3.3393,-3.3393,-3.3393,-3.3393,0.0,-3.3393,-3.3393,-3.3422,-3.3481,-3.3491,-3.3538,-3.3577,-3.3671,-3.3876,-3.4307,-3.4442,-3.4675,-3.5209,-3.5289,-3.53,-3.53,-3.53,-3.53,-3.53,-3.53,-3.53,-3.53,-3.5364,-3.5412,-3.546,-3.5364,-3.53,-3.53,-3.5308,-3.5261,-3.5209,-3.5209,-3.5209,-3.5193,-3.5198,-3.5198,-3.5193,-3.5127,-3.5129,-3.52,-3.52,-3.5147,-3.515,-3.5999,-3.7274,-3.8707,-3.882,-3.9393,-4.0157,-4.0157,-4.0234,-4.031,-2.9946,0.0,0.0,0.0,0.0,0.0,0.0,0.0,0.0,-2.9515,-2.9059,-2.8732,-2.8653,-2.8493,-2.8411,-2.8411,-2.8411,-2.8493,-2.8653,-2.87,-2.8795,-2.9029,-2.9289,-2.9425,-2.9425,-2.9621,0.0,0.0,0.0,0.0,0.0,0.0,0.0,0.0,0.0,-3.1452,-3.164,-3.164,-3.1531,-3.1438,-3.2089,-3.1999,-3.1379,-3.0729,-3.0148,-2.9561,-2.8613,-2.8407,-2.8784,-3.0122,-3.124,-3.2245,-3.3057,-3.3352,-3.3393,-3.3393,-3.3393,-3.3393,-3.3393,-3.3393,-3.3393,-3.3393,-3.3393,0.0,-3.3393,-3.3393,-3.3393,-3.3422,-3.3452,-3.3491,-3.3538,-3.3753,-3.3998,-3.413,-3.4307,-3.4614,-3.5141,-3.5226,-3.5207,-3.5207,-3.5207,-3.5242,-3.5293,-3.5308,-3.5289,-3.53,-3.5315,-3.533,-3.533,-3.5315,-3.53,-3.5308,-3.5293,-3.5261,-3.5209,-3.5209,-3.5212,-3.5198,-3.52,-3.5164,-3.5127,-3.511,-3.5111,-3.5129,-3.5129,-3.511,-3.5111,-3.53,-3.5983,-3.6991,-3.7675,-3.8495,-3.926,-3.926,-3.9699,-4.031,-2.9902,0.0,0.0,0.0,0.0,0.0,0.0,0.0,-2.971,-2.971,-2.9335,-2.9059,-2.8936,-2.8811,-2.8763,-2.8763,-2.8763,-2.8811,-2.8889,-2.9013,-2.9152,-2.9305,-2.9576,-2.971,-2.971,-2.9814,-2.9918,0.0,0.0,0.0,0.0,0.0,0.0,0.0,0.0,-3.0785,-3.0548,-3.0548,-3.0238,-2.9863,-3.1046,-3.1182,-3.0589,-2.9828,-2.9329,-2.8965,-2.833,-2.8396,-2.8969,-3.0177,-3.1148,-3.2026,-3.3021,-3.3382,-3.3393,-3.3393,-3.3393,-3.3393,-3.3393,-3.3393,-3.3393,-3.3393,-3.3393,0.0,0.0,-3.3393,-3.3393,-3.3393,-3.3422,-3.3452,-3.3452,-3.3587,-3.3788,-3.3935,-3.4093,-3.4375,-3.4945,-3.5037,-3.5089,-3.5193,-3.5209,-3.5209,-3.5261,-3.5261,-3.5258,-3.5289,-3.5254,-3.527,-3.53,-3.527,-3.5273,-3.5312,-3.5261,-3.5226,-3.5209,-3.5212,-3.5198,-3.52,-3.5129,-3.5092,-3.5092,-3.502,-3.502,-3.5057,-3.5057,-3.502,-3.5001,-3.5075,-3.534,-3.5778,-3.6687,-3.758,-3.8343,-3.8343,-3.8629,-3.9011,-2.9946,0.0,0.0,0.0,0.0,0.0,0.0,0.0,-2.9918,-2.9918,-2.9665,-2.9425,-2.9213,-2.9121,-2.9075,-2.9075,-2.9075,-2.9121,-2.9167,-2.938,-2.9451,-2.9367,-2.956,-2.9708,-2.9724,-2.9724,-2.9816,0.0,0.0,0.0,0.0,0.0,0.0,0.0,0.0,-2.9897,-2.9218,-2.9218,-2.8843,-2.8398,-2.9672,-2.9988,-2.9656,-2.8882,-2.8519,-2.839,-2.8141,-2.8581,-2.936,-3.0309,-3.11,-3.19,-3.3033,-3.3393,-3.3393,-3.3393,-3.3393,-3.3393,-3.3393,-3.3393,-3.3393,-3.3393,-3.3393,-3.3393,0.0,0.0,0.0,-3.3393,-3.3393,-3.3393,-3.3393,-3.3452,-3.353,-3.3707,-3.3831,-3.408,-3.4588,-3.4733,-3.4908,-3.5157,-3.5209,-3.5209,-3.5209,-3.5209,-3.5226,-3.5277,-3.5226,-3.5223,-3.5285,-3.5223,-3.5226,-3.5277,-3.5229,-3.5193,-3.5193,-3.5198,-3.5164,-3.5147,-3.5057,-3.502,-3.5057,-3.4945,-3.4927,-3.4983,-3.4983,-3.4945,-3.4908,-3.502,-3.5057,-3.5096,-3.5853,-3.6686,-3.7446,-3.7446,-3.7559,-3.7693,-3.0017,-2.9946,0.0,0.0,0.0,0.0,0.0,0.0,-2.9918,-2.9918,-2.9665,-2.947,-2.947,-2.9259,-2.9075,-2.9075,-2.9075,-2.9213,-2.9425,-2.947,-2.9331,-2.8893,-2.8903,-2.8962,-2.9121,-2.9121,-2.9456,-3.0189,0.0,0.0,0.0,0.0,0.0,0.0,-2.9533,-2.9152,-2.8489,-2.8489,-2.8248,-2.7853,-2.7849,-2.7975,-2.8203,-2.8416,-2.8188,-2.7805,-2.8443,-2.8947,-2.9512,-3.0962,-3.1763,-3.2267,-3.314,-3.3393,-3.3393,-3.3393,-3.3393,-3.3393,-3.3393,-3.3393,-3.3393,-3.3393,-3.3393,-3.3393,-3.3393,0.0,-3.3393,-3.3393,0.0,-3.3393,-3.3393,0.0,0.0,-3.352,-3.3549,-3.3671,-3.403,-3.4284,-3.4655,-3.5141,-3.5209,-3.5209,-3.5209,-3.5209,-3.5209,-3.5209,-3.5209,-3.519,-3.5207,-3.519,-3.5209,-3.5209,-3.5196,-3.52,-3.52,-3.5147,-3.5075,-3.502,-3.5001,-3.4964,-3.4927,-3.4908,-3.4889,-3.4908,-3.4908,-3.4908,-3.4908,-3.4927,-3.4945,-3.502,-3.517,-3.5775,-3.6554,-3.6554,-3.7047,-3.7693,-2.9989,-2.9902,-2.9918,0.0,0.0,0.0,0.0,0.0,-2.9918,-2.9918,-2.9814,-2.971,-2.971,-2.9637,-2.9547,-2.9547,-2.9547,-2.9637,-2.971,-2.971,-2.9669,-2.9507,-2.9491,-2.9339,-2.9058,-2.9058,-2.9271,-2.9683,-2.9708,0.0,0.0,0.0,0.0,0.0,-2.8986,-2.8406,-2.7765,-2.7802,-2.7481,-2.6939,-2.692,-2.6991,-2.7147,-2.7384,-2.7407,-2.7425,-2.8025,-2.8853,-2.9885,-3.0981,-3.1876,-3.2649,-3.3225,-3.3393,-3.3393,-3.3393,-3.3393,-3.3393,-3.3393,-3.3393,-3.3393,-3.3393,-3.3393,-3.3393,-3.3393,-3.3393,-3.3393,-3.3393,0.0,0.0,0.0,0.0,0.0,0.0,-3.3452,-3.3549,-3.3858,-3.3975,-3.4269,-3.4889,-3.5107,-3.5209,-3.5209,-3.5209,-3.5209,-3.5209,-3.5209,-3.5209,-3.5209,-3.5209,-3.5209,-3.5209,-3.5198,-3.52,-3.52,-3.5092,-3.502,-3.5001,-3.4945,-3.4927,-3.4908,-3.4908,-3.4908,-3.4908,-3.4908,-3.4908,-3.4908,-3.4908,-3.4927,-3.4945,-3.4964,-3.5284,-3.5696,-3.5696,-3.594,-3.626,-2.9897,-2.9902,-2.9918,-2.9918,0.0,0.0,0.0,-2.9918,-2.9918,-2.9918,-2.9918,-2.9918,-2.9918,-2.9918,-2.9918,-2.9918,-2.9918,-2.9902,-2.9902,-2.9902,-2.9865,-2.9783,-2.974,-2.9538,-2.9149,-2.8952,-2.9091,-2.9642,0.0,0.0,0.0,0.0,0.0,0.0,-2.8329,-2.7736,-2.7038,-2.7111,-2.6831,-2.6382,-2.6468,-2.6572,-2.6623,-2.6674,-2.6994,-2.7432,-2.7928,-2.9008,-3.0274,-3.106,-3.1943,-3.2813,-3.3117,-3.3286,-3.3382,-3.3393,-3.3393,-3.3393,-3.3393,-3.3393,-3.3393,-3.3393,-3.3393,-3.3393,-3.3393,-3.3393,-3.3393,-3.3393,-3.3393,0.0,0.0,0.0,-3.3393,-3.3393,0.0,-3.3462,-3.3671,-3.3742,-3.4031,-3.4632,-3.4926,-3.5141,-3.5174,-3.5209,-3.5209,-3.5209,-3.5209,-3.5209,-3.5209,-3.5209,-3.5193,-3.5212,-3.5181,-3.5164,-3.5147,-3.502,-3.4964,-3.4964,-3.4927,-3.4908,-3.4908,-3.4908,-3.4908,-3.4908,-3.4908,-3.4908,-3.4908,-3.4908,-3.4908,-3.4908,-3.4927,-3.502,-3.5164,-3.5164,-3.5179,-3.5209,-2.9886,-2.9946,-2.9918,-2.9918,-2.9918,-2.9918,-2.9918,-2.9918,-2.9918,-2.9918,-2.9918,-2.9918,-2.9918,-2.9918,-2.9918,-2.9918,-2.9918,-2.9946,-2.9973,-2.9946,-2.968,-2.9173,-2.9049,-2.9132,-2.9272,-2.8603,-2.8973,-3.0452,0.0,0.0,0.0,0.0,0.0,0.0,-2.7408,-2.7028,-2.6329,-2.6467,-2.6519,-2.6485,-2.6589,-2.6623,-2.6691,-2.6691,-2.7148,-2.7875,-2.867,-2.9672,-3.068,-3.1347,-3.2074,-3.2702,-3.2734,-3.2993,-3.334,-3.3382,-3.3393,-3.3393,-3.3393,-3.3393,-3.3393,-3.3393,-3.3393,-3.3393,-3.3393,-3.3393,-3.3393,-3.3393,-3.3393,-3.3393,-3.3393,-3.3393,-3.3393,-3.3393,-3.3393,0.0,0.0,-3.3643,-3.3956,-3.4357,-3.4694,-3.5001,-3.5193,-3.5209,-3.5209,-3.5209,-3.5209,-3.5209,-3.5209,-3.5209,-3.5212,-3.52,-3.5147,-3.5075,-3.5001,-3.4945,-3.4889,-3.4889,-3.4908,-3.4908,-3.4908,-3.4908,-3.4908,-3.4908,-3.4908,-3.4908,-3.4908,-3.4908,-3.4908,-3.4908,-3.4964,-3.5038,-3.5092,-3.5092,-3.5126,-3.5209,-3.0011,-2.9973,-2.9946,-2.9902,-2.9918,-2.9918,-2.9918,-2.9918,-2.9918,-2.9918,-2.9918,-2.9918,-2.9918,-2.9918,-2.9902,-2.9946,-2.9989,-3.0017,-3.0103,-3.0103,-3.0048,-2.9955,-2.9929,-2.9741,-2.9393,-2.9128,-2.9244,-2.9781,-2.9533,0.0,0.0,0.0,0.0,0.0,-2.7164,-2.6684,-2.6434,-2.6554,-2.6554,-2.6622,-2.7163,-2.7418,-2.7435,-2.7383,-2.7535,-2.7958,-2.9262,-3.0097,-3.0679,-3.1345,-3.1967,-3.2419,-3.2283,-3.2537,-3.2898,-3.2866,-3.3024,-3.3196,-3.3196,-3.3196,-3.3196,-3.3196,-3.3196,-3.3226,-3.3322,-3.3322,-3.3352,-3.3411,-3.3393,-3.3393,-3.3393,-3.3393,-3.3393,-3.3393,-3.3393,-3.3393,0.0,-3.3502,-3.3698,-3.3956,-3.4334,-3.4614,-3.4734,-3.487,-3.4945,-3.4945,-3.5073,-3.5145,-3.5145,-3.5145,-3.5127,-3.5129,-3.5075,-3.502,-3.5001,-3.4927,-3.4908,-3.4908,-3.4908,-3.4908,-3.4908,-3.4908,-3.4908,-3.4908,-3.4908,-3.4908,-3.4908,-3.4908,-3.4908,-3.4889,-3.4927,-3.5001,-3.5111,-3.5147,-3.5179,-3.5209,-3.0097,-2.9891,-2.9723,-2.9853,-2.9918,-2.9918,-2.9918,-2.9902,-2.9902,-2.9902,-2.9946,-2.9989,-2.9946,-2.9989,-3.0033,-3.006,-3.006,-3.0103,-3.0274,-3.0248,-3.0274,-3.0443,-3.0401,-3.0228,-2.9814,-2.9549,-2.9549,-2.9798,-2.9549,-2.9648,0.0,0.0,0.0,0.0,-2.7289,-2.6789,-2.6554,-2.6606,-2.6792,-2.7095,-2.7908,-2.8195,-2.8193,-2.841,-2.8564,-2.8718,-2.9698,-3.034,-3.082,-3.1164,-3.1565,-3.1932,-3.1787,-3.2021,-3.2419,-3.2555,-3.2752,-3.2961,-3.3055,-3.3086,-3.3086,-3.3086,-3.3086,-3.3135,-3.3262,-3.331,-3.3322,-3.3382,-3.3393,-3.3393,-3.3393,-3.3393,-3.3393,-3.3393,-3.3393,-3.3393,0.0,-3.3422,-3.3502,-3.3671,-3.4043,-3.4307,-3.4423,-3.4572,-3.4653,-3.4614,-3.4773,-3.4851,-3.4831,-3.4831,-3.4793,-3.4773,-3.4831,-3.4812,-3.4711,-3.4771,-3.4752,-3.4651,-3.4651,-3.4711,-3.4791,-3.4791,-3.4812,-3.4908,-3.4908,-3.4908,-3.4908,-3.4908,-3.4908,-3.4889,-3.4927,-3.5001,-3.5075,-3.5147,-3.5179,-3.5193,-3.017,-2.9633,-2.9254,-2.9832,-2.9886,-2.987,-2.9902,-2.9946,-2.9973,-2.9902,-3.0076,-3.0146,-3.0017,-3.0103,-3.0189,-3.0189,-3.0189,-3.029,-3.0417,-3.029,-3.0316,-3.0468,-3.0443,-3.0443,-3.0526,-2.9831,-2.9814,-3.0526,-2.9814,-2.9466,0.0,0.0,0.0,0.0,-2.7645,-2.733,-2.6724,-2.6742,-2.7182,-2.7908,-2.8721,-2.8989,-2.8945,-2.9669,-3.001,-3.0121,-3.001,-3.0409,-3.0975,-3.0773,-3.0958,-3.1295,-3.1257,-3.149,-3.1861,-3.2369,-3.2555,-3.2654,-3.2975,-3.3086,-3.3086,-3.3086,-3.3086,-3.3117,-3.3262,-3.3292,-3.3292,-3.3382,-3.3411,-3.3393,-3.3393,-3.3393,-3.3393,-3.3393,-3.3393,-3.3393,-3.3393,-3.3393,-3.3422,-3.3481,-3.378,-3.4055,-3.4242,-3.4334,-3.4357,-3.4288,-3.4357,-3.4357,-3.4311,-3.4288,-3.4265,-3.42,-3.4464,-3.4461,-3.4197,-3.445,-3.445,-3.4197,-3.4197,-3.434,-3.4561,-3.4561,-3.4689,-3.487,-3.487,-3.487,-3.487,-3.487,-3.487,-3.4889,-3.4927,-3.4945,-3.4983,-3.5057,-3.5145,-3.5141,-2.8728,-2.896,-2.9337,-2.9989,-2.955,-2.9286,-2.9892,-2.9973,-3.0017,-3.0103,-3.0146,-3.0189,-3.0146,-3.0189,-3.0231,-3.0333,-3.0375,-3.0359,-3.0485,-3.0443,-3.0443,-3.0526,-3.0468,-3.0485,-3.0526,-3.0328,-3.0328,-3.0526,-3.0328,-3.0269,-3.0351,0.0,0.0,0.0,-2.8207,-2.8009,-2.833,-2.7739,-2.7977,-2.8755,-2.9516,-2.9728,-2.9703,-3.0443,-3.0706,-3.0667,-3.0667,-3.0744,-3.0895,-3.0733,-3.0855,-3.0975,-3.0757,-3.1044,-3.1432,-3.1452,-3.1896,-3.2386,-3.2488,-3.2719,-3.2948,-3.2948,-3.2948,-3.2979,-3.306,-3.3122,-3.3165,-3.3292,-3.3382,-3.3393,-3.3393,-3.3393,-3.3393,-3.3393,-3.3393,-3.3393,-3.3393,-3.3393,-3.3411,-3.3422,-3.3509,-3.3615,-3.3788,-3.3928,-3.403,-3.3986,-3.4154,-3.425,-3.4227,-3.4227,-3.4227,-3.4203,-3.4274,-3.4274,-3.4197,-3.4269,-3.4269,-3.4197,-3.4197,-3.4245,-3.4293,-3.4293,-3.434,-3.4367,-3.4367,-3.4498,-3.4668,-3.4476,-3.4498,-3.4668,-3.4476,-3.4439,-3.4508,-3.4773,-3.4889,-3.487,-2.9237,-2.9222,-2.9321,-2.9748,-2.9303,-2.9186,-2.9962,-3.0146,-3.0189,-3.0189,-3.0274,-3.0316,-3.0274,-3.0316,-3.0359,-3.0443,-3.0443,-3.0443,-3.0526,-3.0526,-3.0526,-3.0526,-3.0526,-3.0526,-3.0526,-3.0526,-3.0526,-3.0526,-3.0526,-3.0568,-3.0675,0.0,0.0,0.0,-2.9121,-2.889,-2.8975,-2.8873,-2.9076,-2.9533,-3.0277,-3.0487,0.0,-3.0784,-3.0855,-3.0733,-3.0733,-3.0773,-3.0773,-3.0651,-3.0651,-3.0692,-3.0568,-3.0716,-3.0982,-3.1083,-3.1414,-3.186,-3.2197,-3.2472,-3.2672,-3.2852,-3.2916,-3.2916,-3.2979,-3.3073,-3.3135,-3.3262,-3.3352,-3.3393,-3.3393,-3.3393,-3.3393,-3.3393,-3.3393,-3.3393,-3.3393,-3.3393,-3.3393,-3.3393,-3.3393,-3.3422,-3.3509,-3.3643,-3.3726,-3.3671,-3.3815,-3.3868,-3.3842,-3.3842,-3.3842,-3.3842,-3.3972,-3.3972,-3.3842,-3.3972,-3.3972,-3.3842,-3.3842,-3.3921,-3.4023,-3.4023,-3.4099,-3.4197,-3.4197,-3.4293,-3.4409,-3.4269,-3.4293,-3.4427,-3.4269,-3.4227,-3.426,-3.4394,-3.4548,-3.4632,-3.0361,-2.9782,-2.9345,-2.9436,-2.9338,-2.9493,-3.0133,-3.0316,-3.0375,-3.0231,-3.0401,-3.0518,-3.0549,-3.0634,-3.0692,-3.0791,-3.0808,-3.0758,-3.0634,-3.0659,-3.0626,-3.0526,-3.0526,-3.0526,-3.0526,-3.0526,-3.0526,-3.0526,-3.0526,-3.0568,0.0,0.0,0.0,0.0,-3.0104,-2.9736,-2.9178,-2.9922,-3.0243,-3.0256,-3.0898,-3.1072,-3.0871,-3.0871,-3.0733,-3.0526,-3.0526,-3.0568,-3.0651,-3.0526,-3.0526,-3.0526,-3.0526,-3.0526,-3.0551,-3.0925,-3.1044,-3.1261,-3.1949,-3.2214,-3.2386,-3.2737,-3.2852,-3.2916,-3.2979,-3.3042,-3.3117,-3.3262,-3.3352,-3.3393,-3.3393,-3.3393,-3.3393,-3.3393,-3.3393,-3.3393,-3.3393,-3.3393,-3.3393,-3.3393,-3.3393,0.0,-3.3393,-3.3452,-3.3452,-3.3393,-3.3452,-3.3452,-3.3393,-3.3393,-3.3393,-3.3393,-3.3633,-3.3633,-3.3393,-3.3633,-3.3633,-3.3393,-3.3393,-3.352,-3.3753,-3.3753,-3.3868,-3.4099,-3.4099,-3.4124,-3.4148,-3.4124,-3.4099,-3.4099,-3.4099,-3.4099,-3.4099,-3.3998,-3.4136,-3.4375,-2.9499,-2.9459,-2.9575,-3.0187,-3.0286,-3.0294,-3.0426,-3.0401,-3.0401,-3.0443,-3.0485,-3.0716,-3.1328,-3.1394,-3.1669,-3.2249,-3.2299,-3.205,-3.1427,-3.1394,-3.1156,-3.0543,-3.0526,-3.0526,-3.0526,-3.0526,-3.0526,-3.0526,-3.0526,-3.0609,0.0,0.0,0.0,0.0,-3.0378,-3.004,-2.9956,-3.0683,-3.0948,-3.0847,-3.0965,-3.0895,-3.0749,-3.0749,-3.0651,-3.0526,-3.0526,-3.0526,-3.051,-3.0526,-3.0526,-3.0526,-3.0526,-3.0526,-3.051,-3.0593,-3.0861,-3.1123,-3.1261,-3.1787,-3.2318,-3.2386,-3.2672,-3.2916,-3.2916,-3.2993,-3.3117,-3.3117,-3.3274,-3.3393,-3.3393,-3.3393,-3.3393,-3.3393,-3.3393,-3.3393,-3.3393,-3.3393,-3.3393,-3.3393,-3.3393,-3.3393,-3.3393,-3.3393,-3.3393,-3.3393,-3.3393,-3.3393,-3.3393,-3.3393,-3.3393,-3.3393,-3.3452,-3.3452,-3.3393,-3.3452,-3.3452,-3.3393,-3.3393,-3.3422,-3.3481,-3.3481,-3.3509,-3.3549,-3.3549,-3.3671,-3.3842,-3.3633,-3.3549,-3.3549,-3.3549,-3.3577,-3.3633,-3.3643,-3.3734,-3.3823,-2.993,-2.998,-3.0096,-3.046,-3.0526,-3.0642,-3.0997,-3.1047,-3.1004,-3.1047,-3.109,-3.1371,-3.21,-3.2166,-3.2315,-3.2646,-3.268,-3.2547,-3.2199,-3.1835,-3.1427,-3.1106,-3.0725,-3.0526,-3.0526,-3.0526,-3.0526,-3.0526,-3.0568,-3.0692,-3.0912,-3.0952,-3.1032,-3.1173,-3.0835,-3.0666,-3.0683,-3.1055,-3.1112,-3.1015,-3.1015,-3.0895,-3.0692,-3.0692,-3.0609,-3.0526,-3.0526,-3.0526,-3.0526,-3.0526,-3.0526,-3.0526,-3.0526,-3.0526,-3.0526,-3.0526,-3.0634,-3.0821,-3.1044,-3.1528,-3.2056,-3.2249,-3.2606,-3.2916,-3.2916,-3.2993,-3.3086,-3.3086,-3.3256,-3.3393,-3.3393,-3.3067,-3.2904,-3.3339,-3.3049,-3.2922,-3.3339,-3.3393,-3.3393,-3.3393,-3.3393,-3.3248,-3.2814,-3.3158,-3.3393,-3.3393,-3.3393,-3.3393,-3.3393,-3.3393,-3.3393,-3.3393,-3.3393,-3.3393,-3.3393,-3.3393,-3.3393,-3.3393,-3.3393,-3.3393,-3.3393,-3.3393,-3.3393,-3.3393,-3.3393,-3.3481,-3.3577,-3.3452,-3.3393,-3.3393,-3.3393,-3.3422,-3.3452,-3.3549,-3.3633,-3.3671,-3.0526,-3.0642,-3.0716,-3.0716,-3.0874,-3.1172,-3.1769,-3.1851,-3.1851,-3.1851,-3.1851,-3.2116,-3.2845,-3.2911,-3.2994,-3.3143,-3.316,-3.3094,-3.2928,-3.2249,-3.1785,-3.1636,-3.0907,-3.0526,-3.0526,-3.0568,-3.0609,-3.0609,-3.0692,-3.0814,-3.0912,-3.0992,-3.1055,-3.119,-3.119,-3.119,-3.119,-3.119,-3.1112,-3.0975,-3.0975,-3.0855,-3.0651,-3.0651,-3.0609,-3.0526,-3.0526,-3.0526,-3.0526,-3.0526,-3.0526,-3.0526,-3.0526,-3.0526,-3.0526,-3.0526,-3.0526,-3.0551,-3.0902,-3.1278,-3.164,-3.1985,-3.2403,-3.2802,-3.2802,-3.2961,-3.3135,-3.3135,-3.313,-3.3085,-3.2922,-3.2361,-3.2144,-3.2795,-3.2361,-3.2162,-3.2795,-3.2886,-3.2886,-3.2886,-3.2886,-3.2632,-3.1999,-3.2524,-3.2886,-3.2886,-3.3212,-3.3393,-3.3393,-3.3393,-3.3393,-3.3393,-3.3393,-3.3393,-3.3393,-3.3393,-3.3393,-3.3393,-3.3393,-3.3393,-3.3393,-3.3393,-3.3393,-3.3393,-3.3393,-3.3393,-3.3393,-3.3393,-3.3393,-3.3393,-3.3393,-3.3393,-3.3422,-3.3549,-3.3605,-3.3633,-3.0526,-3.1056,-3.152,-3.152,-3.205,-3.2514,-3.258,-3.258,-3.258,-3.258,-3.258,-3.2862,-3.3607,-3.369,-3.3955,-3.4634,-3.4684,-3.4402,-3.3723,-3.2994,-3.2299,-3.1609,-3.1008,-3.0692,-3.0692,-3.079,-3.0871,-3.0871,-3.0871,-3.0912,-3.0975,-3.0975,-3.1055,-3.119,-3.119,-3.119,-3.119,-3.119,-3.1072,-3.0912,-3.0912,-3.0733,-3.0526,-3.0526,-3.051,-3.0526,-3.0526,-3.0526,-3.0526,-3.0526,-3.0526,-3.0526,-3.0526,-3.0526,-3.0526,-3.0526,-3.0526,-3.051,-3.0568,-3.0861,-3.1162,-3.1184,-3.1842,-3.2453,-3.2453,-3.2898,-3.3262,-3.3262,-3.2755,-3.2089,-3.1347,-3.1148,-3.1129,-3.1202,-3.1148,-3.1129,-3.1202,-3.122,-3.122,-3.122,-3.122,-3.1184,-3.1111,-3.1166,-3.122,-3.122,-3.2578,-3.3393,-3.3393,-3.3393,-3.3393,-3.3393,-3.3393,-3.3393,-3.3393,-3.3393,-3.3393,-3.3393,-3.3393,-3.3393,-3.3393,-3.3393,-3.3393,-3.3393,-3.3393,-3.3393,-3.3393,-3.3393,-3.3393,-3.3393,-3.3393,-3.3422,-3.3491,-3.3491,-3.3577,-3.3698,-3.1948,-3.211,-3.2266,-3.2266,-3.2497,-3.2829,-3.3276,-3.3342,-3.3508,-3.3955,-3.3624,-3.3624,-3.4369,-3.4452,-3.4584,-3.4866,-3.4899,-3.4584,-3.3839,-3.3094,-3.2409,-3.1739,-3.105,-3.0733,-3.0831,-3.0871,-3.0912,-3.0912,-3.0952,-3.0975,-3.1015,-3.1072,-3.1151,-3.119,-3.119,-3.119,-3.119,-3.119,-3.1072,-3.0912,-3.0912,-3.0733,-3.0526,-3.0526,-3.0526,-3.0526,-3.0526,-3.0526,-3.0526,-3.0526,-3.0526,-3.0526,-3.0526,-3.0526,-3.0526,-3.0526,-3.0526,-3.0526,-3.0526,-3.0781,-3.1123,-3.1201,-3.164,-3.2162,-3.2454,-3.2346,-3.2294,-3.2541,-3.1978,-3.1365,-3.1057,-3.0604,-3.0423,-3.0912,-3.0586,-3.0441,-3.0912,-3.0985,-3.0985,-3.0985,-3.0985,-3.0803,-3.0314,-3.0713,-3.0785,-3.0314,-3.1763,-3.2687,-3.2687,-3.314,-3.3393,-3.3393,-3.3393,-3.3393,-3.3393,-3.3393,-3.3393,-3.3393,-3.3393,-3.3393,-3.3393,-3.3393,-3.3393,-3.3393,-3.3393,-3.3393,-3.3393,-3.3393,-3.3393,-3.3393,-3.3393,-3.3422,-3.3452,-3.352,-3.3605,-3.3588,-3.2961,-3.3056,-3.3145,-3.3145,-3.3328,-3.3661,-3.4176,-3.4259,-3.4459,-3.4927,-3.4545,-3.4413,-3.4897,-3.4947,-3.4994,-3.4994,-3.4811,-3.4462,-3.3931,-3.3045,-3.228,-3.1883,-3.1174,-3.0814,-3.0952,-3.0952,-3.0992,-3.0992,-3.1032,-3.1055,-3.1055,-3.1151,-3.119,-3.119,-3.119,-3.119,-3.119,-3.119,-3.1112,-3.0952,-3.0912,-3.0773,-3.0568,-3.0526,-3.0526,-3.0526,-3.0526,-3.0526,-3.0526,-3.0568,-3.0568,-3.0568,-3.051,-3.0526,-3.0568,-3.0568,-3.0609,-3.0609,-3.0609,-3.0821,-3.1061,-3.1157,-3.1333,-3.1565,-3.1916,-3.1535,-3.112,-3.1254,-3.0938,-3.0568,-3.0333,-2.9826,-2.9626,-3.0206,-2.9826,-2.9644,-3.0206,-3.0296,-3.0296,-3.0296,-3.0296,-3.0061,-2.95,-2.9952,-3.0016,-2.934,-3.0567,-3.1588,-3.218,-3.2741,-3.3158,-3.3393,-3.3393,-3.3393,-3.3393,-3.3393,-3.3393,-3.3393,-3.3393,-3.3393,-3.3393,-3.3393,-3.3393,-3.3393,-3.3393,-3.3393,-3.3393,-3.3393,-3.3393,-3.3393,-3.3393,-3.3393,-3.3415,-3.3265,-3.3259,-3.3186,-3.3108,-3.3694,-3.4169,-3.4169,-3.4772,-3.5274,-3.5274,-3.5274,-3.5291,-3.5291,-3.5291,-3.5228,-3.5088,-3.5088,-3.5152,-3.5291,-3.4638,-3.4175,-3.4175,-3.283,-3.1993,-3.1993,-3.1338,-3.1015,-3.1015,-3.1112,-3.119,-3.119,-3.119,-3.119,-3.119,-3.119,-3.119,-3.119,-3.119,-3.119,-3.119,-3.119,-3.1112,-3.0975,-3.0912,-3.0831,-3.0692,-3.0568,-3.0526,-3.0526,-3.0526,-3.0526,-3.0526,-3.0651,-3.0692,-3.0692,-3.0526,-3.0609,-3.0692,-3.0692,-3.0773,-3.0912,-3.0912,-3.0912,-3.0912,-3.0912,-3.0713,-3.052,-3.052,-3.0315,-2.9964,-2.9447,-2.9584,-2.9572,-2.8793,-2.8605,-2.8605,-2.8623,-2.8605,-2.8605,-2.8623,-2.8623,-2.8623,-2.8623,-2.8623,-2.8623,-2.8605,-2.8605,-2.8484,-2.8147,-2.888,-3.0184,-3.2107,-3.2198,-3.2578,-3.3375,-3.3393,-3.3393,-3.3393,-3.3393,-3.3393,-3.3393,-3.3393,-3.3393,-3.3393,-3.3393,-3.3393,-3.3393,-3.3393,-3.3393,-3.3393,-3.3393,-3.3393,-3.3393,-3.3393,-3.3452,-3.34,-3.2609,-3.2411,-3.2391,-3.474,-3.4863,-3.494,-3.494,-3.514,-3.5291,-3.5291,-3.5291,-3.5291,-3.5291,-3.5291,-3.5291,-3.5354,-3.5291,-3.5245,-3.5308,-3.4638,-3.4002,-3.3483,-3.2529,-3.18,-3.1321,-3.111,-3.1015,-3.1151,-3.119,-3.119,-3.119,-3.119,-3.119,-3.119,-3.119,-3.119,-3.119,-3.119,-3.119,-3.119,-3.119,-3.1112,-3.1015,-3.0992,-3.0855,-3.0692,-3.0651,-3.0568,-3.0526,-3.0526,-3.0568,-3.0651,-3.0692,-3.0773,-3.0831,-3.079,-3.079,-3.0831,-3.0831,-3.0871,-3.0912,-3.0912,-3.0486,-3.0084,-3.0219,-2.9779,-2.9425,-2.9729,-2.9547,-2.9062,-2.8359,-2.8287,-2.8301,-2.8025,-2.7989,-2.7989,-2.7989,-2.7989,-2.7989,-2.7989,-2.7989,-2.7989,-2.7989,-2.7989,-2.7989,-2.7989,-2.7989,-2.7943,-2.7829,-2.8041,-2.8718,-2.9882,-3.1142,-3.187,-3.192,-3.2626,-3.2988,-3.2988,-3.2988,-3.3129,-3.3393,-3.3393,-3.3393,-3.3393,-3.3393,-3.3393,-3.3393,-3.3393,-3.3393,-3.3393,-3.3393,-3.3393,-3.3393,-3.3393,-3.3393,-3.3361,-3.2647,-3.2393,-3.2246,-3.552,-3.5475,-3.5412,-3.5412,-3.5412,-3.5412,-3.5412,-3.5412,-3.5412,-3.5412,-3.5412,-3.5412,-3.552,-3.5458,-3.5412,-3.5412,-3.4505,-3.3715,-3.3244,-3.2253,-3.152,-3.1072,-3.1072,-3.1112,-3.119,-3.119,-3.119,-3.119,-3.119,-3.119,-3.119,-3.119,-3.119,-3.119,-3.119,-3.119,-3.119,-3.119,-3.1151,-3.1055,-3.1015,-3.0895,-3.079,-3.0733,-3.0651,-3.0568,-3.0568,-3.0651,-3.0773,-3.0814,-3.0855,-3.0952,-3.0992,-3.1032,-3.0992,-3.0952,-3.0992,-3.0925,-3.0656,-3.0236,-2.9799,-2.9606,-2.8982,-2.8414,-2.8442,-2.8345,-2.8128,-2.7626,-2.7612,-2.7701,-2.7701,-2.7701,-2.7701,-2.7701,-2.7701,-2.7701,-2.7701,-2.7701,-2.7701,-2.7701,-2.7701,-2.7701,-2.7701,-2.7701,-2.7642,-2.7522,-2.7522,-2.767,-2.8045,-2.9722,-3.08,-3.1208,-3.183,-3.2349,-3.2601,-3.2601,-3.2749,-3.2975,-3.3117,-3.3178,-3.3178,-3.3334,-3.3393,-3.3393,-3.3393,-3.3393,-3.3393,-3.3393,-3.3393,-3.3393,-3.3393,-3.3212,-3.2907,-3.222,-3.1764,-3.1352,-3.5515,-3.5577,-3.5622,-3.5622,-3.5622,-3.5622,-3.5622,-3.5622,-3.5622,-3.5622,-3.5622,-3.5622,-3.5622,-3.5622,-3.5622,-3.5622,-3.4269,-3.3406,-3.3406,-3.2019,-3.119,-3.119,-3.119,-3.119,-3.119,-3.119,-3.119,-3.119,-3.119,-3.119,-3.119,-3.119,-3.119,-3.119,-3.119,-3.119,-3.119,-3.119,-3.119,-3.119,-3.1055,-3.0992,-3.0871,-3.079,-3.0692,-3.0692,-3.0692,-3.0773,-3.0912,-3.0992,-3.1015,-3.1015,-3.11,-3.1123,-3.1123,-3.0988,-3.1027,-3.0954,-3.0226,-2.9989,-2.9786,-2.9076,-2.8315,-2.7554,-2.686,-2.6956,-2.7181,-2.7181,-2.7413,-2.7624,-2.7624,-2.7624,-2.7624,-2.7624,-2.7624,-2.7624,-2.7624,-2.7624,-2.7624,-2.7624,-2.7624,-2.7624,-2.7624,-2.7624,-2.7504,-2.7181,-2.7181,-2.7021,-2.6725,-2.7996,-2.9425,-3.0916,-3.1089,-3.1493,-3.2195,-3.2213,-3.2283,-3.2317,-3.2601,-3.2763,-3.2763,-3.3178,-3.3364,-3.3364,-3.3393,-3.3393,-3.3393,-3.3393,-3.3393,-3.3393,-3.3393,-3.2969,-3.231,-3.15,-3.0768,-3.0051,-3.4975,-3.5316,-3.5622,-3.5622,-3.5622,-3.5622,-3.5622,-3.5622,-3.5622,-3.5622,-3.5622,-3.5622,-3.5622,-3.5622,-3.5622,-3.5622,-3.4269,-3.3406,-3.3406,-3.2019,-3.119,-3.119,-3.119,-3.119,-3.119,-3.119,-3.119,-3.119,-3.119,-3.119,-3.119,-3.119,-3.119,-3.119,-3.119,-3.119,-3.119,-3.119,-3.119,-3.119,-3.1151,-3.1072,-3.0912,-3.0935,-3.0773,-3.0568,-3.0773,-3.0871,-3.0912,-3.0992,-3.1072,-3.105,-3.0548,-3.0362,-3.0362,-3.0323,-3.0323,-3.0209,-2.9448,-2.8805,-2.8315,-2.8146,-2.752,-2.6911,-2.6742,-2.6758,-2.6825,-2.6825,-2.6891,-2.6939,-2.6939,-2.6939,-2.6939,-2.6939,-2.6939,-2.6939,-2.6939,-2.6939,-2.6939,-2.6939,-2.6939,-2.6939,-2.6939,-2.6939,-2.6906,-2.6825,-2.6825,-2.6791,-2.6691,-2.7011,-2.7639,-2.8579,-2.9972,-3.0838,-3.1011,-3.1565,-3.2003,-3.2317,-3.2368,-3.2419,-3.2435,-3.2781,-3.2939,-3.2957,-3.3256,-3.3393,-3.3393,-3.3393,-3.3393,-3.3393,-3.3393,-3.3314,-3.3055,-3.17,-3.0992,-3.0522,-3.4431,-3.4673,-3.488,-3.488,-3.488,-3.4975,-3.5224,-3.5224,-3.5316,-3.5577,-3.5622,-3.5622,-3.5622,-3.5622,-3.5622,-3.5622,-3.4573,-3.3761,-3.3423,-3.2324,-3.1546,-3.1207,-3.119,-3.119,-3.119,-3.119,-3.119,-3.119,-3.119,-3.119,-3.119,-3.119,-3.119,-3.119,-3.119,-3.119,-3.119,-3.119,-3.1151,-3.1112,-3.119,-3.1072,-3.0912,-3.0975,-3.0895,-3.0733,-3.0895,-3.0992,-3.0982,-3.0684,-3.0661,-3.0565,-2.9837,-2.96,-2.9516,-2.9178,-2.9313,-2.9431,-2.8653,-2.8146,-2.7705,-2.7385,-2.6996,-2.6691,-2.6691,-2.6691,-2.6691,-2.6691,-2.6691,-2.6691,-2.6691,-2.6691,-2.6691,-2.6691,-2.6691,-2.6691,-2.6691,-2.6691,-2.6691,-2.6691,-2.6691,-2.6691,-2.6691,-2.6691,-2.6691,-2.6691,-2.6691,-2.6691,-2.6691,-2.6691,-2.7046,-2.7772,-2.914,-3.0016,-3.0375,-3.111,-3.16,-3.1804,-3.1967,-3.2039,-3.2039,-3.2401,-3.2666,-3.2795,-3.3019,-3.3208,-3.3393,-3.3393,-3.3176,-3.2886,-3.3266,-3.2969,-3.2319,-3.1737,-3.1237,-3.073,-3.3885,-3.3919,-3.3986,-3.3986,-3.3986,-3.4136,-3.4625,-3.4673,-3.4833,-3.5316,-3.5379,-3.5379,-3.5379,-3.5424,-3.547,-3.547,-3.4986,-3.4303,-3.3457,-3.2696,-3.1952,-3.1224,-3.119,-3.119,-3.119,-3.119,-3.119,-3.119,-3.119,-3.119,-3.119,-3.119,-3.119,-3.119,-3.119,-3.119,-3.119,-3.119,-3.1151,-3.1015,-3.1151,-3.1072,-3.0912,-3.0975,-3.1015,-3.0958,-3.0897,-3.0943,-3.0903,-3.0192,-2.9939,-2.9803,-2.9042,-2.8805,-2.8653,-2.7875,-2.8129,-2.8484,-2.7824,-2.7705,-2.7672,-2.7029,-2.6962,-2.7012,-2.6894,-2.686,-2.6826,-2.6708,-2.6691,-2.6691,-2.6691,-2.6691,-2.6691,-2.6691,-2.6691,-2.6691,-2.6691,-2.6691,-2.6691,-2.6691,-2.6691,-2.6691,-2.6691,-2.6691,-2.6691,-2.6691,-2.6691,-2.6691,-2.6691,-2.6691,-2.6996,-2.7621,-2.8518,-2.9397,-3.026,-3.0886,-3.119,-3.119,-3.1487,-3.162,-3.1657,-3.2039,-3.2368,-3.2634,-3.2699,-3.2925,-3.3226,-3.3226,-3.2757,-3.2108,-3.2793,-3.222,-3.1002,-3.1355,-3.1123,-3.0621,-3.3339,-3.3665,-3.3986,-3.3986,-3.3986,-3.4036,-3.4136,-3.4119,-3.4136,-3.4235,-3.4235,-3.4235,-3.4235,-3.4673,-3.4927,-3.4927,-3.5215,-3.4861,-3.3491,-3.2696,-3.1952,-3.1224,-3.119,-3.119,-3.119,-3.119,-3.119,-3.119,-3.119,-3.119,-3.119,-3.119,-3.119,-3.119,-3.119,-3.119,-3.119,-3.119,-3.119,-3.119,-3.119,-3.1112,-3.0975,-3.1112,-3.1072,-3.0868,-3.042,-3.0184,-2.9993,-2.9397,-2.9161,-2.9025,-2.8247,-2.801,-2.7858,-2.7097,-2.6962,-2.7029,-2.6894,-2.7334,-2.7755,-2.7637,-2.8146,-2.845,-2.7791,-2.7638,-2.7469,-2.6826,-2.6691,-2.6691,-2.6691,-2.6691,-2.6691,-2.6691,-2.6691,-2.6691,-2.6691,-2.6691,-2.6691,-2.6691,-2.6691,-2.6691,-2.6691,-2.6691,-2.6691,-2.6691,-2.6691,-2.6691,-2.6691,-2.6691,-2.6742,-2.686,-2.8247,-2.9634,-3.1021,-3.114,-3.119,-3.119,-3.1252,-3.1291,-3.1291,-3.162,-3.1823,-3.1896,-3.2231,-3.2419,-3.2453,-3.2453,-3.2044,-3.1356,-3.1479,-3.1048,-3.0272,-2.9722,-2.9743,-2.9959,-3.2803,-3.2949,-3.3161,-3.3161,-3.3161,-3.3266,-3.3511,-3.3563,-3.3665,-3.3969,-3.3986,-3.3986,-3.3986,-3.4235,-3.448,-3.4769,-3.5021,-3.4818,-3.4049,-3.3305,-3.2544,-3.1799,-3.141,-3.119,-3.119,-3.119,-3.119,-3.119,-3.119,-3.119,-3.119,-3.119,-3.119,-3.119,-3.119,-3.119,-3.119,-3.119,-3.1151,-3.1112,-3.119,-3.0858,-3.046,-3.0999,-3.0661,-2.9892,-3.0053,-2.98,-2.9327,-2.8602,-2.8349,-2.823,-2.7452,-2.7215,-2.7148,-2.6793,-2.6691,-2.6793,-2.7182,-2.7554,-2.7891,-2.8349,-2.8721,-2.889,-2.8535,-2.845,-2.823,-2.7452,-2.73,-2.7182,-2.6776,-2.6691,-2.6691,-2.6691,-2.6691,-2.6691,-2.6691,-2.6691,-2.6691,-2.6691,-2.6691,-2.6691,-2.6691,-2.6691,-2.6691,-2.6691,-2.6691,-2.6691,-2.6691,-2.6691,-2.6691,-2.6691,-2.818,-2.9702,-3.119,-3.119,-3.1004,-3.0615,-3.0615,-3.0615,-3.0598,-3.0347,-3.0791,-3.1696,-3.1498,-3.1708,-3.2317,-3.2317,-3.1826,-3.1159,-3.1192,-3.075,-3.0043,-2.9597,-2.9607,-2.9772,-3.2398,-3.2398,-3.2398,-3.2398,-3.2398,-3.2547,-3.2933,-3.2986,-3.3145,-3.3563,-3.3614,-3.3614,-3.3614,-3.3716,-3.3969,-3.4366,-3.4529,-3.4454,-3.4153,-3.3477,-3.2841,-3.2307,-3.1579,-3.119,-3.119,-3.119,-3.119,-3.119,-3.119,-3.119,-3.119,-3.119,-3.119,-3.119,-3.119,-3.119,-3.119,-3.119,-3.1151,-3.1072,-3.1151,-3.0796,-3.0263,-3.0931,-3.048,-2.9533,-2.9753,-2.9482,-2.8839,-2.7875,-2.7554,-2.7452,-2.6877,-2.6691,-2.6691,-2.6691,-2.6691,-2.686,-2.7621,-2.796,-2.8281,-2.9059,-2.9364,-2.9448,-2.9279,-2.9245,-2.8975,-2.7992,-2.7789,-2.7553,-2.6843,-2.6691,-2.6691,-2.6691,-2.6691,-2.6691,-2.6691,-2.6691,-2.6691,-2.6691,-2.6691,-2.6691,-2.6691,-2.6691,-2.6691,-2.6691,-2.6691,-2.6691,-2.6691,-2.6691,-2.686,-2.7215,-2.8366,-2.9617,-3.092,-3.1106,-3.0734,-2.9854,-3.0023,-3.0023,-2.9837,-2.9245,-2.9768,-3.1033,-3.0468,-3.0715,-3.1568,-3.1708,-3.122,-3.0367,-3.0593,-3.0103,-2.9234,-2.9105,-2.9193,-2.9331,-3.2398,-3.2398,-3.2398,-3.2398,-3.2398,-3.2382,-3.2437,-3.2437,-3.2492,-3.2492,-3.2492,-3.2492,-3.2492,-3.2949,-3.3287,-3.3287,-3.3767,-3.3778,-3.3161,-3.2445,-3.2093,-3.2307,-3.1579,-3.119,-3.119,-3.119,-3.119,-3.119,-3.119,-3.119,-3.119,-3.119,-3.119,-3.119,-3.119,-3.119,-3.119,-3.119,-3.119,-3.119,-3.119,-3.1157,-3.1106,-3.1173,-3.1123,-3.0852,-2.9533,-2.9025,-2.8755,-2.7266,-2.6776,-2.6776,-2.6708,-2.6691,-2.6691,-2.6691,-2.6691,-2.686,-2.7621,-2.8349,-2.9076,-2.9837,-3.0531,-3.0852,-3.0176,-3.0023,-2.96,-2.8129,-2.7789,-2.7553,-2.6843,-2.6691,-2.6691,-2.6691,-2.6691,-2.6691,-2.6691,-2.6691,-2.6691,-2.6691,-2.6691,-2.6691,-2.6691,-2.6691,-2.6691,-2.6691,-2.6691,-2.6691,-2.6691,-2.6691,-2.7334,-2.8808,-2.8924,-2.9364,-3.0176,-3.0852,-3.048,-2.9076,-2.977,-2.9736,-2.9059,-2.9008,-2.9079,-2.9217,-2.9149,-2.9166,-2.9304,-2.9963,-2.9386,-2.8132,-2.888,-2.8252,-2.6961,-2.7079,-2.7555,-2.8135,-3.169,-3.1767,-3.1905,-3.2321,-3.2398,-3.2398,-3.2398,-3.2398,-3.2398,-3.2398,-3.2398,-3.2398,-3.2398,-3.2602,-3.2685,-3.2613,-3.2787,-3.2736,-3.2416,-3.1421,-3.0927,-3.1174,-3.1207,-3.119,-3.119,-3.119,-3.119,-3.119,-3.119,-3.119,-3.119,-3.119,-3.119,-3.119,-3.119,-3.119,-3.119,-3.119,-3.0937,-3.0531,-3.0531,-3.0243,-2.9871,-3.0345,-3.0226,-2.9803,-2.9719,-2.9076,-2.818,-2.7588,-2.708,-2.6691,-2.6691,-2.6691,-2.6691,-2.6691,-2.6691,-2.6962,-2.8213,-2.8755,-2.9279,-3.048,-3.0987,-3.1123,-3.0852,-3.0784,-3.0362,-2.8839,-2.8535,-2.8163,-2.6928,-2.6691,-2.6691,-2.6691,-2.6691,-2.6691,-2.6691,-2.6691,-2.6691,-2.6691,-2.6691,-2.6691,-2.6691,-2.6691,-2.6691,-2.6691,-2.6691,-2.6691,-2.6691,-2.6691,-2.7182,-2.823,-2.8264,-2.8856,-3.0091,-3.0378,-2.977,-2.8281,-2.9042,-2.9008,-2.8247,-2.7774,-2.8078,-2.8958,-2.8467,-2.8535,-2.9045,-2.9296,-2.9059,-2.8518,-2.8332,-2.7909,-2.7334,-2.6928,-2.7012,-2.7301,-3.0997,-3.1089,-3.1228,-3.169,-3.1951,-3.2074,-3.2074,-3.2259,-3.2398,-3.2398,-3.2398,-3.2321,-3.2105,-3.2074,-3.1959,-3.1643,-3.1632,-3.1486,-3.1214,-3.0323,-2.9904,-3.0054,-3.0493,-3.0757,-3.0757,-3.0878,-3.0975,-3.0975,-3.1151,-3.119,-3.119,-3.119,-3.119,-3.119,-3.1055,-3.0975,-3.0958,-3.0603,-3.0162,-2.9655,-2.9592,-2.9282,-2.8878,-2.9512,-2.9583,-2.9347,-2.9381,-2.8873,-2.8112,-2.7638,-2.7131,-2.6691,-2.6691,-2.6691,-2.6691,-2.6691,-2.6691,-2.7029,-2.8569,-2.9011,-2.933,-3.0818,-3.119,-3.119,-3.119,-3.119,-3.0768,-2.9279,-2.9011,-2.8554,-2.6979,-2.6691,-2.6691,-2.6691,-2.6691,-2.6691,-2.6691,-2.6691,-2.6691,-2.6691,-2.6691,-2.6691,-2.6691,-2.6691,-2.6691,-2.6691,-2.6691,-2.6691,-2.6691,-2.6691,-2.7046,-2.7772,-2.7588,-2.8197,-2.9736,-2.9753,-2.8991,-2.7469,-2.8247,-2.8213,-2.7452,-2.6928,-2.7266,-2.823,-2.7689,-2.7774,-2.8298,-2.8789,-2.8687,-2.8264,-2.8197,-2.7892,-2.7402,-2.6894,-2.6742,-2.6825,-3.0412,-3.0412,-3.036,-3.0428,-3.0951,-3.1366,-3.1366,-3.1951,-3.2382,-3.2382,-3.2382,-3.2136,-3.1459,-3.1382,-3.112,-3.0474,-3.0412,-3.0135,-2.9458,-2.9202,-2.9074,-2.9074,-2.9528,-2.9793,-2.9793,-3.0267,-3.0477,-3.0477,-3.0958,-3.119,-3.119,-3.119,-3.119,-3.1151,-3.0699,-3.0477,-3.041,-2.9286,-2.8783,-2.8744,-2.8487,-2.84,-2.8439,-2.8848,-2.9448,-2.9905,-2.8347,-2.8332,-2.8774,-2.7215,-2.6691,-2.6691,-2.6691,-2.6691,-2.6691,-2.6691,-2.6691,-2.7029,-2.8569,-2.9011,-2.933,-3.0818,-3.119,-3.119,-3.119,-3.119,-3.0768,-2.9279,-2.8975,-2.8501,-2.6979,-2.6691,-2.6691,-2.6691,-2.6691,-2.6691,-2.6691,-2.6691,-2.6691,-2.6691,-2.6691,-2.6691,-2.6691,-2.6691,-2.6691,-2.6691,-2.6691,-2.6691,-2.6691,-2.6691,-2.7046,-2.7755,-2.708,-2.7418,-2.8994,-2.9011,-2.8213,-2.6708,-2.7469,-2.7418,-2.6691,-2.6691,-2.6691,-2.6691,-2.6691,-2.6691,-2.681,-2.8332,-2.8061,-2.6843,-2.8366,-2.8027,-2.6691,-2.6691,-2.6691,-2.6691,-2.9627,-2.972,-2.9874,-3.0335,-3.0582,-3.0705,-3.0705,-3.0874,-3.1012,-3.1012,-3.1413,-3.1428,-3.0782,-3.112,-3.0936,-2.9812,-2.972,-2.9427,-2.875,-2.8649,-2.8621,-2.8621,-2.9364,-2.9793,-2.9793,-2.9924,-3.0011,-3.0011,-3.014,-3.0241,-3.0241,-3.0241,-3.0241,-3.0182,-3.0054,-2.9734,-2.9286,-2.8949,-2.8199,-2.7243,-2.715,-2.7301,-2.7582,-2.7694,-2.8401,-2.9262,-2.8805,-2.8433,-2.8095,-2.7638,-2.7131,-2.6691,-2.6691,-2.6691,-2.6691,-2.6691,-2.6691,-2.7029,-2.8569,-2.9011,-2.933,-3.0818,-3.119,-3.119,-3.119,-3.0801,-3.0159,-2.9178,-2.8552,-2.7858,-2.6877,-2.6691,-2.6691,-2.6691,-2.6691,-2.6691,-2.6691,-2.6691,-2.6691,-2.6691,-2.6691,-2.6691,-2.6691,-2.6691,-2.6691,-2.6691,-2.6691,-2.6691,-2.6691,-2.6691,-2.6793,-2.7012,-2.681,-2.6911,-2.7368,-2.7909,-2.7943,-2.7486,-2.7671,-2.7418,-2.6691,-2.6691,-2.6691,-2.6691,-2.6691,-2.6691,-2.6725,-2.7182,-2.7114,-2.6742,-2.7199,-2.7097,-2.6691,-2.6691,-2.6691,-2.6691,-2.8935,-2.9012,-2.915,-2.955,-2.9843,-3.0027,-3.0027,-3.0243,-3.0428,-3.0428,-3.0766,-3.0751,-3.0104,-3.0381,-3.0181,-2.9119,-2.9012,-2.8842,-2.8427,-2.8411,-2.8411,-2.8411,-2.892,-2.9243,-2.9243,-2.9438,-2.9528,-2.9528,-2.9705,-2.9793,-2.9793,-2.9793,-2.9793,-2.9793,-2.9617,-2.9143,-2.8496,-2.8024,-2.7158,-2.6077,-2.5966,-2.6073,-2.6303,-2.664,-2.7394,-2.8286,-2.8144,-2.7977,-2.7739,-2.7469,-2.7063,-2.6691,-2.6691,-2.6691,-2.6691,-2.6691,-2.6691,-2.6962,-2.818,-2.8518,-2.8822,-3.0023,-3.0768,-3.1123,-3.0835,-3.0429,-2.9803,-2.8738,-2.8146,-2.7553,-2.6843,-2.6691,-2.6691,-2.6691,-2.6691,-2.6691,-2.6691,-2.6691,-2.6691,-2.6691,-2.6691,-2.6691,-2.6691,-2.6691,-2.6691,-2.6691,-2.6691,-2.6691,-2.6691,-2.6691,-2.6691,-2.6691,-2.6691,-2.6843,-2.7131,-2.73,-2.7368,-2.7368,-2.7368,-2.7131,-2.6691,-2.6691,-2.6691,-2.6691,-2.6691,-2.6691,-2.6708,-2.7012,-2.6962,-2.6725,-2.7012,-2.6962,-2.6691,-2.6691,-2.6691,-2.6691,-2.8411,-2.8411,-2.8411,-2.8411,-2.8904,-2.9319,-2.9319,-2.9843,-3.0243,-3.0243,-3.0289,-3.0074,-2.9396,-2.9381,-2.9135,-2.8473,-2.8411,-2.8411,-2.8411,-2.8411,-2.8411,-2.8411,-2.8411,-2.8411,-2.8411,-2.8826,-2.9044,-2.9044,-2.9454,-2.9661,-2.9661,-2.9661,-2.9661,-2.9677,-2.9227,-2.8618,-2.7876,-2.6851,-2.5933,-2.5164,-2.493,-2.4863,-2.4981,-2.5726,-2.6429,-2.7015,-2.6705,-2.7062,-2.7535,-2.6928,-2.6691,-2.6691,-2.6691,-2.6691,-2.6691,-2.6691,-2.6691,-2.686,-2.7621,-2.7789,-2.801,-2.8789,-3.0006,-3.0818,-3.0159,-2.9956,-2.9516,-2.8076,-2.7739,-2.752,-2.6826,-2.6691,-2.6691,-2.6691,-2.6691,-2.6691,-2.6691,-2.6691,-2.6691,-2.6691,-2.6691,-2.6691,-2.6691,-2.6691,-2.6691,-2.6691,-2.6691,-2.6691,-2.6691,-2.6691,-2.6691,-2.6691,-2.6691,-2.7029,-2.7723,-2.7046,-2.6725,-2.6793,-2.6725,-2.6691,-2.6691,-2.6691,-2.6691,-2.6691,-2.6691,-2.6691,-2.6742,-2.7435,-2.7317,-2.6759,-2.7452,-2.73,-2.6691,-2.6691,-2.6691,-2.6691,-2.8411,-2.8411,-2.8411,-2.8411,-2.8535,-2.8627,-2.8627,-2.875,-2.8842,-2.8842,-2.9304,-2.9381,-2.8704,-2.9104,-2.9135,-2.8473,-2.8411,-2.8411,-2.8411,-2.8411,-2.8411,-2.8411,-2.8411,-2.8411,-2.8411,-2.8493,-2.8525,-2.8525,-2.8668,-2.87,-2.87,-2.87,-2.87,-2.8716,-2.8573,-2.7907,-2.676,-2.6486,-2.5672,-2.4518,-2.4431,-2.4599,-2.4902,-2.5082,-2.5448,-2.5863,-2.5775,-2.6059,-2.6497,-2.664,-2.6691,-2.6691,-2.6691,-2.6691,-2.6691,-2.6691,-2.6691,-2.686,-2.7621,-2.7789,-2.801,-2.8789,-2.9228,-2.9431,-2.9262,-2.8755,-2.8178,-2.7857,-2.7351,-2.6894,-2.6725,-2.6691,-2.6691,-2.6691,-2.6691,-2.6691,-2.6691,-2.6691,-2.6691,-2.6691,-2.6691,-2.6691,-2.6691,-2.6691,-2.6691,-2.6691,-2.6691,-2.6691,-2.6691,-2.6691,-2.6691,-2.6691,-2.6691,-2.6776,-2.6945,-2.6776,-2.6996,-2.7571,-2.6979,-2.6691,-2.6691,-2.6691,-2.6691,-2.6691,-2.6691,-2.6691,-2.6708,-2.686,-2.6843,-2.6708,-2.6877,-2.6843,-2.6691,-2.6691,-2.6691,-2.6691,-2.8411,-2.8411,-2.8411,-2.8411,-2.8411,-2.8411,-2.8411,-2.8411,-2.8411,-2.8411,-2.8719,-2.8796,-2.8442,-2.8719,-2.8796,-2.8427,-2.8411,-2.8411,-2.8411,-2.8411,-2.8411,-2.8411,-2.8411,-2.8411,-2.8411,-2.8411,-2.8411,-2.8411,-2.8411,-2.8411,-2.8411,-2.8411,-2.8411,-2.8411,-2.8411,-2.7827,-2.6842,-2.6534,-2.5764,-2.4764,-2.4441,-2.4426,-2.4639,-2.4839,-2.502,-2.5275,-2.5652,-2.6052,-2.6436,-2.6624,-2.6691,-2.6657,-2.647,-2.6539,-2.6657,-2.647,-2.6539,-2.6776,-2.7182,-2.7283,-2.7385,-2.7791,-2.7892,-2.7977,-2.8349,-2.8112,-2.7688,-2.7351,-2.6962,-2.6691,-2.6691,-2.6691,-2.6691,-2.6691,-2.6691,-2.6691,-2.6691,-2.6691,-2.6691,-2.6691,-2.6691,-2.6691,-2.6691,-2.6691,-2.6691,-2.6691,-2.6691,-2.6691,-2.6691,-2.6691,-2.6691,-2.6691,-2.6691,-2.6691,-2.6691,-2.6691,-2.6894,-2.7283,-2.6877,-2.6691,-2.6691,-2.6691,-2.6691,-2.6691,-2.6691,-2.6691,-2.6691,-2.6691,-2.6691,-2.6691,-2.6691,-2.6691,-2.6691,-2.6691,-2.6691,-2.6691,-2.8411,-2.8411,-2.8411,-2.8411,-2.8411,-2.8411,-2.8411,-2.8411,-2.8411,-2.8411,-2.8411,-2.8411,-2.8411,-2.8411,-2.8411,-2.8411,-2.8411,-2.8411,-2.8411,-2.8411,-2.8411,-2.8411,-2.8411,-2.8411,-2.8411,-2.8411,-2.8411,-2.8411,-2.8411,-2.8411,-2.8411,-2.8411,-2.8411,-2.8411,-2.8411,-2.8027,-2.7349,-2.6795,-2.6072,-2.5272,-2.4702,-2.441,-2.4343,-2.4679,-2.4799,-2.4863,-2.554,-2.6052,-2.6401,-2.647,-2.6505,-2.6436,-2.6104,-2.628,-2.6539,-2.621,-2.6385,-2.6691,-2.6691,-2.6691,-2.6691,-2.6691,-2.6691,-2.686,-2.7486,-2.7621,-2.7452,-2.6826,-2.6691,-2.6691,-2.6691,-2.6691,-2.6691,-2.6691,-2.6691,-2.6691,-2.6691,-2.6691,-2.6691,-2.6691,-2.6691,-2.6691,-2.6691,-2.6691,-2.6691,-2.6691,-2.6691,-2.6691,-2.6691,-2.6691,-2.6691,-2.6691,-2.6691,-2.6691,-2.6691,-2.6691,-2.6691,-2.6691,-2.6691,-2.6691,-2.6691,-2.6691,-2.6691,-2.6691,-2.6691,-2.6691,-2.6691,-2.6691,-2.6691,-2.6691,-2.6691,-2.6691,-2.6691,-2.6691,-2.6691,-2.6708,-2.8411,-2.8411,-2.8411,-2.8411,-2.8411,-2.8411,-2.8411,-2.8411,-2.8411,-2.8411,-2.8411,-2.8411,-2.8411,-2.8411,-2.8411,-2.8411,-2.8411,-2.8411,-2.8411,-2.8411,-2.8411,-2.8411,-2.8411,-2.8411,-2.8411,-2.8411,-2.8411,-2.8411,-2.8411,-2.8411,-2.8411,-2.8411,-2.8411,-2.8411,-2.8411,-2.8027,-2.7396,-2.7288,-2.6503,-2.5302,-2.521,-2.4825,-2.4302,-2.4343,-2.4385,-2.4385,-2.4492,-2.4799,-2.5214,-2.554,-2.5652,-2.5652,-2.5615,-2.5872,-2.6175,-2.6139,-2.6385,-2.6691,-2.6691,-2.6691,-2.6691,-2.6691,-2.6691,-2.6725,-2.6826,-2.6843,-2.6826,-2.6708,-2.6691,-2.6691,-2.6691,-2.6691,-2.6691,-2.6691,-2.6691,-2.6691,-2.6691,-2.6691,-2.6691,-2.6691,-2.6691,-2.6691,-2.6691,-2.6691,-2.6691,-2.6691,-2.6691,-2.6691,-2.6691,-2.6691,-2.6691,-2.6691,-2.6691,-2.6691,-2.6691,-2.6691,-2.6691,-2.6691,-2.6691,-2.6691,-2.6691,-2.6691,-2.6691,-2.6691,-2.6691,-2.6691,-2.6691,-2.6691,-2.6691,-2.6691,-2.6691,-2.6691,-2.6691,-2.6691,-2.6691,-2.6793,-2.8411,-2.8411,-2.8411,-2.8411,-2.8411,-2.8411,-2.8411,-2.8411,-2.8411,-2.8411,-2.8411,-2.8411,-2.8411,-2.8411,-2.8411,-2.8411,-2.8411,-2.8348,-2.8299,-2.8299,-2.825,-2.8152,-2.8168,-2.8168,-2.8168,-2.8168,-2.8168,-2.8168,-2.8314,-2.8411,-2.8411,-2.8411,-2.8411,-2.8411,-2.8411,-2.8242,-2.7934,-2.7565,-2.7042,-2.6411,-2.5626,-2.5133,-2.4825,-2.4441,-2.4302,-2.4343,-2.4574,-2.4902,-2.5275,-2.5427,-2.5503,-2.5465,-2.5237,-2.5427,-2.5726,-2.5503,-2.5726,-2.6016,-2.6016,-2.6016,-2.6016,-2.6016,-2.6016,-2.6016,-2.6016,-2.6016,-2.6175,-2.6624,-2.6691,-2.6691,-2.6691,-2.6691,-2.6691,-2.6691,-2.6505,-2.635,-2.635,-2.6175,-2.6033,-2.5997,-2.5908,-2.5855,-2.5855,-2.5855,-2.5855,-2.5855,-2.6068,-2.6227,-2.6297,-2.6538,-2.664,-2.6691,-2.6691,-2.6691,-2.6691,-2.6691,-2.6691,-2.6691,-2.6691,-2.6691,-2.6691,-2.6691,-2.6691,-2.6691,-2.6691,-2.6691,-2.6691,-2.6691,-2.6691,-2.6691,-2.6691,-2.6691,-2.6691,-2.6691,-2.6691,-2.681]}]]